     2              OBSERVATION DATA    GPS                 RINEX VERSION / TYPE
teqc 2002Apr3 20060623 22:39:15UTC                          PGM / RUN BY / DATE
                                                            COMMENT
L2: 1 -> 1; 150 -> 5; 250 -> 9                              COMMENT
L2: 1 -> 1; 150 -> 5; 250 -> 9                              COMMENT
L2: 1 -> 1; 150 -> 5; 250 -> 9                              COMMENT
L2: 1 -> 1; 150 -> 5; 250 -> 9                              COMMENT
L2: 1 -> 1; 150 -> 5; 250 -> 9                              COMMENT
Original Marker Name: STG1                                  COMMENT
Campaign Name: UCSD Rose 2005-2006                          COMMENT
4-Character Station Name: STG1                              COMMENT
6-Character Antenna Code: DMRCHT                            COMMENT
Vertical Measurement Point: BPA                             COMMENT
Vertical Offset to Rinex Ref. Point: 0.0000                 COMMENT
Radial Measurement Point: RRP                               COMMENT
Radial Offset to Rinex Ref. Point: 0.0000                   COMMENT
Antenna Height from Field Measurement: 0.8900 m             COMMENT
Additional Antenna Identification Info.:                    COMMENT
Turborogue and Ashtech Choke Ring                           COMMENT
Original XYZ: 0.0000 0.0000 0.0000                          COMMENT
New XYZ position is based on association with SCEC monument COMMENT
E1C8O6J3+0011. Position of that monument is believed to be  COMMENT
valid to within 1 m horizontally; vertical accuracy         COMMENT
should be no worse than 3-times this value.                 COMMENT
                                                            COMMENT
Revised Rinex header created by UCSD GPS archive for        COMMENT
GSAC on 09-Jun-2007 (2007:160) 17:13:47 GMT                 COMMENT
For assistance contact dagnew@ucsd.edu                      COMMENT
or anderson@python.ucsd.edu                                 COMMENT
                                                            COMMENT
STG1 1998                                                   MARKER NAME
-Unknown- SCRIPPS INSTITUTION OF OCEANOGRAPHY               OBSERVER / AGENCY
319 ASHTECH Z-XII3 CC00                                     REC # / TYPE / VERS
409 DORNE-MARGOL. TYPE T                                    ANT # / TYPE
 -2459960.0000 -4776498.0000  3425796.0000                  APPROX POSITION XYZ
        0.8900        0.0000        0.0000                  ANTENNA: DELTA H/E/N
     1     1     0                                          WAVELENGTH FACT L1/2
     7    C1    L1    L2    P1    P2    S1    S2            # / TYPES OF OBSERV
    30                                                      INTERVAL
  2006     5    10     0     0   30.000000                  TIME OF FIRST OBS
  2006     5    11    18     9   32.000000                  TIME OF LAST OBS
                                                            END OF HEADER
 06  5 10  0  0 30.0000000  0  7G24G 1G11G16G20G23G25
  24214869.6254   -4904153.82349  -3808727.84545  24214869.1554   24214876.0384
       213.0004        148.0004
  22074989.8834  -14457399.89649 -11246748.50347  22074989.3534   22074995.0884
       235.0004        192.0004
  22715219.9494   -9786888.81049  -7604801.00646  22715220.3404   22715224.6164
       227.0004        171.0004
  22566629.3194   -8691352.73049  -6759766.11246  22566628.4484   22566634.4964
       224.0004        175.0004
  20906044.2374  -20983994.54449 -16328007.09247  20906043.7874   20906048.8814
       243.0004        208.0004
  22111115.6474  -16911296.90449 -13158496.42047  22111115.3634   22111117.9024
       231.0004        188.0004
  21431643.5074  -14911075.72849 -11601184.21447  21431643.3424   21431648.3344
       241.0004        205.0004
 06  5 10  0  1  0.0000000  0  7G24G 1G11G16G20G23G25
  24204241.9334   -4960001.02649  -3852245.13245  24204240.6434   24204248.4354
       211.0004        145.0004
  22083564.1524  -14412342.00949 -11211638.48147  22083564.2274   22083570.4364
       235.0004        192.0004
  22727741.6914   -9721087.24149  -7553527.09346  22727740.8124   22727747.0574
       226.0004        171.0004
  22552650.1594   -8764812.71549  -6817007.60846  22552649.5764   22552655.5664
       225.0004        175.0004
  20895332.1804  -21040286.72849 -16371871.11647  20895331.8734   20895336.5144
       242.0004        209.0004
  22101208.9154  -16963357.11349 -13199062.78547  22101208.2724   22101211.3464
       229.0004        188.0004
  21443869.9054  -14846825.70949 -11551119.26847  21443870.1084   21443874.7074
       240.0004        205.0004
 06  5 10  0  1 30.0000000  0  7G24G 1G11G16G20G23G25
  24193696.1214   -5015418.82349  -3895427.78145  24193695.7734   24193703.4874
       210.0004        145.0004
  22092152.5514  -14367209.82749 -11176470.56847  22092152.3514   22092158.2444
       234.0004        193.0004
  22740310.9124   -9655035.28149  -7502058.08046  22740309.9714   22740316.6034
       225.0004        172.0004
  22538727.6394   -8837975.59049  -6874017.59746  22538727.7834   22538732.9644
       226.0004        176.0004
  20884688.3884  -21096220.31949 -16415455.71247  20884687.8014   20884692.7734
       242.0004        209.0004
  22091323.1104  -17015307.08949 -13239543.25347  22091322.9154   22091325.7604
       231.0004        190.0004
  21456147.5484  -14782306.28849 -11500844.40447  21456147.5984   21456152.4314
       241.0004        205.0004
 06  5 10  0  2  0.0000000  0  7G24G 1G11G16G20G23G25
  24183232.4204   -5070406.11349  -3938274.99745  24183231.6374   24183239.6994
       212.0004        148.0004
  22100754.9464  -14322003.75949 -11141245.06647  22100754.7164   22100760.5044
       234.0004        192.0004
  22752927.1604   -9588736.13049  -7450396.45846  22752926.8574   22752933.7914
       224.0004        172.0004
  22524862.4544   -8910838.03649  -6930793.46746  22524862.9524   22524867.8804
       229.0004        177.0004
  20874113.1144  -21151793.30349 -16458759.32147  20874112.3534   20874117.5664
       242.0004        209.0004
  22081458.2504  -17067147.35249 -13279938.23547  22081457.7954   22081460.8564
       230.0004        190.0004
  21468475.9304  -14717520.17049 -11450361.71547  21468475.9034   21468480.6154
       240.0004        205.0004
 06  5 10  0  2 30.0000000  0  7G24G 1G11G16G20G23G25
  24172850.7994   -5124960.90549  -3980785.17645  24172850.9644   24172858.9444
       214.0004        150.0004
  22109371.5284  -14276723.53749 -11105961.78647  22109371.6514   22109377.0834
       235.0004        192.0004
  22765590.1634   -9522192.01049  -7398543.94946  22765590.4504   22765595.8844
       224.0004        171.0004
  22511055.0134   -8983397.30249  -6987333.10346  22511055.0814   22511060.6754
       228.0004        177.0004
  20863607.0234  -21207003.04149 -16501779.88647  20863606.4864   20863611.7314
       242.0004        209.0004
  22071614.2464  -17118877.61949 -13320247.51247  22071614.1994   22071616.1744
       229.0004        189.0004
  21480854.7214  -14652469.13649 -11399672.60647  21480854.6344   21480859.6024
       240.0004        204.0004
 06  5 10  0  3  0.0000000  0  7G24G 1G11G16G20G23G25
  24162552.1234   -5179081.58549  -4022957.08845  24162552.0734   24162559.3224
       214.0004        150.0004
  22118002.2724  -14231369.15849 -11070620.72247  22118001.4164   22118007.4834
       233.0004        192.0004
  22778299.2444   -9455405.63249  -7346502.65246  22778300.1814   22778303.6874
       225.0004        169.0004
  22497305.7724   -9055650.05549  -7043633.88846  22497304.9804   22497311.0094
       227.0004        176.0004
  20853170.4994  -21261847.34649 -16544515.68447  20853169.9614   20853174.9964
       242.0004        210.0004
  22061791.2064  -17170497.78549 -13360471.00447  22061791.0804   22061793.4384
       231.0004        189.0004
  21493283.4494  -14587155.52249 -11348778.88147  21493283.4594   21493288.2734
       239.0004        204.0004
 06  5 10  0  3 30.0000000  0  8G24G 1G11G16G20G13G23G25
  24152336.2204   -5232766.74949  -4064789.66145  24152336.2264   24152343.8044
       214.0004        150.0004
  22126646.8864  -14185940.59749 -11035221.87047  22126646.2624   22126652.5414
       233.0004        190.0004
  22791053.9394   -9388379.76449  -7294274.77446  22791054.4914   22791058.3834
       225.0004        169.0004
  22483615.2844   -9127593.46449  -7099693.64646  22483614.7474   22483620.5764
       227.0004        175.0004
  20842803.9464  -21316323.87049 -16586964.91147  20842803.5274   20842808.6614
       243.0004        210.0004
                  -1337819.33749  -1035263.11343
       206.0004         74.0004
  22051989.0824  -17222008.02049 -13400608.82547  22051988.5264   22051991.3884
       230.0004        190.0004
  21505761.7884  -14521581.40149 -11297682.17047  21505762.0814   21505766.6654
       240.0004        204.0004
 06  5 10  0  4  0.0000000  0  8G24G 1G11G16G20G13G23G25
  24142203.4834   -5286014.95549  -4106281.75445  24142203.4804   24142210.4654
       215.0004        152.0004
  22135305.8244  -14140437.82849 -10999765.17847  22135305.5574   22135311.4734
       233.0004        190.0004
  22803853.6944   -9321116.92149  -7241862.21646  22803853.8014   22803859.0354
       226.0004        169.0004
  22469984.3394   -9199224.20849  -7155509.74546  22469984.7434   22469989.2624
       227.0004        175.0004
  20832507.9074  -21370430.30349 -16629125.74847  20832507.3654   20832512.3064
       243.0004        210.0004
                  -1408281.43649   -939132.86643
       205.0004         74.0004
  22042207.7704  -17273408.17349 -13440660.85747  22042207.5574   22042210.2404
       231.0004        190.0004
  21518289.3554  -14455749.06249 -11246384.24647  21518289.3884   21518294.0254
       241.0004        203.0004
 06  5 10  0  4 30.0000000  0  8G24G 1G11G16G20G13G23G25
  24132153.9334   -5338826.27449  -4147433.38445  24132153.7484   24132161.0724
       214.0004        153.0004
  22143978.4254  -14094862.57349 -10964252.01347  22143978.3134   22143984.1704
       232.0004        190.0004
  22816697.6654   -9253621.48449  -7189268.42146  22816698.2584   22816703.1244
       225.0004        170.0004
  22456413.1554   -9270541.02149  -7211081.23546  22456412.3894   22456418.6374
       227.0004        175.0004
  20822282.3984  -21424166.24049 -16670997.89347  20822282.0744   20822287.0264
       244.0004        211.0004
                  -1478703.51049   -994008.67743
       208.0004         74.0004
  22032447.3914  -17324699.90349 -13480628.41947  22032447.3644   22032450.1734
       232.0004        191.0004
  21530865.2174  -14389662.43349 -11194888.17847  21530865.3524   21530870.1964
       239.0004        203.0004
 06  5 10  0  5  0.0000000  0  7G24G 1G11G16G20G23G25
  24122187.5124   -5391198.80049  -4188243.10045  24122186.2484   24122195.6114
       210.0004        151.0004
  22152664.9154  -14049214.29449 -10928681.94647  22152665.0994   22152670.8604
       234.0004        190.0004
  22829585.4974   -9185895.77049  -7136495.20346  22829585.6474   22829590.9624
       226.0004        171.0004
  22442902.3554   -9341540.47849  -7266405.42946  22442902.2124   22442907.7584
       226.0004        177.0004
  20812127.8484  -21477528.99749 -16712579.24347  20812127.1744   20812131.9404
       242.0004        211.0004
  22022707.6474  -17375883.02249 -13520511.33447  22022707.6774   22022710.0394
       232.0004        191.0004
  21543489.0844  -14323323.39849 -11143195.42847  21543489.0134   21543493.7454
       239.0004        203.0004
 06  5 10  0  5 30.0000000  0  7G24G 1G11G16G20G23G25
  24112306.0694   -5443124.43049  -4228704.61945  24112306.3484   24112313.7564
       215.0004        151.0004
  22161366.8084  -14003486.59349 -10893049.98647  22161366.6354   22161372.3074
       232.0004        189.0004
  22842517.9444   -9117936.11649  -7083539.68046  22842517.6444   22842524.0204
       225.0004        171.0004
  22429453.6804   -9412213.21049  -7321475.02146  22429453.1634   22429459.3674
       226.0004        178.0004
  20802045.9524  -21530509.60149 -16753862.81647  20802045.3344   20802049.8714
       242.0004        210.0004
  22012989.8114  -17426950.98549 -13560304.52647  22012989.2154   22012992.1604
       233.0004        191.0004
  21556161.8514  -14256727.60349 -11091302.61047  21556161.9004   21556166.7074
       239.0004        203.0004
 06  5 10  0  6  0.0000000  0  7G24G 1G11G16G20G23G25
  24102509.6594   -5494605.77749  -4268819.92745  24102509.9404   24102517.2494
       217.0004        154.0004
  22170082.8944  -13957683.22949 -10857359.07447  22170082.3814   22170088.7114
       232.0004        188.0004
  22855493.4254   -9049749.13649  -7030406.99746  22855492.4524   22855498.6794
       224.0004        170.0004
  22416067.0884   -9482559.86849  -7376290.52946  22416067.2804   22416072.5674
       228.0004        179.0004
  20792036.4134  -21583109.89749 -16794850.04747  20792035.7434   20792040.5664
       244.0004        210.0004
  22003293.0754  -17477907.49149 -13600010.87347  22003293.1774   22003295.0534
       233.0004        192.0004
  21568882.3304  -14189881.21349 -11039214.52447  21568882.0344   21568887.2324
       239.0004        202.0004
 06  5 10  0  6 30.0000000  0  7G24G 1G11G16G20G23G25
  24092797.4734   -5545644.67749  -4308590.48145  24092797.9234   24092804.9714
       216.0004        155.0004
  22178812.6504  -13911807.39849 -10821611.68647  22178812.7574   22178818.9194
       232.0004        189.0004
  22868511.0494   -8981340.48449  -6977101.60846  22868511.0894   22868516.9884
       224.0004        170.0004
  22402742.5664   -9552580.78249  -7430852.23146  22402742.4344   22402747.8474
       228.0004        178.0004
  20782099.0854  -21635330.73649 -16835541.60347  20782098.4034   20782103.1664
       242.0004        210.0004
  21993616.9024  -17528755.78649 -13639632.87247  21993616.2364   21993619.3524
       231.0004        192.0004
  21581649.3414  -14122789.72049 -10986935.43947  21581649.2354   21581654.0824
       239.0004        202.0004
 06  5 10  0  7  0.0000000  0  7G24G 1G11G16G20G23G25
  24083169.9474   -5596238.24249  -4348013.98345  24083169.4894   24083175.9884
       216.0004        153.0004
  22187556.6814  -13865857.77449 -10785806.80247  22187556.5344   22187562.1904
       232.0004        189.0004
  22881570.7374   -8912711.63549  -6923624.64546  22881571.6984   22881576.8094
       229.0004        172.0004
  22389480.8364   -9622271.65849  -7485156.75846  22389480.1554   22389485.3304
       227.0004        177.0004
  20772234.6434  -21687168.64349 -16875934.75947  20772233.8224   20772238.8324
       242.0004        210.0004
  21983961.5334  -17579494.54649 -13679169.54047  21983961.3904   21983963.7894
       234.0004        192.0004
  21594462.9664  -14055453.87449 -10934465.95647  21594462.8444   21594468.2184
       239.0004        202.0004
 06  5 10  0  7 30.0000000  0  7G24G 1G11G16G20G23G25
  24073627.4004   -5646385.08649  -4387089.42545  24073627.0654   24073633.1964
       217.0004        151.0004
  22196314.6804  -13819834.28949 -10749944.36047  22196314.5214   22196320.6954
       232.0004        189.0004
  22894671.8394   -8843865.60649  -6869978.45646  22894672.2384   22894677.2384
       227.0004        172.0004
  22376282.3794   -9691629.58949  -7539201.82746  22376281.5234   22376287.3134
       227.0004        175.0004
  20762443.4254  -21738621.23349 -16916027.67047  20762442.6904   20762447.8124
       242.0004        210.0004
  21974327.1554  -17630123.97749 -13718621.02647  21974326.5104   21974329.3344
       232.0004        191.0004
  21607322.5504  -13987876.11349 -10881807.97147  21607322.3224   21607327.7184
       238.0004        202.0004
 06  5 10  0  8  0.0000000  0  7G24G 1G11G16G20G23G25
  24064170.1504   -5696083.32749  -4425815.31645  24064169.6324   24064176.8054
       214.0004        151.0004
  22205086.7994  -13773736.59049 -10714024.09947  22205086.4794   22205092.4684
       232.0004        189.0004
  22907813.6534   -8774804.63649  -6816164.76546  22907813.3414   22907818.7384
       225.0004        170.0004
  22363147.9594   -9760651.08949  -7592984.77146  22363147.3154   22363152.6164
       227.0004        175.0004
  20752725.9014  -21789686.70149 -16955818.93747  20752725.3074   20752730.5804
       242.0004        210.0004
  21964713.4214  -17680643.80949 -13757987.10547  21964713.1854   21964716.3704
       232.0004        192.0004
  21620227.7404  -13920058.31549 -10828962.95547  21620227.7284   21620232.8244
       238.0004        201.0004
 06  5 10  0  8 30.0000000  0  7G24G 1G11G16G20G23G25
  24054798.4324   -5745331.67549  -4464190.61945  24054798.3904   24054805.3984
       216.0004        154.0004
  22213873.1004  -13727564.51049 -10678045.86747  22213872.3764   22213878.9364
       232.0004        188.0004
  22920995.8294   -8705531.38849  -6762185.65246  22920995.9354   22921001.5234
       225.0004        168.0004
  22350078.1214   -9829333.39349  -7646503.38746  22350078.3734   22350083.6314
       229.0004        178.0004
  20743082.7094  -21840361.86949 -16995306.06647  20743081.9434   20743087.3614
       243.0004        210.0004
  21955120.7684  -17731053.54049 -13797267.36847  21955120.5164   21955123.1344
       234.0004        193.0004
  21633178.2814  -13852002.50849 -10775932.46747  21633178.4024   21633183.6504
       239.0004        201.0004
 06  5 10  0  9  0.0000000  0  7G24G 1G11G16G20G23G25
  24045512.5864   -5794129.20449  -4502214.63145  24045512.1384   24045518.7074
       220.0004        155.0004
  22222673.3644  -13681318.22849 -10642009.82347  22222673.0844   22222679.1734
       232.0004        188.0004
  22934217.9844   -8636048.92749  -6708043.52146  22934218.4014   22934223.5974
       228.0004        169.0004
  22337073.4094   -9897673.59149  -7699755.44046  22337072.8964   22337078.3824
       229.0004        179.0004
  20733514.1304  -21890644.93849 -17034487.67847  20733513.5274   20733518.6354
       243.0004        211.0004
  21945549.0694  -17781353.21349 -13836461.90247  21945547.9934   21945551.1584
       233.0004        192.0004
  21646173.7844  -13783711.13849 -10722718.43947  21646174.0764   21646179.0154
       240.0004        201.0004
 06  5 10  0  9 30.0000000  0  7G24G 1G11G16G20G23G25
  24036313.0424   -5842472.62449  -4539884.80545  24036312.5874   24036319.3844
       215.0004        153.0004
  22231488.1904  -13634996.06049 -10605914.64546  22231488.3314   22231493.9354
       231.0004        187.0004
  22947479.9384   -8566358.10649  -6653739.07046  22947480.4704   22947486.0074
       228.0004        172.0004
  22324134.5024   -9965667.04449  -7752737.29946  22324133.8244   22324140.1234
       229.0004        179.0004
  20724020.8894  -21940532.42949 -17073361.04147  20724020.5694   20724024.9834
       242.0004        211.0004
  21935998.3814  -17831541.77049 -13875569.85247  21935998.3144   21936000.6284
       234.0004        192.0004
  21659213.9724  -13715184.83549 -10669321.32847  21659213.9084   21659219.0984
       238.0004        201.0004
 06  5 10  0 10  0.0000000  0  7G24G 1G11G16G20G23G25
  24027199.6084   -5890361.98049  -4577201.18245  24027199.7664   24027206.2904
       212.0004        151.0004
  22240317.2934  -13588599.16449 -10569761.22646  22240317.3994   22240322.5084
       233.0004        187.0004
  22960780.6824   -8496463.12649  -6599275.51646  22960781.2724   22960786.2294
       226.0004        172.0004
  22311262.0004  -10033312.26749  -7805447.81646  22311261.6054   22311267.0574
       229.0004        179.0004
  20714603.1474  -21990023.11449 -17111925.20947  20714602.6794   20714607.1894
       242.0004        210.0004
  21926468.8604  -17881620.32949 -13914592.07847  21926468.5724   21926471.1184
       233.0004        193.0004
  21672298.1054  -13646427.02449 -10615743.83047  21672298.1104   21672303.0594
       238.0004        200.0004
 06  5 10  0 10 30.0000000  0  8G24G 1G11G16G20G13G23G25
  24018172.8594   -5937796.68549  -4614163.25345  24018172.2654   24018181.5194
       214.0004        152.0004
  22249160.5434  -13542127.99149 -10533549.92547  22249160.3474   22249166.3334
       235.0004        188.0004
  22974119.4154   -8426367.22749  -6544655.38246  22974118.5594   22974124.6464
       223.0004        169.0004
  22298456.3994  -10100606.59849  -7857884.90846  22298456.5404   22298461.3064
       230.0004        179.0004
  20705261.2594  -22039115.05949 -17150178.66547  20705260.7864   20705265.2564
       242.0004        210.0004
                  -1397444.59049  -1074578.29843
       205.0004         74.0004
  21916960.2014  -17931588.80049 -13953528.51347  21916959.5754   21916962.4054
       234.0004        194.0004
  21685425.8414  -13577440.53849 -10561988.14047  21685425.9024   21685430.8394
       238.0004        200.0004
 06  5 10  0 11  0.0000000  0  8G24G 1G11G16G20G13G23G25
  24009233.3844   -5984773.76849  -4650768.76345  24009233.3544   24009241.8414
       214.0004        153.0004
  22258018.1954  -13495580.77549 -10497279.40247  22258018.1954   22258024.3534
       234.0004        189.0004
  22987495.9814   -8356071.46649  -6489879.52346  22987496.0784   22987501.9874
       223.0004        167.0004
  22285718.3024  -10167545.69949  -7910045.19146  22285717.7294   22285723.7164
       228.0004        179.0004
  20695995.8154  -22087805.10649 -17188118.95847  20695994.9814   20696000.3024
       241.0004        210.0004
                  -1467342.60349  -1129044.31744                  24412502.4684
       206.0004        111.0004
  21907472.7034  -17981446.02349 -13992378.28347  21907472.6424   21907474.7544
       234.0004        194.0004
  21698596.9724  -13508225.86349 -10508054.64447  21698597.1044   21698601.8174
       238.0004        199.0004
 06  5 10  0 11 30.0000000  0  8G24G 1G11G16G20G13G23G25
  24000380.7404   -6031294.84849  -4687018.95645  24000380.8724   24000388.4864
       214.0004        153.0004
  22266889.7264  -13448960.52349 -10460951.94747  22266889.9834   22266895.6524
       233.0004        189.0004
  23000909.7514   -8285581.62349  -6434952.43546  23000910.1414   23000916.0334
       225.0004        167.0004
  22273047.5844  -10234129.73549  -7961928.80046  22273046.8514   22273052.7874
       228.0004        179.0004
  20686806.7034  -22136093.70749 -17225746.43347  20686806.2524   20686811.4224
       240.0004        211.0004
  24399201.5954   -1537204.08849  -1183481.77745  24399202.8734   24399209.2284
       207.0004        136.0004
  21898005.8824  -18031194.75849 -14031143.50347  21898005.5564   21898008.3014
       233.0004        193.0004
  21711810.5134  -13438788.27449 -10453947.45347  21711810.6064   21711815.4714
       238.0004        199.0004
 06  5 10  0 12  0.0000000  0  8G24G 1G11G16G20G13G23G25
  23991615.0794   -6077358.58249  -4722912.77245  23991615.6904   23991622.4414
       216.0004        154.0004
  22275775.1844  -13402267.19349 -10424567.55447  22275775.4124   22275781.2344
       233.0004        189.0004
  23014360.0974   -8214900.61949  -6379876.40046  23014359.8504   23014366.5914
       226.0004        168.0004
  22260445.1604  -10300355.55349  -8013533.27546  22260445.0754   22260450.7684
       230.0004        181.0004
  20677694.4164  -22183978.92949 -17263059.58147  20677694.0304   20677699.2024
       241.0004        211.0004
  24385914.6554   -1607029.41249  -1237891.06445  24385914.3034   24385920.9384
       209.0004        140.0004
  21888559.6134  -18080835.20449 -14069824.35047  21888559.1864   21888561.2834
       234.0004        194.0004
  21725066.0744  -13369129.90949 -10399668.21847  21725066.2004   21725071.3704
       237.0004        200.0004
 06  5 10  0 12 30.0000000  0  8G24G 1G11G16G20G13G23G25
  23982936.8264   -6122964.11749  -4758449.52045  23982937.0884   23982943.8464
       218.0004        155.0004
  22284674.6094  -13355500.83149 -10388126.25447  22284674.6314   22284680.5114
       234.0004        189.0004
  23027846.3264   -8144031.13849  -6324653.49246  23027846.5544   23027852.5414
       226.0004        169.0004
  22247911.5484  -10366220.60749  -8064856.64246  22247911.5014   22247916.7844
       231.0004        182.0004
  20668659.3344  -22231458.63049 -17300056.74147  20668658.7954   20668664.2044
       241.0004        211.0004
  24372634.3784   -1676818.89249  -1292272.38845  24372634.5764   24372640.5034
       210.0004        142.0004
  21879133.8014  -18130367.52049 -14108420.94847  21879133.1714   21879135.5074
       233.0004        194.0004
  21738363.1114  -13299253.31249 -10345218.94347  21738363.0744   21738368.0704
       236.0004        199.0004
 06  5 10  0 13  0.0000000  0  8G24G 1G11G16G20G13G23G25
  23974346.5564   -6168107.81749  -4793626.38245  23974346.3254   23974353.0044
       217.0004        155.0004
  22293588.3284  -13308658.95649 -10351626.10947  22293588.0004   22293593.2414
       234.0004        189.0004
  23041368.2804   -8072973.95949  -6269284.31246  23041368.0934   23041375.5384
       224.0004        169.0004
  22235447.4234  -10431719.80349  -8115894.91446  22235447.2404   22235452.3664
       230.0004        183.0004
  20659702.2804  -22278528.23949 -17336734.35047  20659701.8964   20659706.7194
       242.0004        211.0004
  24359361.0484   -1746570.51849  -1346624.25445  24359360.9954   24359366.3204
       209.0004        141.0004
  21869728.9774  -18179789.46249 -14146931.51847  21869728.5324   21869731.1884
       234.0004        194.0004
  21751701.6754  -13229158.36249 -10290599.51447  21751701.6804   21751706.5914
       237.0004        198.0004
 06  5 10  0 13 30.0000000  0  8G24G 1G11G16G20G13G23G25
  23965844.3764   -6212787.88949  -4828442.02545  23965843.8824   23965851.5404
       216.0004        153.0004
  22302516.5804  -13261740.77249 -10315066.49747  22302516.5094   22302522.0304
       233.0004        188.0004
  23054925.4124   -8001730.71749  -6213770.15346  23054924.2584   23054931.8364
       221.0004        167.0004
  22223053.6524  -10496849.58449  -8166645.32646  22223053.7904   22223058.6714
       230.0004        183.0004
  20650823.8004  -22325185.20749 -17373090.41947  20650823.9324   20650828.0884
       242.0004        211.0004
  24346094.8434   -1816283.71849  -1400946.14345  24346094.7594   24346101.0964
       208.0004        141.0004
  21860345.5384  -18229100.01149 -14185355.29947  21860345.4784   21860347.8684
       234.0004        195.0004
  21765081.6234  -13158846.42149 -10235810.99647  21765081.5984   21765086.9944
       236.0004        199.0004
 06  5 10  0 14  0.0000000  0  8G24G 1G11G16G20G13G23G25
  23957430.8494   -6257001.86249  -4862894.48345  23957430.1764   23957437.3244
       216.0004        153.0004
  22311459.5554  -13214745.09349 -10278446.51147  22311459.2884   22311465.4814
       234.0004        188.0004
  23068517.4134   -7930303.75049  -6158112.83446  23068517.3284   23068523.5914
       225.0004        166.0004
  22210730.9374  -10561605.89949  -8217104.74546  22210730.8814   22210735.5044
       231.0004        184.0004
  20642024.6244  -22371426.05349 -17409122.24347  20642024.6644   20642028.8114
       243.0004        212.0004
  24332836.1844   -1885957.57749  -1455237.38845  24332835.9884   24332842.3524
       204.0004        138.0004
  21850983.6544  -18278297.56549 -14223691.03747  21850983.1994   21850985.5674
       234.0004        195.0004
  21778502.6044  -13088318.58849 -10180854.26147  21778502.6164   21778507.7164
       238.0004        198.0004
 06  5 10  0 14 30.0000000  0  8G24G 1G11G16G20G13G23G25
  23949105.6714   -6300750.37249  -4896984.18845  23949105.2994   23949113.5604
       215.0004        154.0004
  22320417.1474  -13167673.29849 -10241767.19747  22320417.2674   22320422.5904
       235.0004        189.0004
  23082143.8174   -7858696.80149  -6102315.29546  23082143.6144   23082148.7434
       224.0004        165.0004
  22198479.4284  -10625987.56249  -8267272.22846  22198479.3834   22198484.2664
       231.0004        183.0004
  20633304.5984  -22417250.71349 -17444829.76547  20633304.2714   20633308.4494
       242.0004        212.0004
  24319584.7454   -1955594.00249  -1509499.47545  24319583.4534   24319590.8314
       203.0004        136.0004
  21841642.7764  -18327384.00649 -14261940.18647  21841642.2664   21841645.0554
       233.0004        195.0004
  21791963.9364  -13017578.73649 -10125732.30347  21791963.8974   21791969.0524
       236.0004        198.0004
 06  5 10  0 15  0.0000000  0  8G24G 1G11G16G20G13G23G25
  23940869.1634   -6344032.36949  -4930710.39545  23940869.2214   23940875.5924
       214.0004        155.0004
  22329389.1864  -13120525.31549 -10205028.53147  22329388.5264   22329394.7124
       232.0004        188.0004
  23095803.8724   -7786912.83349  -6046379.81846  23095804.2874   23095809.4354
       222.0004        164.0004
  22186299.8264  -10689991.61449  -8317145.46946  22186299.6844   22186305.2544
       230.0004        183.0004
  20624664.2334  -22462656.52049 -17480210.91247  20624664.0124   20624667.9644
       242.0004        212.0004
  24306340.4074   -2025193.37349  -1563732.64545  24306339.6114   24306346.1474
       202.0004        134.0004
  21832323.0504  -18376359.31649 -14300102.74447  21832322.5884   21832325.4044
       233.0004        196.0004
  21805465.1334  -12946628.92949 -10070446.75547  21805465.0514   21805470.7854
       236.0004        198.0004
 06  5 10  0 15 30.0000000  0  8G24G 1G11G16G20G13G23G25
  23932721.8094   -6386846.37849  -4964071.96145  23932721.5824   23932728.5494
       215.0004        154.0004
  22338375.6304  -13073300.78349 -10168230.21946  22338374.9554   22338380.6944
       232.0004        187.0004
  23109497.0894   -7714954.61649  -5990308.52946  23109497.4584   23109504.0634
       220.0004        165.0004
  22174192.5684  -10753615.33849  -8366722.34146  22174191.7264   22174197.6054
       229.0004        184.0004
  20616103.9504  -22507641.20849 -17515263.90947  20616103.2894   20616107.4994
       241.0004        211.0004
  24293103.1414   -2094755.56449  -1617936.83645  24293103.9844   24293110.1524
       208.0004        135.0004
  21823024.5364  -18425223.27249 -14338178.53247  21823024.3154   21823026.6654
       234.0004        196.0004
  21819005.9754  -12875471.32349 -10014999.28147  21819005.7774   21819011.6914
       235.0004        198.0004
 06  5 10  0 16  0.0000000  0  8G24G 1G11G16G20G13G23G25
  23924663.5734   -6429192.59449  -4997068.99245  23924663.8504   23924670.9924
       218.0004        156.0004
  22347376.4944  -13026000.83549 -10131373.11946  22347376.1934   22347382.0164
       232.0004        186.0004
  23123222.6484   -7642825.77749  -5934104.29746  23123222.8864   23123228.7414
       222.0004        166.0004
  22162158.0044  -10816856.90749  -8416001.43346  22162157.7574   22162163.4424
       230.0004        185.0004
  20607623.8854  -22552203.88449 -17549988.06747  20607623.1794   20607627.6114
       240.0004        211.0004
  24279872.7694   -2164282.18349  -1672113.34445  24279872.6444   24279878.8224
       206.0004        134.0004
  21813747.0234  -18473976.99549 -14376168.43247  21813746.3984   21813748.8274
       234.0004        196.0004
  21832585.6764  -12804109.19149  -9959392.44747  21832585.8654   21832591.6594
       236.0004        198.0004
 06  5 10  0 16 30.0000000  0  8G24G 1G11G16G20G13G23G25
  23916694.9814   -6471069.58249  -5029700.39345  23916694.9474   23916703.0064
       220.0004        159.0004
  22356391.8454  -12978625.26449 -10094457.11246  22356391.4024   22356397.6424
       232.0004        186.0004
  23136980.3714   -7570528.59449  -5877768.89946  23136980.9614   23136985.1704
       223.0004        166.0004
  22150196.8064  -10879713.42449  -8464980.47046  22150196.5184   22150202.0204
       231.0004        187.0004
  20599224.4304  -22596342.70249 -17584381.94147  20599223.3844   20599228.5534
       240.0004        211.0004
  24266649.1474   -2233772.82949  -1726261.82845  24266647.7494   24266654.9234
       205.0004        132.0004
  21804490.4594  -18522620.01749 -14414072.05747  21804489.6164   21804492.7044
       234.0004        196.0004
  21846204.0734  -12732544.58949  -9903627.82947  21846204.2084   21846209.2994
       237.0004        198.0004
 06  5 10  0 17  0.0000000  0  8G24G 1G11G16G20G13G23G25
  23908815.6404   -6512476.44749  -5061965.48245  23908814.5724   23908821.1434
       217.0004        157.0004
  22365421.5114  -12931173.71849 -10057481.92746  22365420.9114   22365427.5564
       231.0004        185.0004
  23150769.5344   -7498066.38449  -5821304.91046  23150768.9864   23150775.4604
       220.0004        163.0004
  22138309.4004  -10942182.05649  -8513657.27647  22138309.2974   22138314.3614
       232.0004        188.0004
  20590906.1334  -22640055.18649 -17618443.61247  20590905.3434   20590910.4494
       241.0004        211.0004
  24253432.0954   -2303227.85349  -1780382.58244  24253432.7184   24253438.5124
       205.0004        131.0004
  21795254.9854  -18571152.38049 -14451889.46547  21795254.8694   21795257.3464
       235.0004        197.0004
  21859860.4954  -12660779.55949  -9847707.04347  21859860.5934   21859865.9804
       238.0004        198.0004
 06  5 10  0 17 30.0000000  0  8G24G 1G11G16G20G13G23G25
  23901025.6934   -6553411.81849  -5093863.15645  23901025.2454   23901032.1604
       217.0004        154.0004
  22374465.8024  -12883645.75949 -10020447.16946  22374465.7404   22374471.0424
       231.0004        184.0004
  23164589.6394   -7425441.60249  -5764714.22545  23164590.0184   23164595.0224
       223.0004        161.0004
  22126496.3754  -11004259.58349  -8562029.31546  22126495.9764   22126501.4984
       231.0004        187.0004
  20582669.3804  -22683339.11349 -17652171.33747  20582668.8754   20582673.9524
       240.0004        211.0004
  24240221.8344   -2372647.33449  -1834475.55745  24240221.5244   24240228.8554
       206.0004        132.0004
  21786040.7124  -18619573.62049 -14489620.27847  21786040.4784   21786042.7134
       235.0004        197.0004
  21873554.7804  -12588816.05549  -9791631.60447  21873555.1134   21873560.1554
       236.0004        198.0004
 06  5 10  0 18  0.0000000  0  8G24G 1G11G16G20G13G23G25
  23893325.9374   -6593874.29849  -5125392.33945  23893325.8254   23893332.9734
       217.0004        157.0004
  22383524.7254  -12836041.02049  -9983352.57546  22383524.0294   22383530.3744
       230.0004        183.0004
  23178440.3604   -7352656.90549  -5707998.96745  23178441.4194   23178445.1654
       223.0004        161.0004
  22114758.3644  -11065943.10549  -8610094.35746  22114758.2614   22114763.1634
       231.0004        187.0004
  20574514.7624  -22726192.17749 -17685563.33147  20574514.3704   20574519.4004
       241.0004        212.0004
  24227018.3884   -2442031.30649  -1888540.89645  24227017.1654   24227024.6344
       206.0004        134.0004
  21776847.6714  -18667883.48149 -14527264.29547  21776847.4624   21776850.0464
       235.0004        197.0004
  21887286.4584  -12516655.92349  -9735402.94147  21887286.7174   21887291.4204
       237.0004        197.0004
 06  5 10  0 18 30.0000000  0  8G24G 1G11G16G20G13G23G25
  23885716.2744   -6633863.16049  -5156552.46245  23885716.0434   23885722.8364
       216.0004        157.0004
  22392598.1034  -12788359.51349  -9946198.16446  22392597.7274   22392604.0804
       231.0004        183.0004
  23192320.9104   -7279715.00649  -5651161.21145  23192321.1804   23192326.5304
       221.0004        161.0004
  22103095.7604  -11127230.24449  -8657850.52447  22103095.4054   22103101.5954
       232.0004        188.0004
  20566442.4444  -22768612.36449 -17718618.01747  20566441.9194   20566447.1664
       241.0004        212.0004
  24213821.5864   -2511379.92249  -1942578.69945  24213820.5714   24213827.1564
       209.0004        137.0004
  21767675.8244  -18716081.94449 -14564821.51447  21767675.9124   21767678.0524
       236.0004        198.0004
  21901055.1104  -12444301.56849  -9679022.93447  21901055.1954   21901060.3434
       237.0004        197.0004
 06  5 10  0 19  0.0000000  0  8G24G 1G11G16G20G13G23G25
  23878196.8464   -6673377.19349  -5187342.62245  23878196.4694   23878203.9244
       217.0004        157.0004
  22401686.2754  -12740600.98949  -9908983.74846  22401685.7564   22401691.9364
       230.0004        182.0004
  23206230.7864   -7206618.72249  -5594203.13045  23206231.1604   23206236.7374
       221.0004        162.0004
  22091509.0864  -11188117.99249  -8705295.48247  22091508.6074   22091514.4554
       230.0004        188.0004
  20558452.8114  -22810597.79849 -17751333.93247  20558452.3604   20558457.5264
       240.0004        212.0004
  24200631.7454   -2580693.37749  -1996589.11045  24200632.1614   24200637.6684
       210.0004        139.0004
  21758525.2374  -18764168.54549 -14602291.57247  21758524.6574   21758527.4154
       234.0004        198.0004
  21914860.2144  -12371754.93649  -9622493.10847  21914860.0384   21914865.3584
       235.0004        196.0004
 06  5 10  0 19 30.0000000  0  8G24G 1G11G16G20G13G23G25
  23870767.9094   -6712415.78049  -5217762.29245  23870767.1024   23870775.8944
       214.0004        157.0004
  22410789.0044  -12692765.50849  -9871709.36646  22410788.1744   22410794.9264
       228.0004        180.0004
  23220169.5224   -7133370.81549  -5537126.89846  23220169.7714   23220176.1714
       222.0004        164.0004
  22079998.9654  -11248603.86949  -8752427.29146  22079998.3754   22080004.3904
       231.0004        186.0004
  20550546.4404  -22852146.37149 -17783709.43247  20550546.1134   20550551.0174
       241.0004        212.0004
  24187448.3844   -2649972.13449  -2050572.46445  24187447.6784   24187454.4794
       208.0004        138.0004
  21749395.7554  -18812143.89849 -14639674.92847  21749395.3774   21749398.1724
       234.0004        197.0004
  21928701.4744  -12299018.54149  -9565815.41147  21928702.1754   21928706.7334
       237.0004        196.0004
 06  5 10  0 20  0.0000000  0  8G24G 1G11G16G20G13G23G25
  23863429.6844   -6750977.22849  -5247810.15045  23863429.7114   23863437.2054
       218.0004        158.0004
  22419906.5784  -12644852.15649  -9834374.31846  22419906.1224   22419912.2174
       230.0004        180.0004
  23234136.5784   -7059973.37149  -5479934.14945  23234135.8124   23234143.0484
       220.0004        162.0004
  22068566.0044  -11308684.49349  -8799243.30946  22068565.8204   22068570.9934
       232.0004        186.0004
  20542723.6544  -22893255.66349 -17815742.64248  20542723.3294   20542728.1324
       243.0004        213.0004
  24174271.5124   -2719215.95049  -2104528.59545  24174270.3314   24174277.4924
       204.0004        137.0004
  21740287.7384  -18860006.74849 -14676970.63047  21740287.2624   21740289.5854
       235.0004        197.0004
  21942578.7604  -12226093.78749  -9508990.92847  21942578.7294   21942583.8634
       238.0004        195.0004
 06  5 10  0 20 30.0000000  0  8G24G 1G11G16G20G13G23G25
  23856182.6194   -6789061.20349  -5277486.00445  23856182.8884   23856190.4944
       216.0004        158.0004
  22429038.9434  -12596861.61749  -9796979.11146  22429038.3704   22429045.2284
       228.0004        181.0004
  23248131.1184   -6986430.57149  -5422628.15845  23248130.0944   23248136.1334
       219.0004        158.0004
  22057210.5894  -11368358.09049  -8845742.18046  22057210.1914   22057215.2624
       231.0004        186.0004
  20534984.6864  -22933924.25449 -17847432.45648  20534984.1564   20534988.9844
       241.0004        213.0004
  24161101.0184   -2788425.48849  -2158458.00245  24161102.3674   24161108.7074
       206.0004        137.0004
  21731200.9094  -18907757.94349 -14714179.32747  21731199.8934   21731203.2704
       233.0004        197.0004
  21956491.1764  -12152983.61649  -9452021.98547  21956491.1974   21956496.1284
       236.0004        195.0004
 06  5 10  0 21  0.0000000  0  8G24G 1G11G16G20G13G23G25
  23849026.4474   -6826667.61849  -5306789.70045  23849025.7934   23849033.7154
       217.0004        157.0004
  22438185.8204  -12548794.03849  -9759523.88246  22438185.7874   22438191.2564
       228.0004        180.0004
  23262153.0364   -6912745.12949  -5365211.01945  23262153.3964   23262158.3444
       220.0004        158.0004
  22045932.9724  -11427622.04649  -8891921.84846  22045933.2584   22045937.7254
       232.0004        186.0004
  20527329.8674  -22974150.58749 -17878777.64748  20527329.4954   20527334.3864
       242.0004        213.0004
  24147937.3954   -2857601.44749  -2212361.27745  24147937.7014   24147944.4094
       208.0004        139.0004
  21722135.2044  -18955397.73249 -14751301.21247  21722135.0094   21722137.5354
       235.0004        197.0004
  21970438.4924  -12079690.43349  -9394910.42247  21970438.3824   21970443.4754
       236.0004        195.0004
 06  5 10  0 21 30.0000000  0  8G24G 1G11G16G20G13G23G25
  23841961.3414   -6863794.64649  -5335719.79445  23841961.4244   23841968.7794
       217.0004        157.0004
  22447347.5094  -12500648.46349  -9722007.87946  22447347.5954   22447353.1114
       230.0004        181.0004
  23276201.8014   -6838918.80149  -5307684.08945  23276202.3304   23276207.1914
       220.0004        160.0004
  22034733.9854  -11486473.29449  -8937779.91947  22034733.6714   22034738.9924
       232.0004        188.0004
  20519759.7014  -23013931.87449 -17909776.05248  20519759.0464   20519763.9994
       242.0004        213.0004
  24134780.0234   -2926743.27649  -2266237.93045  24134779.3904   24134786.6214
       208.0004        140.0004
  21713091.0224  -19002925.29349 -14788335.65147  21713091.1104   21713093.0374
       236.0004        197.0004
  21984420.1924  -12006215.86249  -9337657.54347  21984420.3724   21984425.7874
       236.0004        195.0004
 06  5 10  0 22  0.0000000  0  8G24G 1G11G16G20G13G23G25
  23834987.6864   -6900441.38649  -5364275.68245  23834987.6214   23834994.8924
       218.0004        158.0004
  22456524.3794  -12452424.69849  -9684430.93846  22456524.6024   22456529.9404
       232.0004        182.0004
  23290276.8914   -6764954.55749  -5250049.70145  23290276.9874   23290282.9564
       221.0004        161.0004
  22023613.9654  -11544909.12049  -8983314.28447  22023613.8594   22023618.8644
       233.0004        188.0004
  20512274.5644  -23053266.22149 -17940426.18247  20512273.9484   20512278.6104
       242.0004        212.0004
  24121629.0324   -2995851.34449  -2320088.27745  24121629.5334   24121634.4094
       207.0004        139.0004
  21704068.3294  -19050340.37949 -14825282.44847  21704067.7474   21704069.8514
       235.0004        197.0004
  21998436.0754  -11932561.95349  -9280264.89847  21998435.6404   21998441.1834
       237.0004        195.0004
 06  5 10  0 22 30.0000000  0  8G24G 1G11G16G20G13G23G25
  23828105.5574   -6936607.74749  -5392457.27045  23828106.0954   23828112.3574
       219.0004        159.0004
  22465715.9414  -12404123.43949  -9646793.61146  22465715.3994   22465721.7384
       231.0004        183.0004
  23304377.4484   -6690856.19849  -5192310.83045  23304378.2054   23304382.9324
       219.0004        159.0004
  22012573.4474  -11602927.60449  -9028523.45847  22012573.1934   22012578.1364
       232.0004        188.0004
  20504874.7404  -23092152.46449 -17970727.14648  20504874.1414   20504878.8094
       242.0004        213.0004
  24108484.3304   -3064926.56349  -2373913.02145  24108485.7634   24108490.1524
       207.0004        138.0004
  21695066.7954  -19097643.87849 -14862142.29047  21695066.6884   21695068.7324
       236.0004        198.0004
  22012485.4534  -11858731.71849  -9222734.86547  22012485.4434   22012490.3154
       236.0004        194.0004
 06  5 10  0 23  0.0000000  0  8G24G 1G11G16G20G13G23G25
  23821315.2024   -6972292.66349  -5420263.69345  23821314.8674   23821322.6244
       216.0004        160.0004
  22474922.1734  -12355744.25649  -9609095.57146  22474922.0254   22474927.8924
       231.0004        183.0004
  23318502.8774   -6616626.08149  -5134469.25345  23318502.3574   23318508.0274
       215.0004        156.0004
  22001612.7204  -11660526.12949  -9073405.38446  22001612.0914   22001617.4984
       232.0004        187.0004
  20497560.6184  -23130588.45249 -18000677.25448  20497560.0444   20497564.7924
       241.0004        213.0004
  24095346.0224   -3133968.92249  -2427712.16345  24095345.9794   24095353.9704
       208.0004        139.0004
  21686086.7334  -19144835.02149 -14898914.57547  21686086.3154   21686088.6034
       236.0004        198.0004
  22026568.1234  -11784726.83549  -9165068.72747  22026567.6844   22026572.7264
       234.0004        194.0004
 06  5 10  0 23 30.0000000  0  8G24G 1G11G16G20G13G23G25
  23814616.3964   -7007493.88649  -5447693.20145  23814614.6854   23814622.7424
       214.0004        156.0004
  22484143.6774  -12307285.32649  -9571335.39846  22484143.6714   22484148.8984
       230.0004        182.0004
  23332653.0824   -6542265.56149  -5076526.04845  23332653.1304   23332659.6494
       220.0004        158.0004
  21990732.7874  -11717700.05949  -9117956.47246  21990732.3834   21990737.3674
       231.0004        187.0004
  20490332.8674  -23168570.54949 -18030273.69148  20490332.5584   20490337.1614
       242.0004        213.0004
  24082214.4134   -3202977.12849  -2481484.68845  24082215.0394   24082221.1744
       206.0004        138.0004
  21677128.2124  -19191912.37749 -14935598.21047  21677127.8874   21677130.2274
       235.0004        198.0004
  22040683.7994  -11710547.95349  -9107267.02647  22040683.8324   22040688.6324
       235.0004        193.0004
 06  5 10  0 24  0.0000000  0  8G24G 1G11G16G20G13G23G25
  23808009.6434   -7042212.12949  -5474746.35245  23808009.2984   23808016.5034
       216.0004        156.0004
  22493380.0094  -12258747.93449  -9533514.05346  22493379.4674   22493385.4264
       231.0004        182.0004
  23346827.8614   -6467778.92749  -5018484.62245  23346829.2364   23346834.1914
       221.0004        161.0004
  21979933.6934  -11774448.75649  -9162176.18246  21979933.2294   21979938.4634
       232.0004        187.0004
  20483191.5654  -23206098.59649 -18059516.31048  20483190.8124   20483195.6084
       242.0004        213.0004
  24069088.7384   -3271952.69049  -2535231.78245  24069088.8074   24069095.9504
       207.0004        139.0004
  21668191.1104  -19238877.16949 -14972194.12347  21668190.8044   21668193.1114
       236.0004        198.0004
  22054832.0484  -11636198.66149  -9049332.52447  22054832.1774   22054836.8304
       235.0004        193.0004
 06  5 10  0 24 30.0000000  0  8G24G 1G11G16G20G13G23G25
  23801495.1344   -7076445.90749  -5501422.01945  23801495.5874   23801502.0544
       216.0004        157.0004
  22502631.5324  -12210131.15249  -9495630.88346  22502631.6624   22502637.7504
       231.0004        183.0004
  23361025.9354   -6393168.39249  -4960346.65245  23361024.9494   23361032.6674
       217.0004        159.0004
  21969216.2924  -11830769.04549  -9206062.08846  21969215.5894   21969220.9374
       233.0004        187.0004
  20476137.0584  -23243169.87249 -18088403.01448  20476136.3964   20476141.1764
       241.0004        213.0004
  24055969.1334   -3340895.17649  -2588953.13845  24055968.1204   24055975.3734
       208.0004        139.0004
  21659275.4954  -19285728.45749 -15008701.59947  21659274.7964   21659277.0724
       235.0004        198.0004
  22069012.3724  -11561680.54549  -8991266.48547  22069012.4814   22069017.3554
       235.0004        194.0004
 06  5 10  0 25  0.0000000  0  8G24G 1G11G16G20G13G23G25
  23795072.9204   -7110195.18549  -5527720.14545  23795072.8644   23795079.5184
       221.0004        158.0004
  22511898.1044  -12161435.54749  -9457686.27846  22511898.0974   22511903.9294
       231.0004        183.0004
  23375246.6154   -6318437.15549  -4902114.59545  23375245.5444   23375253.4314
       217.0004        157.0004
  21958580.8614  -11886658.62849  -9249612.38146  21958580.6314   21958585.7324
       233.0004        187.0004
  20469169.6964  -23279783.12449 -18116932.82148  20469168.9494   20469173.8494
       242.0004        213.0004
  24042855.9474   -3409805.37649  -2642649.30745  24042856.0974   24042862.9254
       210.0004        140.0004
  21650381.3484  -19332466.96449 -15045121.20247  21650380.8234   21650383.0704
       237.0004        198.0004
  22083224.3534  -11486996.22849  -8933070.93247  22083224.2024   22083229.4464
       235.0004        194.0004
 06  5 10  0 25 30.0000000  0  8G24G 1G11G16G20G13G23G25
  23788743.2294   -7143459.04949  -5553640.02945  23788743.5264   23788749.0304
       218.0004        158.0004
  22521179.7034  -12112660.64849  -9419679.87646  22521179.5524   22521184.9184
       230.0004        182.0004
  23389489.8894   -6243588.08349  -4843790.72845  23389490.5434   23389496.3534
       219.0004        160.0004
  21948027.8844  -11942114.84049  -9292824.98646  21948027.6674   21948032.8854
       232.0004        186.0004
  20462289.9574  -23315936.35549 -18145104.16448  20462289.6424   20462294.2914
       241.0004        213.0004
  24029748.9914   -3478683.41049  -2696320.41145  24029749.8304   24029755.4304
       211.0004        141.0004
  21641508.7464  -19379092.34949 -15081452.64647  21641508.0164   21641510.4134
       235.0004        197.0004
  22097467.6024  -11412147.66349  -8874747.38747  22097467.4924   22097472.9004
       235.0004        194.0004
 06  5 10  0 26  0.0000000  0  8G24G 1G11G16G20G13G23G25
  23782506.0064   -7176235.91249  -5579180.41645  23782505.4144   23782512.3294
       216.0004        157.0004
  22530476.5474  -12063805.45849  -9381610.92446  22530476.3264   22530482.0404
       230.0004        182.0004
  23403755.4714   -6168622.88749  -4785376.39945  23403756.1374   23403759.9704
       220.0004        159.0004
  21937557.9434  -11997134.52149  -9335697.43346  21937557.8954   21937563.3144
       231.0004        187.0004
  20455498.3464  -23351626.55449 -18172914.70648  20455497.8734   20455502.7424
       241.0004        213.0004
  24016648.1604   -3547528.66049  -2749965.98245  24016648.9004   24016654.0774
       210.0004        142.0004
  21632657.8924  -19425603.33549 -15117694.95947  21632657.6634   21632659.8864
       234.0004        197.0004
  22111741.8864  -11337136.08349  -8816296.82247  22111742.0204   22111747.0094
       233.0004        193.0004
 06  5 10  0 26 30.0000000  0  8G24G 1G11G16G20G13G23G25
  23776361.2784   -7208526.31049  -5604341.78445  23776360.9584   23776367.5494
       215.0004        157.0004
  22539788.5814  -12014870.85249  -9343480.08846  22539788.5094   22539794.4144
       230.0004        182.0004
  23418042.4184   -6093545.42149  -4726874.58345  23418042.5074   23418047.1034
       220.0004        159.0004
  21927171.3374  -12051716.23349  -9378228.59146  21927171.1054   21927176.4494
       231.0004        187.0004
  20448794.9984  -23386853.24949 -18200364.07248  20448794.8744   20448799.5044
       242.0004        214.0004
  24003553.2984   -3616342.44949  -2803587.06145  24003553.8154   24003558.7764
       209.0004        139.0004
  21623828.7214  -19472000.90649 -15153848.89247  21623828.5354   21623830.8754
       234.0004        197.0004
  22126046.4574  -11261964.62049  -8757721.67547  22126046.3474   22126051.7984
       233.0004        192.0004
 06  5 10  0 27  0.0000000  0  8G24G 1G11G16G20G13G23G25
  23770309.3434   -7240328.49849  -5629122.69945  23770309.0774   23770316.3944
       215.0004        157.0004
  22549115.8574  -11965855.24249  -9305286.12646  22549115.0824   22549121.9994
       229.0004        183.0004
  23432350.3704   -6018357.44649  -4668286.65945  23432350.3714   23432356.7824
       218.0004        161.0004
  21916868.6864  -12105856.23049  -9420415.55947  21916868.3184   21916873.0314
       233.0004        188.0004
  20442180.4664  -23421613.20449 -18227449.74848  20442179.9834   20442184.6274
       241.0004        214.0004
  23990464.5594   -3685123.67649  -2857182.71845  23990463.8574   23990469.5664
       210.0004        139.0004
  21615021.4584  -19518283.47449 -15189913.20747  21615021.0224   21615023.7624
       234.0004        197.0004
  22140381.4254  -11186634.25249  -8699022.70347  22140381.3734   22140386.5144
       234.0004        192.0004
 06  5 10  0 27 30.0000000  0  8G24G 1G11G16G20G13G23G25
  23764350.6954   -7271641.21449  -5653522.22645  23764350.7924   23764358.1494
       217.0004        158.0004
  22558458.6194  -11916758.19149  -9267028.70446  22558458.2944   22558464.8964
       228.0004        183.0004
  23446678.7054   -5943061.12049  -4609614.24845  23446678.1724   23446685.6374
       216.0004        159.0004
  21906650.8614  -12159551.57049  -9462256.05847  21906651.2714   21906655.2974
       233.0004        188.0004
  20435655.0304  -23455904.40749 -18254170.16448  20435654.5514   20435659.4324
       241.0004        214.0004
  23977381.8314   -3753871.93449  -2910752.72645  23977381.9044   23977388.4564
       211.0004        139.0004
  21606236.0684  -19564450.81149 -15225887.74147  21606236.1444   21606238.2644
       235.0004        197.0004
  22154746.2954  -11111146.62849  -8640201.18947  22154746.7684   22154751.6314
       233.0004        192.0004
 06  5 10  0 28  0.0000000  0  8G24G 1G11G16G20G13G23G25
  23758485.1184   -7302464.85949  -5677540.65145  23758484.3644   23758492.3594
       216.0004        157.0004
  22567816.7324  -11867580.57949  -9228708.51846  22567816.5264   22567822.8794
       227.0004        182.0004
  23461026.8924   -5867660.58749  -4550860.68845  23461027.8284   23461033.7464
       221.0004        158.0004
  21896517.8894  -12212801.11249  -9503749.17946  21896518.2264   21896522.2564
       232.0004        187.0004
  20429218.8874  -23489726.20249 -18280524.80548  20429218.3064   20429223.1754
       241.0004        213.0004
  23964305.4014   -3822588.86649  -2964298.33845  23964304.6574   23964310.6664
       209.0004        138.0004
  21597472.4864  -19610503.88549 -15261773.24947  21597472.1314   21597474.2644
       234.0004        198.0004
  22169140.3704  -11035505.03449  -8581259.71347  22169140.5234   22169145.5464
       233.0004        192.0004
 06  5 10  0 28 30.0000000  0  8G24G 1G11G16G20G13G23G25
  23752712.5744   -7332799.50049  -5701178.04145  23752712.8794   23752719.8254
       216.0004        159.0004
  22577190.1984  -11818322.59449  -9190325.69846  22577189.6574   22577195.6494
       227.0004        181.0004
  23475394.6404   -5792159.24649  -4492028.60145  23475394.2134   23475400.8084
       220.0004        158.0004
  21886470.0294  -12265602.90349  -9544893.39846  21886469.1234   21886474.7424
       231.0004        187.0004
  20422872.2974  -23523077.32349 -18306512.68848  20422871.9104   20422876.9064
       241.0004        214.0004
  23951234.6344   -3891275.19249  -3017820.08845  23951234.2764   23951241.6564
       208.0004        139.0004
  21588730.5264  -19656442.78649 -15297569.77247  21588730.0934   21588732.5304
       234.0004        197.0004
  22183563.2664  -10959712.07649  -8522200.28547  22183563.4494   22183568.4954
       233.0004        192.0004
 06  5 10  0 29  0.0000000  0  8G24G 1G11G16G20G13G23G25
  23747033.4074   -7362644.00949  -5724433.49445  23747032.6514   23747040.6674
       214.0004        157.0004
  22586579.2034  -11768983.20049  -9151879.44146  22586579.3074   22586584.9734
       227.0004        180.0004
  23489781.1234   -5716558.88549  -4433119.30845  23489780.3834   23489787.4434
       219.0004        159.0004
  21876507.8264  -12317953.61749  -9585686.12546  21876507.4994   21876512.4434
       232.0004        187.0004
  20416615.9034  -23555955.10249 -18332131.72448  20416615.6014   20416620.2254
       241.0004        214.0004
  23938169.8364   -3959930.29449  -3071317.49145  23938170.0704   23938176.7114
       210.0004        143.0004
  21580010.5784  -19702266.62449 -15333276.64947  21580010.5404   21580012.6984
       236.0004        198.0004
  22198014.7564  -10883768.89249  -8463023.78847  22198014.9744   22198019.8144
       234.0004        191.0004
 06  5 10  0 29 30.0000000  0  8G24G 1G11G16G20G13G23G25
  23741447.6634   -7391997.65149  -5747306.46545  23741447.3984   23741454.0864
       219.0004        156.0004
  22595983.7694  -11719562.00549  -9113369.45946  22595983.3164   22595990.0864
       227.0004        180.0004
  23504185.7474   -5640862.23749  -4374134.99445  23504187.0604   23504192.5944
       220.0004        160.0004
  21866632.2194  -12369850.80149  -9626125.46847  21866631.8864   21866636.8674
       233.0004        188.0004
  20410449.9874  -23588357.51549 -18357380.35348  20410449.8004   20410454.4704
       242.0004        214.0004
  23925111.1894   -4028553.93249  -3124790.34845  23925111.8304   23925117.2024
       212.0004        145.0004
  21571312.5764  -19747975.06249 -15368893.60447  21571311.7624   21571314.7624
       234.0004        198.0004
  22212494.5014  -10807677.55849  -8403731.86547  22212494.8604   22212499.8164
       234.0004        191.0004
 06  5 10  0 30  0.0000000  0  8G24G 1G11G16G20G13G23G25
  23735955.4514   -7420859.74749  -5769796.38645  23735955.8604   23735962.0634
       219.0004        157.0004
  22605403.9554  -11670058.88449  -9074795.63046  22605404.2344   22605409.9184
       226.0004        179.0004
  23518608.1144   -5565072.13449  -4315077.88045  23518607.3174   23518613.7504
       216.0004        158.0004
  21856843.2874  -12421292.11049  -9666209.57447  21856843.3924   21856847.5344
       233.0004        189.0004
  20404374.8584  -23620282.89249 -18382257.26948  20404374.4464   20404379.2294
       241.0004        214.0004
  23912058.4034   -4097146.49649  -3178239.03345  23912058.3864   23912064.0534
       212.0004        145.0004
  21562636.4324  -19793568.02449 -15404420.56347  21562636.1284   21562638.7074
       235.0004        198.0004
  22227002.0524  -10731440.03349  -8344326.01747  22227002.7164   22227007.5424
       234.0004        191.0004
 06  5 10  0 30 30.0000000  0  8G24G 1G11G16G20G13G23G25
  23730556.8684   -7449229.95349  -5791903.04445  23730557.1974   23730564.0624
       219.0004        158.0004
  22614839.7734  -11620473.60349  -9036157.78446  22614839.6924   22614844.9284
       226.0004        178.0004
  23533047.7784   -5489191.40549  -4255950.13445  23533047.6304   23533054.4404
       217.0004        156.0004
  21847141.5654  -12472274.97549  -9705936.43847  21847140.8194   21847146.3234
       232.0004        189.0004
  20398390.7664  -23651729.64149 -18406761.22148  20398390.2884   20398395.2584
       241.0004        214.0004
  23899011.4864   -4165708.15749  -3231663.63145  23899011.5994   23899018.1954
       212.0004        145.0004
  21553982.4394  -19839045.04849 -15439857.19447  21553982.1694   21553984.2684
       235.0004        198.0004
  22241537.0214  -10655058.48749  -8284807.95247  22241536.8044   22241542.2444
       234.0004        190.0004
 06  5 10  0 31  0.0000000  0  8G24G 1G11G16G20G13G23G25
  23725251.9034   -7477108.45549  -5813626.56145  23725251.9504   23725259.1774
       219.0004        159.0004
  22624291.0614  -11570806.50849  -8997456.17146  22624291.2194   22624296.5894
       225.0004        177.0004
  23547504.0274   -5413223.28449  -4196754.30145  23547504.4624   23547511.3064
       217.0004        157.0004
  21837527.1314  -12522797.98349  -9745304.98047  21837526.7154   21837532.2484
       232.0004        188.0004
  20392497.9834  -23682696.29549 -18430891.07548  20392497.3884   20392502.2974
       241.0004        214.0004
  23885970.4384   -4234239.68649  -3285064.77145  23885972.0064   23885976.9594
       212.0004        144.0004
  21545350.4114  -19884406.47749 -15475203.74547  21545350.1544   21545352.8654
       234.0004        198.0004
  22256098.8934  -10578535.42549  -8225179.61447  22256099.1634   22256104.5334
       233.0004        189.0004
 06  5 10  0 31 30.0000000  0  8G24G 1G11G16G20G13G23G25
  23720040.8224   -7504493.29849  -5834965.39445  23720040.9574   23720047.3694
       219.0004        160.0004
  22633758.2254  -11521056.05549  -8958689.60646  22633758.0354   22633764.7294
       224.0004        176.0004
  23561976.7404   -5337169.31749  -4137491.57945  23561976.7634   23561983.8284
       219.0004        158.0004
  21828001.1584  -12572857.42349  -9784312.30547  21828001.1994   21828005.6854
       232.0004        189.0004
  20386697.0974  -23713179.99449 -18454644.60548  20386696.4944   20386701.5624
       241.0004        214.0004
  23872935.3734   -4302740.04949  -3338441.60545  23872936.3404   23872940.4094
       214.0004        143.0004
  21536740.6844  -19929650.87749 -15510459.10147  21536740.9844   21536742.9824
       236.0004        199.0004
  22270687.4654  -10501871.71749  -8165441.68247  22270687.3344   22270692.9504
       232.0004        189.0004
 06  5 10  0 32  0.0000000  0  8G24G 1G11G16G20G13G23G25
  23714923.4104   -7531385.50049  -5855920.35245  23714922.7814   23714929.5684
       217.0004        158.0004
  22643241.0684  -11471223.34649  -8919858.95146  22643240.1114   22643246.5674
       225.0004        175.0004
  23576465.0484   -5261033.81849  -4078165.31545  23576465.4034   23576471.5894
       218.0004        158.0004
  21818563.5444  -12622452.23149  -9822957.58047  21818563.2534   21818568.1314
       234.0004        189.0004
  20380988.1194  -23743180.53749 -18478021.64448  20380987.5764   20380992.5564
       240.0004        214.0004
  23859905.9194   -4371210.50949  -3391795.14245  23859906.8804   23859910.9644
       213.0004        142.0004
  21528153.1374  -19974779.44549 -15545624.21047  21528153.3104   21528154.4064
       236.0004        200.0004
  22285302.0064  -10425070.73549  -8105596.77347  22285302.0664   22285306.8924
       232.0004        189.0004
 06  5 10  0 32 30.0000000  0  8G24G 1G11G16G20G13G23G25
  23709899.9784   -7557782.79549  -5876489.67045  23709899.8484   23709906.8824
       218.0004        158.0004
  22652740.0414  -11421305.98849  -8880962.35046  22652739.9644   22652746.0284
       226.0004        176.0004
  23590968.5614   -5184817.29149  -4018775.90145  23590968.1334   23590976.7044
       218.0004        157.0004
  21809215.2584  -12671578.12049  -9861237.46147  21809215.0954   21809219.4224
       234.0004        189.0004
  20375371.9414  -23772694.18149 -18501019.28648  20375371.5044   20375375.9804
       242.0004        214.0004
  23846882.3454   -4439649.33849  -3445124.03045  23846881.6474   23846887.8224
       211.0004        141.0004
  21519587.9464  -20019789.86249 -15580697.24847  21519587.3704   21519589.7194
       237.0004        199.0004
  22299942.8604  -10348132.40249  -8045644.84647  22299943.2714   22299948.2684
       234.0004        189.0004
 06  5 10  0 33  0.0000000  0  8G24G 1G11G16G20G13G23G25
  23704970.5994   -7583685.77749  -5896673.81145  23704969.7014   23704977.3824
       215.0004        158.0004
  22662254.8184  -11371305.21649  -8842000.74546  22662254.8074   22662261.5084
       225.0004        177.0004
  23605486.6634   -5108523.95049  -3959326.62145  23605487.0814   23605494.0924
       217.0004        155.0004
  21799956.2154  -12720234.11649  -9899151.18247  21799956.1244   21799960.8634
       233.0004        189.0004
  20369848.4224  -23801720.53449 -18523637.22348  20369848.1584   20369852.4804
       241.0004        214.0004
  23833864.5184   -4508058.07949  -3498429.48145  23833864.8694   23833871.5634
       211.0004        142.0004
  21511045.0964  -20064683.00449 -15615678.88847  21511044.9934   21511047.0434
       236.0004        200.0004
  22314609.2764  -10271060.17249  -7985588.58647  22314609.3874   22314614.9814
       233.0004        189.0004
 06  5 10  0 33 30.0000000  0  8G24G 1G11G16G20G13G23G25
  23700135.6274   -7609093.10349  -5916471.73045  23700135.9674   23700143.5964
       219.0004        159.0004
  22671785.8784  -11321219.53949  -8802972.95946  22671786.5594   22671791.1454
       227.0004        177.0004
  23620019.1634   -5032155.49449  -3899818.85645  23620018.8014   23620025.8104
       217.0004        155.0004
  21790787.3454  -12768416.86749  -9936696.15247  21790787.1524   21790792.0354
       232.0004        189.0004
  20364418.1994  -23830256.74949 -18545873.22948  20364417.7174   20364422.4734
       240.0004        214.0004
  23820852.5454   -4576435.94049  -3551710.87945  23820853.6964   23820859.3844
       213.0004        144.0004
  21502524.7124  -20109457.69749 -15650568.24747  21502524.3824   21502526.0424
       236.0004        200.0004
  22329301.0304  -10193854.82349  -7925428.59347  22329301.3464   22329306.6804
       233.0004        189.0004
 06  5 10  0 34  0.0000000  0  8G24G 1G11G16G20G13G23G25
  23695394.9464   -7634005.89849  -5935884.27545  23695395.1994   23695402.5164
       220.0004        161.0004
  22681332.9944  -11271050.17249  -8763879.97846  22681332.9404   22681338.8434
       225.0004        177.0004
  23634565.0724   -4955716.00449  -3840255.73345  23634565.1514   23634572.4414
       214.0004        154.0004
  21781708.5114  -12816125.73949  -9973871.86147  21781707.8174   21781713.0074
       233.0004        189.0004
  20359081.1854  -23858302.83749 -18567727.32648  20359080.7224   20359085.4764
       242.0004        215.0004
  23807846.3164   -4644784.27149  -3604969.23845  23807846.6014   23807850.8634
       214.0004        144.0004
  21494026.5544  -20154115.52149 -15685366.53147  21494026.1054   21494028.7054
       235.0004        199.0004
  22344017.4164  -10116519.93449  -7865167.66447  22344018.2184   22344023.0744
       234.0004        189.0004
 06  5 10  0 34 30.0000000  0  8G24G 1G11G16G20G13G23G25
  23690748.4914   -7658423.90049  -5954911.29645  23690749.0464   23690755.2944
       219.0004        160.0004
  22690895.9174  -11220796.85749  -8724721.58046  22690894.8504   22690902.0804
       225.0004        177.0004
  23649123.9314   -4879208.25749  -3780639.43245  23649124.0024   23649130.8694
       214.0004        153.0004
  21772720.4394  -12863358.31549 -10010676.43547  21772720.1594   21772724.6884
       233.0004        189.0004
  20353837.7344  -23885857.21749 -18589198.27048  20353837.3224   20353841.8804
       241.0004        215.0004
  23794845.6844   -4713103.26449  -3658204.75945  23794845.1714   23794852.2614
       211.0004        145.0004
  21485550.7974  -20198655.66749 -15720073.11147  21485550.7334   21485553.0894
       236.0004        201.0004
  22358758.1594  -10039057.50549  -7804807.34947  22358758.8034   22358763.4724
       234.0004        189.0004
 06  5 10  0 35  0.0000000  0  8G24G 1G11G16G20G13G23G25
  23686196.3044   -7682345.94949  -5973551.83945  23686196.1284   23686203.4414
       218.0004        160.0004
  22700475.0344  -11170458.56049  -8685496.97246  22700474.2394   22700480.9664
       226.0004        177.0004
  23663695.4604   -4802634.27349  -3720971.50345  23663695.3554   23663703.7224
       213.0004        152.0004
  21763823.5924  -12910111.38149 -10047107.36447  21763823.4294   21763828.5404
       233.0004        189.0004
  20348688.4344  -23912917.11749 -18610283.90148  20348687.9964   20348692.6164
       241.0004        215.0004
  23781850.6554   -4781392.27849  -3711416.91545  23781850.1884   23781855.7434
       212.0004        145.0004
  21477097.6884  -20243077.08949 -15754687.18447  21477096.7654   21477099.8574
       235.0004        200.0004
  22373522.9944   -9961468.67449  -7744348.53847  22373523.3124   22373528.1094
       233.0004        188.0004
 06  5 10  0 35 30.0000000  0  8G24G 1G11G16G20G13G23G25
  23681738.4084   -7705771.62449  -5991805.61545  23681737.6144   23681745.3934
       216.0004        159.0004
  22710070.2814  -11120035.04149  -8646205.95246  22710069.7864   22710076.2544
       226.0004        177.0004
  23678278.9694   -4725996.96249  -3661254.20845  23678278.7294   23678287.6794
       214.0004        152.0004
  21755018.3214  -12956383.11949 -10083163.23747  21755018.2844   21755023.0904
       234.0004        190.0004
  20343633.4304  -23939481.26749 -18630983.23648  20343632.7764   20343637.7224
       241.0004        215.0004
  23768861.1514   -4849651.57749  -3764605.89945  23768861.1104   23768867.1914
       212.0004        146.0004
  21468667.0374  -20287379.56149 -15789208.57047  21468666.5714   21468669.3514
       235.0004        200.0004
  22388311.3284   -9883755.51249  -7683792.84447  22388311.2054   22388316.6334
       233.0004        188.0004
 06  5 10  0 36  0.0000000  0  8G24G 1G11G16G20G13G23G25
  23677375.0994   -7728700.48049  -6009672.25345  23677375.3944   23677383.0754
       217.0004        159.0004
  22719681.9444  -11069525.55849  -8606847.92246  22719681.6424   22719688.0394
       227.0004        176.0004
  23692874.2744   -4649298.79349  -3601489.51845  23692873.8854   23692882.6334
       217.0004        153.0004
  21746305.1974  -13002170.94249 -10118842.02147  21746305.1764   21746310.1374
       234.0004        191.0004
  20338673.1154  -23965547.76249 -18651294.78748  20338672.4404   20338677.1674
       241.0004        215.0004
  23755877.5784   -4917880.71149  -3817771.39545  23755877.5484   23755885.0884
       212.0004        147.0004
  21460259.3294  -20331562.33349 -15823636.68247  21460259.0124   21460262.2014
       237.0004        202.0004
  22403123.0004   -9805919.45949  -7623141.39147  22403123.3204   22403128.1854
       233.0004        188.0004
 06  5 10  0 36 30.0000000  0  8G24G 1G11G16G20G13G23G25
  23673106.5164   -7751132.53749  -6027151.77445  23673106.1704   23673114.1434
       217.0004        159.0004
  22729309.9564  -11018930.15549  -8567422.94946  22729309.2674   22729314.8084
       229.0004        176.0004
  23707480.4324   -4572542.67649  -3541679.68945  23707479.8034   23707487.5524
       215.0004        152.0004
  21737684.5264  -13047473.05549 -10154142.33247  21737684.0744   21737689.2314
       234.0004        192.0004
  20333807.7614  -23991115.14449 -18671217.41848  20333807.1684   20333812.0434
       241.0004        215.0004
  23742899.4894   -4986080.39749  -3870913.94845  23742899.4134   23742905.9624
       213.0004        147.0004
  21451874.2694  -20375625.73649 -15857971.77147  21451873.9974   21451876.7934
       236.0004        201.0004
  22417957.6334   -9727963.00149  -7562396.12947  22417957.8014   22417962.7304
       234.0004        188.0004
 06  5 10  0 37  0.0000000  0  8G24G 1G11G16G20G13G23G25
  23668932.4154   -7773067.62249  -6044244.03245  23668932.3994   23668938.7464
       215.0004        157.0004
  22738954.4654  -10968248.47749  -8527930.75646  22738954.7594   22738960.3174
       228.0004        176.0004
  23722097.2194   -4495731.22449  -3481826.74145  23722096.9344   23722104.7414
       217.0004        151.0004
  21729156.5894  -13092287.33649 -10189062.52947  21729156.5984   21729161.5804
       234.0004        192.0004
  20329037.7714  -24016181.72249 -18690749.82148  20329037.4104   20329042.4654
       241.0004        215.0004
  23729927.1424   -5054250.18849  -3924033.19245  23729926.2844   23729933.5304
       209.0004        145.0004
  21443512.0654  -20419569.26149 -15892213.46847  21443511.8564   21443514.1694
       237.0004        202.0004
  22432814.8344   -9649887.97549  -7501558.47946  22432815.0954   22432819.8084
       232.0004        187.0004
 06  5 10  0 37 30.0000000  0  8G24G 1G11G16G20G13G23G25
  23664852.7524   -7794505.55449  -6060948.87445  23664852.7634   23664860.3004
       218.0004        158.0004
  22748615.4444  -10917480.30649  -8488371.14846  22748615.6914   22748621.5394
       229.0004        176.0004
  23736724.0514   -4418867.16049  -3421932.78045  23736724.5584   23736731.7204
       217.0004        154.0004
  21720721.9874  -13136611.62249 -10223600.90347  21720721.6974   21720726.8044
       236.0004        193.0004
  20324363.2474  -24040746.23649 -18709890.99548  20324362.7164   20324367.7494
       242.0004        215.0004
  23716960.3814   -5122390.74649  -3977129.65745  23716960.5604   23716965.0724
       215.0004        144.0004
  21435172.7514  -20463392.62249 -15926361.51347  21435172.2894   21435175.3194
       238.0004        202.0004
  22447694.1814   -9571696.43249  -7440630.01246  22447694.1254   22447699.3284
       233.0004        186.0004
 06  5 10  0 38  0.0000000  0  8G24G 1G11G16G20G13G23G25
  23660868.0144   -7815445.70349  -6077265.86445  23660868.7614   23660876.1264
       217.0004        160.0004
  22758292.7754  -10866625.11049  -8448743.74646  22758291.9124   22758298.6954
       229.0004        177.0004
  23751360.4834   -4341953.12549  -3361999.90645  23751361.6244   23751368.4904
       214.0004        154.0004
  21712381.0614  -13180443.41849 -10257755.51947  21712380.6024   21712386.1184
       236.0004        193.0004
  20319784.6114  -24064806.99849 -18728639.63048  20319784.1064   20319789.1474
       241.0004        215.0004
  23703999.3604   -5190501.96449  -4030203.27045  23703999.1834   23704004.3194
       215.0004        145.0004
  21426856.3864  -20507095.38449 -15960415.59147  21426856.2264   21426858.7094
       237.0004        203.0004
  22462595.3124   -9493390.03649  -7379612.05946  22462595.3694   22462600.9454
       232.0004        186.0004
 06  5 10  0 38 30.0000000  0  8G24G 1G11G16G20G13G23G25
  23656977.9244   -7835888.49049  -6093195.29845  23656976.9164   23656986.3604
       216.0004        161.0004
  22767986.7634  -10815682.87649  -8409048.52646  22767986.4514   22767992.9264
       229.0004        178.0004
  23766005.7264   -4264992.33249  -3302030.55545  23766006.6364   23766013.7544
       213.0004        152.0004
  21704134.2814  -13223780.85749 -10291524.92947  21704133.9114   21704138.8934
       235.0004        193.0004
  20315302.1654  -24088362.43449 -18746994.51548  20315301.6694   20315306.7444
       241.0004        215.0004
  23691043.8044   -5258584.20249  -4083254.30845  23691043.6524   23691050.2774
       214.0004        147.0004
  21418563.0794  -20550677.42149 -15994375.60147  21418563.0074   21418565.0704
       238.0004        202.0004
  22477518.0394   -9414971.00549  -7318506.36146  22477518.1384   22477523.3534
       232.0004        186.0004
 06  5 10  0 39  0.0000000  0  8G24G 1G11G16G20G13G23G25
  23653182.4744   -7855833.61149  -6108736.95445  23653182.2334   23653189.6744
       214.0004        160.0004
  22777697.3904  -10764653.16349  -8369285.13246  22777697.1184   22777702.2694
       228.0004        177.0004
  23780659.3534   -4187987.35149  -3242026.79245  23780659.0824   23780667.0084
       212.0004        150.0004
  21695981.7594  -13266622.10949 -10324907.68547  21695981.3254   21695986.1604
       234.0004        193.0004
  20310916.0624  -24111411.36149 -18764954.71248  20310915.4364   20310920.3734
       240.0004        215.0004
  23678093.6734   -5326637.42449  -4136282.72845  23678094.2964   23678101.0764
       216.0004        149.0004
  21410292.8094  -20594138.39349 -16028241.27847  21410292.3334   21410294.7274
       237.0004        202.0004
  22492461.7874   -9336441.19649  -7257314.32546  22492461.7134   22492467.2104
       230.0004        185.0004
 06  5 10  0 39 30.0000000  0  8G24G 1G11G16G20G13G23G25
  23649481.8094   -7875280.46849  -6123890.35345  23649481.8344   23649488.2364
       216.0004        159.0004
  22787424.7774  -10713535.15749  -8329452.93946  22787423.9754   22787430.8214
       227.0004        177.0004
  23795321.0234   -4110940.04449  -3181990.07245  23795321.9614   23795328.4304
       212.0004        149.0004
  21687924.2204  -13308964.53249 -10357901.75447  21687923.5934   21687928.3624
       235.0004        193.0004
  20306626.7274  -24133951.67149 -18782518.58348  20306626.1554   20306631.1084
       240.0004        215.0004
  23665148.9554   -5394661.02849  -4189288.07645  23665148.5094   23665155.0044
       213.0004        148.0004
  21402045.6194  -20637477.19049 -16062011.74647  21402045.1924   21402047.7584
       236.0004        202.0004
  22507426.2284   -9257802.02749  -7196037.07446  22507426.0634   22507431.4514
       230.0004        184.0004
 06  5 10  0 40  0.0000000  0  8G24G 1G11G16G20G13G23G25
  23645876.1454   -7894228.46849  -6138655.02345  23645876.5004   23645882.8094
       218.0004        159.0004
  22797169.1894  -10662328.30349  -8289551.51546  22797168.9084   22797175.4624
       228.0004        177.0004
  23809990.2524   -4033853.09149  -3121922.44145  23809990.4774   23809997.5574
       213.0004        149.0004
  21679962.0784  -13350805.86049 -10390505.37147  21679961.7054   21679966.9774
       234.0004        193.0004
  20302434.6184  -24155981.51149 -18799684.69348  20302434.2474   20302439.1744
       240.0004        215.0004
  23652209.9524   -5462654.98349  -4242270.30645  23652209.7064   23652215.3834
       211.0004        148.0004
  21393821.8264  -20680693.27449 -16095686.60147  21393821.7054   21393824.1604
       237.0004        202.0004
  22522411.2654   -9179055.06249  -7134675.82346  22522411.4594   22522416.9874
       230.0004        183.0004
 06  5 10  0 40 30.0000000  0  8G24G 1G11G16G20G13G23G25
  23642365.2664   -7912678.96949  -6153031.99945  23642364.7614   23642371.7674
       219.0004        158.0004
  22806930.3494  -10611033.42949  -8249581.51246  22806929.4914   22806936.2764
       227.0004        177.0004
  23824666.4824   -3956730.40349  -3061826.95545  23824666.6964   23824674.1004
       214.0004        150.0004
  21672095.3464  -13392145.34849 -10422717.93347  21672095.0614   21672100.2654
       235.0004        195.0004
  20298339.6704  -24177500.57649 -18816452.79548  20298339.1424   20298344.0344
       239.0004        215.0004
  23639276.5214   -5530620.73749  -4295230.55945  23639277.4694   23639282.1714
       214.0004        149.0004
  21385621.2734  -20723787.56849 -16129266.56247  21385620.8234   21385623.1344
       235.0004        202.0004
  22537416.2444   -9100203.50549  -7073233.06746  22537416.0724   22537421.9194
       230.0004        184.0004
 06  5 10  0 41  0.0000000  0  8G24G 1G11G16G20G13G23G25
  23638948.9644   -7930630.74349  -6167020.38445  23638948.3574   23638955.4784
       215.0004        158.0004
  22816708.4484  -10559649.16549  -8209541.86146  22816707.9124   22816714.2894
       226.0004        176.0004
  23839349.1824   -3879573.62449  -3001704.91145  23839348.3734   23839356.6744
       211.0004        150.0004
  21664324.9244  -13432979.56649 -10454536.77747  21664325.0104   21664329.9304
       236.0004        195.0004
  20294342.3604  -24198506.54649 -18832821.07948  20294341.8594   20294346.7914
       240.0004        215.0004
  23626348.8404   -5598556.95049  -4348167.77245  23626348.4694   23626353.7864
       214.0004        150.0004
  21377444.0354  -20766758.53749 -16162750.41647  21377443.7144   21377446.4994
       236.0004        202.0004
  22552441.0114   -9021247.92649  -7011709.27246  22552441.2204   22552446.6884
       231.0004        185.0004
 06  5 10  0 41 30.0000000  0  8G24G 1G11G16G20G13G23G25
  23635627.7144   -7948083.66149  -6180620.07045  23635628.3954   23635633.7924
       215.0004        156.0004
  22826503.5314  -10508175.37649  -8169432.44246  22826502.8214   22826509.0654
       227.0004        176.0004
  23854037.5104   -3802385.62949  -2941558.55145  23854037.5734   23854045.6454
       212.0004        148.0004
  21656650.8694  -13473307.18149 -10485960.85647  21656650.7434   21656655.5164
       237.0004        195.0004
  20290442.9014  -24218998.37749 -18848788.73448  20290442.2194   20290447.3744
       241.0004        215.0004
  23613426.4444   -5666464.09149  -4401082.35845  23613425.8554   23613433.0114
       214.0004        151.0004
  21369290.4474  -20809606.20649 -16196138.20047  21369290.2284   21369292.9234
       238.0004        203.0004
  22567485.1624   -8942190.72149  -6950106.28346  22567485.3454   22567490.4294
       231.0004        185.0004
 06  5 10  0 42  0.0000000  0  8G24G 1G11G16G20G13G23G25
  23632401.3954   -7965038.34749  -6193831.52045  23632400.8294   23632408.6734
       213.0004        155.0004
  22836315.8134  -10456611.86749  -8129253.11846  22836315.8084   22836322.2664
       225.0004        175.0004
  23868731.2634   -3725169.59149  -2881390.32845  23868731.7514   23868740.4304
       213.0004        151.0004
  21649073.5344  -13513126.22249 -10516988.65647  21649073.3684   21649078.0504
       235.0004        194.0004
  20286641.5094  -24238974.67549 -18864354.67848  20286641.0014   20286646.0854
       240.0004        215.0004
  23600509.4974   -5734342.55949  -4453974.62645  23600508.9084   23600514.2034
       215.0004        150.0004
  21361160.2974  -20852330.24649 -16229429.64747  21361160.1574   21361162.5064
       236.0004        202.0004
  22582548.2284   -8863033.84649  -6888425.62146  22582548.7174   22582553.4244
       230.0004        184.0004
 06  5 10  0 42 30.0000000  0  8G24G 1G11G16G20G13G23G25
  23629269.8364   -7981494.67649  -6206654.64445  23629269.8874   23629276.6184
       216.0004        158.0004
  22846145.1534  -10404958.19149  -8089003.55946  22846143.9344   22846150.7194
       224.0004        174.0004
  23883430.0334   -3647927.84549  -2821202.05945  23883430.1554   23883437.6804
       214.0004        151.0004
  21641593.3474  -13552434.75349 -10547618.64847  21641593.2474   21641598.2754
       235.0004        194.0004
  20282938.5614  -24258433.85449 -18879517.67148  20282937.9644   20282942.6724
       240.0004        215.0004
  23587598.1204   -5802192.16849  -4506844.38945  23587598.1664   23587603.5844
       216.0004        149.0004
  21353053.8244  -20894930.15549 -16262624.37747  21353053.7094   21353056.1654
       238.0004        203.0004
  22597630.0574   -8783779.03249  -6826668.65246  22597630.0164   22597635.0944
       229.0004        183.0004
 06  5 10  0 43  0.0000000  0  8G24G 1G11G16G20G13G23G25
  23626233.2894   -7997452.17749  -6219089.07145  23626233.4394   23626240.4864
       217.0004        162.0004
  22855991.9164  -10353213.54449  -8048683.07846  22855991.6064   22855997.7434
       224.0004        174.0004
  23898133.3784   -3570662.81349  -2760995.68845  23898134.3464   23898140.3714
       217.0004        150.0004
  21634210.7544  -13591230.42649 -10577849.01247  21634210.1984   21634215.4744
       236.0004        195.0004
  20279334.3344  -24277374.06449 -18894276.27348  20279333.9794   20279338.7604
       239.0004        215.0004
  23574692.4214   -5870012.43249  -4559691.31445  23574693.2694   23574696.6904
       217.0004        150.0004
  21344971.1794  -20937405.00849 -16295721.64747  21344970.8244   21344973.8644
       237.0004        204.0004
  22612730.1504   -8704427.62349  -6764836.40646  22612730.3234   22612735.6294
       229.0004        182.0004
 06  5 10  0 43 30.0000000  0  8G24G 1G11G16G20G13G23G25
  23623291.4934   -8012911.64049  -6231135.42746  23623290.7664   23623298.6574
       217.0004        163.0004
  22865855.7314  -10301378.45449  -8008292.14046  22865855.2884   22865861.9824
       225.0004        174.0004
  23912840.4764   -3493377.76949  -2700773.71245  23912839.8254   23912847.1134
       213.0004        148.0004
  21626925.9604  -13629511.98749 -10607678.77747  21626925.8114   21626930.4784
       236.0004        195.0004
  20275828.9244  -24295794.97749 -18908630.22748  20275828.7464   20275833.5164
       240.0004        215.0004
  23561792.1894   -5937804.25449  -4612516.03945  23561792.3314   23561797.9304
       217.0004        153.0004
  21336912.1204  -20979755.51049 -16328722.03347  21336911.8934   21336914.1784
       236.0004        203.0004
  22627848.0834   -8624982.49549  -6702931.13746  22627847.9574   22627853.8204
       229.0004        182.0004
 06  5 10  0 44  0.0000000  0  8G24G 1G11G16G20G13G23G25
  23620444.6484   -8027872.28049  -6242793.07245  23620444.0274   23620451.4694
       217.0004        161.0004
  22875736.9154  -10249451.82049  -7967829.86846  22875736.8674   22875743.6334
       224.0004        174.0004
  23927550.5124   -3416074.79149  -2640537.69445  23927550.4324   23927557.9494
       214.0004        146.0004
  21619739.5844  -13667276.92449 -10637105.97447  21619739.5764   21619743.5654
       236.0004        195.0004
  20272422.9074  -24313694.05649 -18922577.56148  20272422.5044   20272427.0444
       240.0004        215.0004
  23548897.4754   -6005566.97849  -4665318.07645  23548897.0284   23548902.7604
       215.0004        155.0004
  21328877.0164  -21021980.18249 -16361624.37047  21328876.7364   21328878.8914
       238.0004        203.0004
  22642983.6374   -8545444.58449  -6640953.55946  22642984.0584   22642988.3714
       229.0004        182.0004
 06  5 10  0 44 30.0000000  0  8G24G 1G11G16G20G13G23G25
  23617692.8864   -8042333.98449  -6254061.93045  23617693.6114   23617699.9384
       216.0004        157.0004
  22885635.8234  -10197433.22049  -7927295.91046  22885634.7854   22885641.8524
       223.0004        174.0004
  23942264.0084   -3338756.01549  -2580289.44145  23942264.3354   23942270.5414
       214.0004        147.0004
  21612651.8414  -13704523.23449 -10666129.04847  21612651.4934   21612656.2474
       235.0004        195.0004
  20269116.2754  -24331070.62949 -18936117.74348  20269115.7934   20269120.3974
       239.0004        215.0004
  23536007.9084   -6073300.52049  -4718097.38345  23536007.4814   23536013.5604
       212.0004        154.0004
  21320866.0054  -21064078.60249 -16394428.30847  21320865.6524   21320868.0664
       238.0004        204.0004
  22658136.6214   -8465815.59149  -6578905.01446  22658136.2594   22658141.8084
       227.0004        182.0004
 06  5 10  0 45  0.0000000  0  8G24G 1G11G16G20G13G23G25
  23615035.8024   -8056297.33049  -6264942.44345  23615035.2014   23615042.7234
       217.0004        155.0004
  22895552.1304  -10145322.56649  -7886690.24346  22895552.0994   22895558.9764
       226.0004        174.0004
  23956979.7764   -3261425.03949  -2520031.64745  23956979.1684   23956986.6714
       211.0004        146.0004
  21605663.0424  -13741249.63549 -10694747.00147  21605662.5814   21605667.7224
       237.0004        195.0004
  20265909.3104  -24347923.62349 -18949249.94648  20265908.6434   20265913.7444
       241.0004        215.0004
  23523123.7914   -6141005.13849  -4770854.15545  23523122.7314   23523128.9954
       215.0004        154.0004
  21312879.0034  -21106050.40149 -16427133.59347  21312878.6114   21312881.0314
       238.0004        204.0004
  22673306.3574   -8386097.74449  -6516787.24146  22673305.9674   22673311.8994
       227.0004        182.0004
 06  5 10  0 45 30.0000000  0  8G24G 1G11G16G20G13G23G25
  23612473.3704   -8069762.14149  -6275434.51745  23612472.6954   23612479.8204
       216.0004        157.0004
  22905486.2474  -10093119.06149  -7846012.21546  22905485.4524   22905492.8104
       225.0004        175.0004
  23971697.2404   -3184083.90749  -2459765.94045  23971698.0494   23971705.9324
       213.0004        146.0004
  21598773.6334  -13777453.51449 -10722957.78447  21598773.3204   21598778.0684
       236.0004        196.0004
  20262802.2574  -24364250.74849 -18961972.38148  20262801.5944   20262806.5124
       239.0004        215.0004
  23510245.3804   -6208680.58149  -4823588.19145  23510246.0754   23510250.8604
       215.0004        152.0004
  21304916.2254  -21147895.20549 -16459739.93247  21304916.3934   21304918.1054
       239.0004        204.0004
  22688492.6494   -8306292.30049  -6454601.20346  22688492.9434   22688498.2304
       226.0004        182.0004
 06  5 10  0 46  0.0000000  0  8G24G 1G11G16G20G13G23G25
  23610005.7034   -8082728.90749  -6285538.50545  23610005.2834   23610013.3544
       215.0004        160.0004
  22915437.9274  -10040822.79149  -7805261.91046  22915437.0334   22915444.5684
       225.0004        175.0004
  23986416.3354   -3106735.53049  -2399494.60745  23986416.4194   23986423.7574
       214.0004        150.0004
  21591983.8234  -13813133.80049 -10750760.57447  21591983.1414   21591988.5614
       235.0004        195.0004
  20259795.4164  -24380051.52149 -18974284.66748  20259794.8264   20259799.7064
       239.0004        215.0004
  23497372.4754   -6276327.17649  -4876299.76645  23497372.1784   23497377.6444
       215.0004        151.0004
  21296977.6954  -21189612.82149 -16492247.14547  21296977.3194   21296979.6544
       238.0004        204.0004
  22703695.3044   -8226401.61849  -6392348.75846  22703695.2394   22703700.7074
       227.0004        180.0004
 06  5 10  0 46 30.0000000  0  8G24G 1G11G16G20G13G23G25
  23607633.0044   -8095197.34949  -6295254.21045  23607633.8954   23607639.8744
       217.0004        160.0004
  22925407.3864   -9988432.96849  -7764438.71346  22925406.8114   22925413.9994
       224.0004        173.0004
  24001136.2304   -3029382.33649  -2339219.50745  24001136.2894   24001143.5624
       210.0004        148.0004
  21585294.1024  -13848288.17249 -10778153.57047  21585293.8424   21585298.9394
       236.0004        195.0004
  20256889.0834  -24395324.40849 -18986185.62248  20256888.7584   20256893.6764
       239.0004        215.0004
  23484505.2844   -6343944.73049  -4928988.72345  23484505.4454   23484510.9194
       217.0004        151.0004
  21289063.5274  -21231202.12449 -16524654.37947  21289063.4284   21289065.6024
       239.0004        205.0004
  22718913.8794   -8146427.01449  -6330030.90246  22718914.3834   22718919.0704
       225.0004        179.0004
 06  5 10  0 47  0.0000000  0  8G24G 1G11G16G20G13G23G25
  23605355.1984   -8107168.07149  -6304582.05245  23605354.5734   23605362.3944
       217.0004        161.0004
  22935394.6784   -9935949.62649  -7723542.62046  22935394.7574   22935400.3764
       224.0004        173.0004
  24015856.2154   -2952027.12849  -2278942.83845  24015855.5594   24015863.4234
       210.0004        146.0004
  21578704.7684  -13882915.36949 -10805135.77647  21578704.2544   21578709.2634
       235.0004        195.0004
  20254083.4494  -24410068.21349 -18997674.30448  20254083.2104   20254087.8144
       239.0004        215.0004
  23471643.4164   -6411533.47049  -4981655.23445  23471643.2104   23471649.0694
       212.0004        152.0004
  21281173.8044  -21272663.24049 -16556961.72647  21281173.4004   21281175.5074
       238.0004        205.0004
  22734148.1444   -8066370.58549  -6267649.30146  22734148.2174   22734154.5554
       225.0004        178.0004
 06  5 10  0 47 30.0000000  0  8G24G 1G11G16G20G13G23G25
  23603171.9684   -8118641.01949  -6313522.00445  23603172.2944   23603178.1134
       219.0004        161.0004
  22945399.8684   -9883371.94149  -7682573.03346  22945399.2814   22945404.8984
       222.0004        171.0004
  24030576.3824   -2874672.40749  -2218666.56845  24030577.0184   24030585.1964
       213.0004        147.0004
  21572216.1054  -13917013.24149 -10831705.52047  21572215.9664   21572220.4914
       237.0004        195.0004
  20251378.7704  -24424281.77749 -19008749.80248  20251378.2434   20251382.9774
       239.0004        215.0004
  23458787.0984   -6479093.05749  -5034298.98545  23458787.0304   23458792.9694
       212.0004        151.0004
  21273308.4344  -21313995.63549 -16589168.76647  21273308.1054   21273310.2344
       239.0004        205.0004
  22749397.5304   -7986233.79149  -6205205.06346  22749397.2504   22749403.3664
       225.0004        178.0004
 06  5 10  0 48  0.0000000  0  8G24G 1G11G16G20G13G23G25
  23601083.4184   -8129616.52149  -6322074.36045  23601082.8904   23601091.1454
       217.0004        162.0004
  22955423.0684   -9830699.88749  -7641529.89046  22955422.9314   22955429.0514
       224.0004        172.0004
  24045296.1414   -2797320.90449  -2158392.81745  24045296.3784   24045303.3564
       210.0004        147.0004
  21565828.5014  -13950580.53149 -10857861.81647  21565827.9884   21565833.2644
       236.0004        195.0004
  20248775.0934  -24437964.07449 -19019411.33648  20248774.5154   20248779.5054
       239.0004        215.0004
  23445936.4734   -6546623.79449  -5086920.26345  23445937.1154   23445942.4374
       217.0004        153.0004
  21265467.7984  -21355198.73949 -16621275.07047  21265467.6634   21265469.5534
       239.0004        206.0004
  22764661.8954   -7906018.80349  -6142699.91146  22764661.6934   22764668.2564
       224.0004        178.0004
 06  5 10  0 48 30.0000000  0  8G24G 1G11G16G20G13G23G25
  23599089.4344   -8140095.46949  -6330239.79245  23599089.2404   23599096.1474
       218.0004        162.0004
  22965464.2264   -9777933.74249  -7600413.45246  22965464.3904   22965471.0664
       226.0004        174.0004
  24060014.4144   -2719976.10049  -2098124.24445  24060014.4494   24060021.4994
       211.0004        145.0004
  21559541.9994  -13983616.03049 -10883603.73747  21559541.2804   21559546.2104
       236.0004        194.0004
  20246272.6744  -24451114.28349 -19029658.25448  20246272.2674   20246277.0274
       240.0004        215.0004
  23433091.2844   -6614125.96849  -5139519.28845  23433092.2984   23433097.8614
       219.0004        156.0004
  21257651.7004  -21396272.46849 -16653280.54547  21257650.9344   21257653.1754
       239.0004        205.0004
  22779940.7454   -7825727.81349  -6080135.55346  22779940.8554   22779946.7584
       225.0004        178.0004
 06  5 10  0 49  0.0000000  0  8G24G 1G11G16G20G13G23G25
  23597190.0054   -8150077.04849  -6338017.64945  23597190.2354   23597197.6034
       218.0004        161.0004
  22975523.5164   -9725071.99149  -7559222.51746  22975523.5364   22975529.7454
       223.0004        174.0004
  24074731.3964   -2642639.41449  -2037862.04245  24074732.1304   24074739.2684
       211.0004        147.0004
  21553357.1914  -14016117.02749 -10908929.17647  21553357.1614   21553361.3664
       236.0004        194.0004
  20243871.9534  -24463730.39849 -19039488.99348  20243871.6194   20243876.1294
       240.0004        215.0004
  23420251.7284   -6681598.87449  -5192095.53345  23420251.1084   23420257.7864
       216.0004        154.0004
  21249860.4344  -21437215.53649 -16685184.23147  21249860.3784   21249861.9614
       240.0004        205.0004
  22795233.9614   -7745361.62049  -6017512.56646  22795234.5874   22795240.1814
       228.0004        179.0004
 06  5 10  0 49 30.0000000  0  8G24G 1G11G16G20G13G23G25
  23595385.1374   -8159562.24849  -6345408.71245  23595385.1554   23595391.4284
       219.0004        160.0004
  22985600.8554   -9672114.72649  -7517957.13546  22985601.2694   22985607.2834
       224.0004        173.0004
  24089446.2274   -2565314.07349  -1977608.66045  24089446.5434   24089453.6934
       213.0004        147.0004
  21547274.4284  -14048082.48449 -10933837.30347  21547274.3724   21547278.8034
       238.0004        196.0004
  20241573.0144  -24475811.84449 -19048903.10448  20241572.4814   20241577.3494
       241.0004        216.0004
  23407417.4994   -6749042.95849  -5244649.32145  23407417.2024   23407423.1814
       214.0004        153.0004
  21242094.0634  -21478027.99949 -16716986.13247  21242093.6254   21242096.1454
       240.0004        205.0004
  22810541.1754   -7664922.46249  -5954832.71846  22810541.2114   22810546.4934
       228.0004        178.0004
 06  5 10  0 50  0.0000000  0  8G24G 1G11G16G20G13G23G25
  23593674.5804   -8168551.08349  -6352412.99445  23593673.5204   23593681.3164
       215.0004        158.0004
  22995696.6024   -9619061.43949  -7476616.94646  22995696.0614   22995703.4834
       224.0004        172.0004
  24104158.4044   -2488002.19849  -1917365.78145  24104158.2584   24104164.5124
       214.0004        146.0004
  21541293.8824  -14079510.31949 -10958326.49447  21541293.3034   21541298.6814
       237.0004        198.0004
  20239375.9754  -24487357.13349 -19057899.43548  20239375.4224   20239380.1594
       240.0004        216.0004
  23394588.8714   -6816457.84649  -5297180.34545  23394588.6934   23394594.5684
       214.0004        150.0004
  21234352.6704  -21518709.20549 -16748685.75347  21234352.3544   21234354.5144
       240.0004        206.0004
  22825861.9414   -7584411.70149  -5892097.08146  22825861.8954   22825866.7034
       227.0004        178.0004
 06  5 10  0 50 30.0000000  0  8G24G 1G11G16G20G13G23G25
  23592058.1104   -8177044.43749  -6359031.21645  23592057.9684   23592065.1224
       217.0004        158.0004
  23005810.6514   -9565912.16949  -7435201.96846  23005811.4484   23005816.4754
       224.0004        172.0004
  24118867.2924   -2410706.90449  -1857135.84645  24118866.6164   24118875.5274
       208.0004        145.0004
  21535415.8004  -14110399.63549 -10982396.06247  21535415.5424   21535420.8204
       236.0004        197.0004
  20237281.0784  -24498365.80249 -19066477.61948  20237280.7424   20237285.6294
       240.0004        216.0004
  23381765.6094   -6883844.15249  -5349689.10345  23381764.5314   23381770.7844
       215.0004        151.0004
  21226636.2424  -21559259.02049 -16780283.00947  21226635.9664   21226637.8804
       238.0004        206.0004
  22841195.8464   -7503831.72549  -5829307.51846  22841196.6094   22841201.4794
       227.0004        178.0004
 06  5 10  0 51  0.0000000  0  8G24G 1G11G16G20G13G23G25
  23590536.3644   -8185041.23249  -6365262.49645  23590536.3724   23590543.2114
       219.0004        160.0004
  23015943.3414   -9512665.17549  -7393710.83546  23015943.6544   23015949.2564
       225.0004        172.0004
  24133572.4994   -2333429.61749  -1796919.89745  24133573.0554   24133581.8494
       208.0004        145.0004
  21529640.7964  -14140747.45049 -11006043.68047  21529640.2204   21529645.2934
       237.0004        197.0004
  20235288.8614  -24508835.25449 -19074635.63348  20235288.2314   20235293.1424
       241.0004        216.0004
  23368948.1354   -6951200.21849  -5402174.28245  23368947.6844   23368953.2924
       217.0004        153.0004
  21218945.2144  -21599675.47949 -16811776.34547  21218945.0904   21218947.2824
       241.0004        206.0004
  22856542.9714   -7423182.80149  -5766464.22546  22856543.2844   22856548.7314
       229.0004        179.0004
 06  5 10  0 51 30.0000000  0  8G24G 1G11G16G20G13G23G25
  23589109.2374   -8192541.74349  -6371107.05145  23589108.4604   23589116.3624
       216.0004        160.0004
  23026094.6314   -9459320.09149  -7352143.28346  23026094.8064   23026100.3404
       225.0004        172.0004
  24148274.0134   -2256173.05349  -1736720.08545  24148274.7874   24148283.8934
       210.0004        147.0004
  21523969.0844  -14170552.39149 -11029268.28047  21523968.6274   21523973.5194
       236.0004        197.0004
  20233399.2864  -24518764.75349 -19082372.91248  20233399.0294   20233403.3714
       240.0004        216.0004
  23356136.2654   -7018526.34849  -5454636.13945  23356135.6644   23356141.9054
       215.0004        154.0004
  21211279.7534  -21639958.19149 -16843165.45347  21211279.2474   21211281.5744
       238.0004        206.0004
  22871902.8524   -7342466.68149  -5703568.58546  22871903.0614   22871908.5744
       226.0004        180.0004
 06  5 10  0 52  0.0000000  0  8G24G 1G11G16G20G13G23G25
  23587775.9044   -8199547.96249  -6376566.45745  23587775.5534   23587783.5214
       214.0004        158.0004
  23036264.4184   -9405878.06549  -7310500.16746  23036263.9764   23036270.3814
       224.0004        171.0004
  24162970.9754   -2178941.37849  -1676539.72345  24162970.6444   24162978.1474
       208.0004        146.0004
  21518400.7224  -14199814.21349 -11052069.67547  21518400.2224   21518404.9024
       237.0004        197.0004
  20231612.5234  -24528154.71949 -19089689.76848  20231612.1464   20231616.6804
       240.0004        216.0004
  23343329.8474   -7085823.79349  -5507075.66045  23343329.2194   23343334.7464
       215.0004        155.0004
  21203639.5024  -21680107.83649 -16874450.88947  21203639.0064   21203640.9134
       239.0004        205.0004
  22887274.9434   -7261686.51949  -5640623.02846  22887275.1894   22887280.2974
       228.0004        179.0004
 06  5 10  0 52 30.0000000  0  8G24G 1G11G16G20G13G23G25
  23586536.6954   -8206059.13149  -6381640.11945  23586537.1704   23586544.1834
       216.0004        158.0004
  23046452.9204   -9352337.19249  -7268780.04246  23046451.7334   23046458.6424
       223.0004        171.0004
  24177662.6014   -2101735.52249  -1616379.45145  24177662.0334   24177671.4224
       206.0004        142.0004
  21512936.2314  -14228530.07449 -11074445.65747  21512936.3544   21512940.6364
       238.0004        197.0004
  20229928.8514  -24537002.49249 -19096584.14248  20229928.2124   20229933.2204
       240.0004        216.0004
  23330529.0494   -7153091.02849  -5559491.63045  23330528.3814   23330535.2004
       213.0004        153.0004
  21196024.8684  -21720122.60449 -16905631.21947  21196024.5484   21196027.0044
       239.0004        205.0004
  22902659.1464   -7180842.59949  -5577627.81446  22902659.3994   22902663.9374
       227.0004        178.0004
 06  5 10  0 53  0.0000000  0  8G24G 1G11G16G20G13G23G25
  23585391.7094   -8212076.68349  -6386329.12645  23585391.6634   23585398.4664
       217.0004        160.0004
  23056660.0164   -9298698.20949  -7226983.45946  23056659.5174   23056666.6764
       223.0004        171.0004
  24192349.1854   -2024558.70449  -1556241.82445  24192351.3544   24192358.4124
       210.0004        143.0004
  21507575.8224  -14256699.57849 -11096395.90247  21507575.5854   21507580.1744
       237.0004        197.0004
  20228348.3334  -24545307.91749 -19103055.90548  20228347.8864   20228352.5964
       239.0004        216.0004
  23317734.1264   -7220329.10449  -5611884.87445  23317734.7684   23317739.4614
       214.0004        152.0004
  21188435.7634  -21760003.09049 -16936706.91547  21188435.6314   21188437.6314
       238.0004        205.0004
  22918054.9664   -7099937.50449  -5514584.90646  22918055.0614   22918060.3174
       225.0004        178.0004
 06  5 10  0 53 30.0000000  0  8G24G 1G11G16G20G13G23G25
  23584340.4224   -8217600.69049  -6390633.55545  23584340.2014   23584347.1324
       217.0004        161.0004
  23066886.0014   -9244960.45649  -7185109.92346  23066885.8274   23066892.5954
       224.0004        172.0004
  24207029.8954   -1947413.80249  -1496129.05045  24207030.3324   24207037.9654
       205.0004        143.0004
  21502319.6194  -14284321.04349 -11117919.09347  21502319.1144   21502323.8204
       236.0004        197.0004
  20226871.2644  -24553070.15949 -19109104.40848  20226870.8694   20226875.6434
       239.0004        216.0004
  23304944.8094   -7287537.72549  -5664255.15245  23304944.9024   23304951.1824
       216.0004        153.0004
  21180872.4074  -21799748.60949 -16967677.43947  21180871.6284   21180874.3224
       237.0004        204.0004
  22933462.0044   -7018972.89549  -5451495.63946  22933461.4554   22933467.2554
       224.0004        177.0004
 06  5 10  0 54  0.0000000  0  8G24G 1G11G16G20G13G23G25
  23583383.1414   -8222630.76149  -6394553.07745  23583383.2934   23583390.1024
       216.0004        160.0004
  23077130.9184   -9191122.74649  -7143158.50946  23077130.3954   23077137.8524
       223.0004        172.0004
  24221703.6284   -1870302.48949  -1436042.41445  24221704.2434   24221710.4194
       208.0004        141.0004
  21497167.9684  -14311392.35149 -11139013.59647  21497167.5714   21497172.0364
       236.0004        195.0004
  20225497.8284  -24560287.30049 -19114728.15948  20225497.3104   20225502.4114
       240.0004        216.0004
  23292161.0344   -7354716.02649  -5716601.84945  23292162.0524   23292165.6774
       220.0004        155.0004
  21173334.9654  -21839357.75549 -16998541.70247  21173335.1754   21173337.2834
       239.0004        205.0004
  22948880.1824   -6937949.53149  -5388360.58946  22948880.6514   22948885.4034
       225.0004        176.0004
 06  5 10  0 54 30.0000000  0  8G24G 1G11G16G20G13G23G25
  23582519.8944   -8227167.91949  -6398088.53345  23582520.7614   23582527.4504
       214.0004        159.0004
  23087394.8544   -9137185.18749  -7101129.29146  23087394.6594   23087400.8844
       222.0004        170.0004
  24236370.8804   -1793227.76349  -1375984.37245  24236371.7994   24236379.1724
       208.0004        142.0004
  21492121.3804  -14337912.23749 -11159678.42947  21492121.4044   21492125.6264
       237.0004        196.0004
  20224228.2044  -24566959.30749 -19119927.13648  20224227.8684   20224232.8524
       239.0004        216.0004
  23279383.3014   -7421864.32949  -5768925.18845  23279384.2684   23279388.7564
       219.0004        156.0004
  21165823.6234  -21878830.24849 -17029299.47647  21165822.7664   21165826.2384
       238.0004        205.0004
  22964309.2574   -6856869.45249  -5325181.33146  22964309.0804   22964315.0654
       223.0004        175.0004
 06  5 10  0 55  0.0000000  0  8G24G 1G11G16G20G13G23G25
  23581750.0184   -8231214.22749  -6401241.50545  23581750.0244   23581757.2154
       214.0004        157.0004
  23097677.7994   -9083148.65349  -7059022.91946  23097677.3314   23097684.2284
       225.0004        170.0004
  24251030.0744   -1716193.65749  -1315957.89745  24251028.8324   24251036.8394
       204.0004        140.0004
  21487179.7834  -14363880.74449 -11179913.61147  21487179.4754   21487184.0474
       237.0004        196.0004
  20223062.2794  -24573086.16149 -19124701.30848  20223061.6164   20223066.7704
       239.0004        216.0004
  23266610.9814   -7488983.84649  -5821226.05245  23266611.1904   23266617.1934
       214.0004        155.0004
  21158338.0174  -21918166.88449 -17059951.38547  21158338.1474   21158340.1744
       240.0004        205.0004
  22979748.4384   -6775735.76149  -5261960.29846  22979748.3314   22979754.3304
       225.0004        174.0004
 06  5 10  0 55 30.0000000  0  8G24G 1G11G16G20G13G23G25
  23581073.6624   -8234767.41449  -6404010.23245  23581073.1834   23581081.2204
       215.0004        158.0004
  23107980.1114   -9029009.88949  -7016836.89046  23107979.6094   23107986.2854
       222.0004        169.0004
  24265681.2104   -1639199.53149  -1255962.57345  24265680.8894   24265687.7064
       204.0004        136.0004
  21482343.7924  -14389293.70249 -11199715.88847  21482343.3734   21482348.2944
       237.0004        197.0004
  20222000.6904  -24578664.14049 -19129047.78948  20222000.0814   20222005.1864
       239.0004        216.0004
  23253844.5024   -7556071.52049  -5873502.09145  23253845.2484   23253849.6254
       216.0004        154.0004
  21150879.0084  -21957364.49449 -17090494.97047  21150878.5024   21150881.2274
       238.0004        206.0004
  22995198.0084   -6694547.14149  -5198696.46946  22995197.7164   22995203.9714
       224.0004        174.0004
 06  5 10  0 56  0.0000000  0  8G24G 1G11G16G20G13G23G25
  23580490.8984   -8237829.21949  -6406396.06745  23580490.2364   23580498.5404
       217.0004        159.0004
  23118301.5684   -8974769.92949  -6974572.01946  23118300.4744   23118307.8154
       223.0004        168.0004
  24280324.4964   -1562249.48849  -1196001.67745  24280324.1314   24280331.5984
       203.0004        135.0004
  21477613.5064  -14414151.66249 -11219085.70047  21477613.4284   21477617.6054
       239.0004        197.0004
  20221043.4374  -24583694.02649 -19132967.18148  20221042.8434   20221047.8374
       239.0004        215.0004
  23241083.8734   -7623129.01649  -5925754.61445  23241083.5034   23241088.6264
       219.0004        155.0004
  21143446.2744  -21996423.47849 -17120930.52147  21143445.9574   21143448.5914
       240.0004        206.0004
  23010657.4664   -6613306.75049  -5135392.30446  23010657.2034   23010662.7174
       224.0004        173.0004
 06  5 10  0 56 30.0000000  0  8G24G 1G11G16G20G13G23G25
  23580001.6954   -8240400.15749  -6408399.40545  23580002.8344   23580009.3054
       217.0004        161.0004
  23128642.4874   -8920428.20849  -6932227.86746  23128641.8144   23128648.8034
       222.0004        168.0004
  24294958.5664   -1485346.22749  -1136077.19645  24294958.0514   24294967.9424
       201.0004        137.0004
  21472989.1784  -14438452.84449 -11238021.66547  21472988.9494   21472993.7134
       237.0004        198.0004
  20220190.7484  -24588174.79649 -19136458.70148  20220190.6534   20220195.3134
       238.0004        215.0004
  23228329.0454   -7690155.90249  -5977983.33345  23228329.8224   23228334.2454
       219.0004        157.0004
  21136040.1364  -22035343.64549 -17151257.91847  21136039.7344   21136042.0874
       238.0004        206.0004
  23026126.5794   -6532015.98449  -5072048.87046  23026127.1844   23026131.9024
       225.0004        174.0004
 06  5 10  0 57  0.0000000  0  8G24G 1G11G16G20G13G23G25
  23579605.6824   -8242481.85749  -6410021.51945  23579606.2084   23579611.8584
       218.0004        162.0004
  23139002.7134   -8865985.35349  -6889804.90846  23139001.8624   23139008.7744
       222.0004        167.0004
  24309582.9474   -1408493.11849  -1076191.76445  24309583.1564   24309592.2044
       201.0004        136.0004
  21468470.7934  -14462196.83549 -11256523.45847  21468470.5074   21468475.0424
       237.0004        197.0004
  20219442.5944  -24592106.61349 -19139522.45748  20219442.1314   20219447.0924
       238.0004        215.0004
  23215579.9574   -7757152.94149  -6030188.78345  23215580.7584   23215584.8654
       217.0004        157.0004
  21128660.2624  -22074124.87649 -17181477.03947  21128660.1634   21128662.0694
       239.0004        205.0004
  23041604.8494   -6450677.42049  -5008668.19146  23041605.1394   23041610.7014
       225.0004        174.0004
 06  5 10  0 57 30.0000000  0  8G24G 1G11G16G20G13G23G25
  23579303.0594   -8244072.44949  -6411260.95245  23579302.9384   23579311.0064
       216.0004        162.0004
  23149382.5654   -8811438.40549  -6847300.81746  23149382.8364   23149389.3194
       224.0004        168.0004
  24324198.0224   -1331689.88449  -1016345.24545  24324199.1474   24324206.8624
       205.0004        135.0004
  21464059.1484  -14485379.90349 -11274588.16547  21464058.9714   21464063.5124
       237.0004        197.0004
  20218799.5414  -24595485.95649 -19142155.72348  20218799.2274   20218804.1724
       238.0004        215.0004
  23202836.9574   -7824117.63549  -6082369.00245  23202836.6104   23202841.5364
       216.0004        156.0004
  21121307.4794  -22112763.90649 -17211585.36947  21121307.0634   21121309.6394
       238.0004        205.0004
  23057092.3364   -6369290.11749  -4945249.53346  23057092.9574   23057097.8714
       223.0004        173.0004
 06  5 10  0 58  0.0000000  0  8G24G 1G11G16G20G13G23G25
  23579093.1444   -8245175.34449  -6412120.38145  23579093.3234   23579101.3474
       216.0004        160.0004
  23159782.0184   -8756789.67649  -6804717.42546  23159782.1864   23159787.9534
       225.0004        169.0004
  24338802.7344   -1254941.99149   -956541.84445  24338803.2374   24338812.3914
       209.0004        138.0004
  21459754.0024  -14508003.69449 -11292217.07047  21459753.6524   21459758.5094
       238.0004        197.0004
  20218261.2734  -24598314.72049 -19144359.95548  20218260.7394   20218265.7904
       239.0004        215.0004
  23190099.7634   -7891052.66349  -6134526.11345  23190100.4384   23190104.1894
       220.0004        156.0004
  21113981.2624  -22151263.16949 -17241584.78347  21113981.2154   21113983.2664
       239.0004        205.0004
  23072588.3234   -6287858.51449  -4881796.34346  23072588.7194   23072593.6784
       225.0004        174.0004
 06  5 10  0 58 30.0000000  0  8G24G 1G11G16G20G13G23G25
  23578975.9684   -8245790.13849  -6412599.46845  23578976.5544   23578984.0204
       216.0004        159.0004
  23170201.1984   -8702037.51149  -6762053.44446  23170201.2034   23170207.0314
       223.0004        169.0004
  24353397.0984   -1178250.32049   -896782.22245  24353398.4834   24353406.5944
       213.0004        141.0004
  21455555.7564  -14530065.36649 -11309407.97047  21455555.3584   21455559.8354
       237.0004        197.0004
  20217828.1084  -24600591.09349 -19146133.75548  20217827.7194   20217832.8564
       239.0004        215.0004
  23177368.4434   -7957956.79949  -6186659.13345  23177368.3124   23177372.7794
       221.0004        157.0004
  21106682.0684  -22189620.91849 -17271473.92847  21106681.7784   21106683.6494
       239.0004        205.0004
  23088092.6034   -6206382.88949  -4818308.87046  23088092.6964   23088098.9454
       223.0004        174.0004
 06  5 10  0 59  0.0000000  0  8G24G 1G11G16G20G13G23G25
  23578951.8024   -8245918.38949  -6412699.42245  23578951.8514   23578959.0324
       220.0004        160.0004
  23180639.7574   -8647182.44649  -6719309.27946  23180639.6174   23180645.7944
       224.0004        168.0004
  24367980.2554   -1101618.71049   -837069.42445  24367980.5684   24367988.7644
       213.0004        141.0004
  21451464.3864  -14551565.17449 -11326161.03747  21451463.7614   21451468.7694
       239.0004        197.0004
  20217500.0054  -24602315.44749 -19147477.40248  20217499.5964   20217504.6324
       240.0004        215.0004
  23164642.7464   -8024830.37649  -6238768.35345  23164642.6924   23164647.7294
       221.0004        158.0004
  21099409.6654  -22227837.53749 -17301253.09247  21099409.6534   21099411.4764
       242.0004        205.0004
  23103604.7334   -6124865.78749  -4754789.07846  23103604.5274   23103610.6814
       224.0004        173.0004
 06  5 10  0 59 30.0000000  0  8G24G 1G11G16G20G13G23G25
  23579020.4474   -8245559.47549  -6412419.75945  23579020.5644   23579027.4944
       219.0004        160.0004
  23191098.2664   -8592222.65249  -6676483.50046  23191098.4474   23191103.9744
       224.0004        168.0004
  24382551.3524   -1025048.28449   -777404.30645  24382551.2914   24382558.1204
       208.0004        136.0004
  21447480.5844  -14572500.35249 -11342474.13947  21447480.3284   21447484.6644
       238.0004        197.0004
  20217277.3694  -24603485.35149 -19148389.01648  20217276.7014   20217281.9024
       237.0004        215.0004
  23151922.9864   -8091671.95949  -6290852.65845  23151922.3184   23151927.5384
       217.0004        157.0004
  21092164.6524  -22265910.59649 -17330920.39547  21092163.8494   21092166.0684
       238.0004        205.0004
  23119124.8224   -6043307.23349  -4691236.98946  23119124.9934   23119130.4854
       223.0004        174.0004
 06  5 10  1  0  0.0000000  0  8G24G 1G11G16G20G13G23G25
  23579181.1534   -8244714.85349  -6411761.63345  23579181.2524   23579188.0614
       219.0004        160.0004
  23201576.7064   -8537158.33049  -6633576.27146  23201576.1634   23201582.4904
       221.0004        167.0004
  24397109.9304    -948542.11349   -717789.27045  24397110.2624   24397118.2714
       211.0004        137.0004
  21443604.3514  -14592870.37249 -11358346.86247  21443603.7724   21443608.7714
       237.0004        198.0004
  20217160.1624  -24604101.00849 -19148868.76048  20217159.9914   20217164.5534
       238.0004        215.0004
  23139209.1234   -8158482.25749  -6342912.58545  23139209.7984   23139214.5294
       216.0004        156.0004
  21084946.8194  -22303840.17349 -17360475.90047  21084946.8254   21084948.5444
       239.0004        205.0004
  23134652.4174   -5961709.45049  -4627654.32846  23134652.7734   23134658.6824
       223.0004        174.0004
 06  5 10  1  0 30.0000000  0  8G24G 1G11G16G20G13G23G25
  23579434.4884   -8243384.00849  -6410724.63545  23579434.4574   23579442.0574
       219.0004        162.0004
  23212075.1764   -8481987.88249  -6590586.35646  23212074.1454   23212081.1764
       221.0004        166.0004
  24411656.2124    -872101.66549   -658225.45345  24411656.9724   24411665.6994
       208.0004        140.0004
  21439835.9314  -14612673.11149 -11373777.55547  21439835.4114   21439840.2674
       237.0004        197.0004
  20217148.8504  -24604160.70349 -19148915.28448  20217148.6294   20217153.4254
       238.0004        215.0004
  23126501.7714   -8225259.85849  -6394947.02545  23126501.4764   23126506.5844
       218.0004        156.0004
  21077756.7114  -22341624.64849 -17389918.33147  21077756.3034   21077758.6564
       238.0004        206.0004
  23150187.3824   -5880072.90949  -4564041.45546  23150187.1794   23150193.4714
       224.0004        175.0004
 06  5 10  1  1  0.0000000  0  8G24G 1G11G16G20G13G23G25
  23579779.9934   -8241568.74749  -6409310.16645  23579779.3984   23579786.5694
       217.0004        162.0004
  23222593.8234   -8426712.00349  -6547514.27346  23222593.7734   23222599.8104
       223.0004        165.0004
  24426189.3294    -795730.25949   -598715.41745  24426190.0414   24426197.7704
       212.0004        140.0004
  21436175.5594  -14631908.34449 -11388766.03447  21436175.1854   21436179.7944
       237.0004        197.0004
  20217243.3454  -24603664.31449 -19148528.49548  20217242.7944   20217247.7854
       239.0004        215.0004
  23113800.4014   -8292005.40649  -6446956.50145  23113800.7994   23113805.7964
       219.0004        158.0004
  21070594.0894  -22379264.24449 -17419247.87047  21070594.1414   21070595.7414
       240.0004        205.0004
  23165729.2084   -5798400.06449  -4500400.29746  23165729.1394   23165734.7764
       225.0004        174.0004
 06  5 10  1  1 30.0000000  0  8G24G 1G11G16G20G13G23G25
  23580217.2824   -8239270.31049  -6407519.19945  23580216.6164   23580224.0474
       217.0004        162.0004
  23233132.5884   -8371330.86149  -6504360.16546  23233132.2274   23233138.6074
       222.0004        165.0004
  24440708.9704    -719430.78849   -539261.45945  24440710.3684   24440716.1914
       212.0004        139.0004
  21432623.2004  -14650575.70649 -11403312.01347  21432622.9444   21432627.7434
       237.0004        197.0004
  20217443.6244  -24602611.72649 -19147708.30948  20217443.4454   20217448.2704
       239.0004        215.0004
  23101105.0404   -8358719.51149  -6498941.46545  23101106.4174   23101111.0094
       220.0004        160.0004
  21063459.2034  -22416758.57249 -17448464.21747  21063458.5114   21063461.3564
       238.0004        206.0004
  23181277.6004   -5716692.98649  -4436732.46546  23181277.5754   23181283.1494
       223.0004        172.0004
 06  5 10  1  2  0.0000000  0  8G24G 1G11G16G20G13G23G25
  23580746.5564   -8236488.34949  -6405351.47145  23580745.8694   23580753.2544
       218.0004        162.0004
  23243691.6264   -8315842.57549  -6461122.57746  23243691.4874   23243696.9244
       222.0004        165.0004
  24455214.4844    -643204.38149   -479864.43445  24455214.3874   24455223.4004
       212.0004        138.0004
  21429179.4494  -14668672.55749 -11417413.44547  21429179.3184   21429183.8124
       238.0004        198.0004
  20217750.1074  -24601001.56749 -19146453.65048  20217749.9834   20217754.5394
       239.0004        215.0004
  23088416.1874   -8425400.33349  -6550900.51645  23088416.3224   23088422.3554
       218.0004        160.0004
  21056352.0374  -22454106.15749 -17477566.21147  21056351.7514   21056354.0394
       240.0004        206.0004
  23196832.5704   -5634951.80849  -4373038.06146  23196832.8174   23196838.0124
       224.0004        171.0004
 06  5 10  1  2 30.0000000  0  8G24G 1G11G16G20G13G23G25
  23581367.6214   -8233224.97149  -6402808.62446  23581368.2084   23581375.2414
       220.0004        163.0004
  23254271.1014   -8260247.91949  -6417802.11146  23254270.9234   23254277.1374
       223.0004        166.0004
  24469705.2774    -567054.95549   -420527.36445  24469704.7364   24469715.6794
       211.0004        141.0004
  21425844.2694  -14686199.28249 -11431070.60147  21425844.0674   21425849.1844
       238.0004        199.0004
  20218162.6974  -24598834.18849 -19144764.78848  20218162.3774   20218166.7184
       239.0004        215.0004
  23075733.3184   -8492049.29749  -6602834.70345  23075733.9324   23075737.3454
       219.0004        158.0004
  21049272.9334  -22491307.34249 -17506554.13847  21049272.5124   21049275.0114
       239.0004        207.0004
  23212393.5164   -5553179.26849  -4309319.22546  23212393.6944   23212399.4924
       223.0004        170.0004
 06  5 10  1  3  0.0000000  0  8G24G 1G11G16G20G13G23G25
  23582080.4164   -8229480.08649  -6399890.55646  23582080.9054   23582087.0044
       221.0004        164.0004
  23264870.9324   -8204545.50649  -6374397.69846  23264869.8464   23264877.2334
       221.0004        165.0004
  24484180.9644    -490983.67649   -361251.19945  24484180.8744   24484191.3524
       211.0004        141.0004
  21422617.8684  -14703153.84749 -11444281.92647  21422617.5504   21422622.4634
       239.0004        200.0004
  20218681.4454  -24596108.00349 -19142640.49748  20218680.8094   20218685.7314
       239.0004        215.0004
  23063056.5194   -8558665.19349  -6654743.16245  23063056.5184   23063061.5664
       218.0004        159.0004
  21042221.9604  -22528360.21449 -17535426.47847  21042221.5134   21042224.1804
       240.0004        207.0004
  23227960.2294   -5471375.89449  -4245576.36446  23227960.2084   23227965.2774
       223.0004        171.0004
 06  5 10  1  3 30.0000000  0  8G24G 1G11G16G20G13G23G25
  23582884.5304   -8225254.32549  -6396597.76946  23582883.7194   23582891.6524
       219.0004        163.0004
  23275491.1754   -8148734.96349  -6330909.00146  23275490.9834   23275497.7454
       222.0004        165.0004
  24498641.4754    -414993.07349   -302037.91245  24498641.7834   24498648.9194
       211.0004        138.0004
  21419500.5914  -14719535.38549 -11457046.74947  21419500.6984   21419505.1824
       239.0004        199.0004
  20219306.6674  -24592822.32749 -19140080.24148  20219306.2064   20219311.3934
       240.0004        215.0004
  23050386.3314   -8625247.48249  -6706625.42745  23050387.1394   23050391.7174
       222.0004        159.0004
  21035199.4194  -22565263.91349 -17564182.60247  21035199.2654   21035201.3834
       241.0004        207.0004
  23243532.4374   -5389543.15649  -4181810.62446  23243532.1184   23243538.6594
       223.0004        170.0004
 06  5 10  1  4  0.0000000  0  8G24G 1G11G16G20G13G23G25
  23583779.6504   -8220549.28649  -6392931.52345  23583779.1094   23583787.2464
       214.0004        159.0004
  23286132.1684   -8092816.46649  -6287336.18246  23286131.9664   23286138.5904
       220.0004        164.0004
  24513086.1484    -339086.17649   -242889.87345  24513087.9124   24513093.9684
       213.0004        137.0004
  21416492.4184  -14735343.44949 -11469364.69947  21416492.0414   21416496.9134
       238.0004        199.0004
  20220038.3364  -24588977.31449 -19137084.13348  20220037.5494   20220042.5694
       239.0004        215.0004
  23037722.5114   -8691796.45349  -6758481.72645  23037722.9464   23037727.9784
       219.0004        160.0004
  21028205.2294  -22602018.64449 -17592822.63947  21028204.7774   21028207.4224
       240.0004        207.0004
  23259109.8764   -5307683.06449  -4118023.57546  23259110.1734   23259115.7884
       223.0004        170.0004
 06  5 10  1  4 30.0000000  0  8G24G 1G11G16G20G13G23G25
  23584766.0164   -8215365.62549  -6388892.34345  23584765.6664   23584773.7694
       217.0004        159.0004
  23296793.8214   -8036789.25549  -6243678.66646  23296794.8354   23296799.8214
       220.0004        163.0004
  24527514.8064    -263265.30549   -183808.88045  24527515.2454   24527523.4284
       208.0004        137.0004
  21413593.4544  -14750577.03849 -11481235.01947  21413593.2284   21413597.8464
       237.0004        199.0004
  20220876.5504  -24584572.26149 -19133651.64048  20220876.3394   20220880.6814
       240.0004        215.0004
  23025064.8684   -8758312.01749  -6810311.98645  23025065.6494   23025070.5564
       219.0004        160.0004
  21021239.4734  -22638623.58449 -17621345.96747  21021239.1294   21021241.8464
       240.0004        208.0004
  23274692.3964   -5225796.87249  -4054216.19046  23274693.0254   23274697.8664
       223.0004        169.0004
 06  5 10  1  5  0.0000000  0  8G24G 1G11G16G20G13G23G25
  23585843.1664   -8209704.76949  -6384481.31045  23585842.7014   23585850.4104
       218.0004        159.0004
  23307476.1804   -7980653.24549  -6199936.37345  23307475.9904   23307482.0864
       220.0004        162.0004
  24541926.1084    -187532.96249   -124796.85145  24541926.3284   24541935.2204
       210.0004        137.0004
  21410803.9974  -14765235.39749 -11492657.08947  21410803.8094   21410808.9334
       239.0004        199.0004
  20221821.4944  -24579606.94749 -19129782.56948  20221821.0754   20221825.8184
       240.0004        215.0004
  23012413.8544   -8824794.27649  -6862116.30545  23012413.6584   23012419.4264
       222.0004        161.0004
  21014302.4414  -22675078.06249 -17649752.04247  21014302.2914   21014304.1994
       242.0004        208.0004
  23290279.6614   -5143886.36649  -3990389.84346  23290279.8354   23290284.5774
       222.0004        168.0004
 06  5 10  1  5 30.0000000  0  8G24G 1G11G16G20G13G23G25
  23587011.0814   -8203566.44949  -6379698.23245  23587011.1124   23587018.9554
       217.0004        161.0004
  23318179.4024   -7924407.07249  -6156108.21545  23318179.1804   23318186.0744
       220.0004        162.0004
  24556320.6094    -111890.64949    -65854.98645  24556321.2234   24556328.2074
       213.0004        139.0004
  21408124.4494  -14779316.56049 -11503629.41547  21408124.2044   21408129.0184
       238.0004        199.0004
  20222873.2084  -24574079.97349 -19125475.85348  20222872.8364   20222877.3834
       240.0004        215.0004
  22999769.1904   -8891241.66049  -6913893.44645  22999769.0414   22999773.6554
       220.0004        161.0004
  21007394.3424  -22711380.38049 -17678039.56747  21007394.0844   21007396.1964
       241.0004        208.0004
  23305871.2124   -5061951.86649  -3926544.81446  23305871.3214   23305876.5634
       222.0004        167.0004
 06  5 10  1  6  0.0000000  0  8G24G 1G11G16G20G13G23G25
  23588269.6154   -8196953.15749  -6374545.03845  23588269.8814   23588276.4204
       219.0004        162.0004
  23328903.5974   -7868051.45649  -6112194.78446  23328903.5064   23328910.7494
       221.0004        164.0004
  24570697.4664     -36342.06049     -6986.15845  24570698.2204   24570704.4264
       209.0004        139.0004
  21405554.5894  -14792821.17249 -11514152.47247  21405554.4434   21405559.2584
       237.0004        199.0004
  20224031.6814  -24567992.31649 -19120732.23448  20224031.2644   20224036.0204
       239.0004        215.0004
  22987130.9564   -8957655.44249  -6965644.38345  22987130.3314   22987136.3424
       220.0004        160.0004
  21000515.1124  -22747531.06349 -17706208.91847  21000515.1364   21000517.2254
       241.0004        209.0004
  23321466.8124   -4979996.21649  -3862683.30246  23321466.6154   23321471.6724
       221.0004        168.0004
 06  5 10  1  6 30.0000000  0  8G24G 1G11G16G20G13G23G25
  23589618.5914   -8189864.75349  -6369021.62546  23589618.5274   23589626.4314
       216.0004        163.0004
  23339648.8484   -7811585.02449  -6068195.03546  23339648.9374   23339656.1074
       219.0004        165.0004
  24585055.7734      39111.29749     51808.48145  24585057.4694   24585064.4594
       208.0004        139.0004
  21403094.7334  -14805747.50749 -11524224.92747  21403094.4964   21403099.2534
       237.0004        199.0004
  20225297.0764  -24561342.48249 -19115550.56248  20225296.6584   20225301.3034
       239.0004        215.0004
  22974499.4204   -9024034.29549  -7017368.13745  22974499.9854   22974503.3974
       222.0004        161.0004
  20993665.0814  -22783528.55349 -17734258.90847  20993664.7584   20993666.4474
       241.0004        208.0004
  23337066.3524   -4898019.83649  -3798805.63446  23337066.7654   23337071.8474
       222.0004        168.0004
 06  5 10  1  7  0.0000000  0  8G24G 1G11G16G20G13G23G25
  23591057.5384   -8182302.79349  -6363129.22145  23591057.0814   23591065.1794
       216.0004        162.0004
  23350415.0174   -7755008.12249  -6024109.17846  23350415.2944   23350421.8284
       219.0004        166.0004
  24599395.6094     114466.78649    110526.85045  24599396.2724   24599403.7134
       207.0004        139.0004
  21400744.9744  -14818095.44449 -11533846.68647  21400744.9934   21400749.1774
       239.0004        199.0004
  20226669.5064  -24554130.73749 -19109931.02548  20226669.1984   20226673.8204
       240.0004        215.0004
  22961874.6784   -9090378.60949  -7069064.93446  22961875.7244   22961879.8644
       222.0004        163.0004
  20986844.1534  -22819372.58049 -17762189.31147  20986843.9104   20986846.0484
       241.0004        208.0004
  23352669.5414   -4816024.70649  -3734913.35046  23352669.4634   23352675.2274
       224.0004        169.0004
 06  5 10  1  7 30.0000000  0  8G24G 1G11G16G20G13G23G25
  23592586.5164   -8174267.95049  -6356868.34545  23592587.6414   23592593.7134
       219.0004        160.0004
  23361202.3174   -7698319.86249  -5979936.56046  23361202.3964   23361209.3704
       218.0004        165.0004
  24613716.0554     189722.21049    169167.25245  24613714.6604   24613725.0514
       207.0004        136.0004
  21398505.6284  -14829863.42749 -11543016.52247  21398505.4834   21398510.4964
       237.0004        199.0004
  20228148.9884  -24546355.91749 -19103872.73548  20228148.3744   20228153.3614
       239.0004        215.0004
  22949256.4694   -9156687.66949  -7120734.26646  22949256.3204   22949260.7064
       220.0004        163.0004
  20980052.7204  -22855061.67049 -17789998.98247  20980052.5624   20980054.5844
       241.0004        209.0004
  23368276.1564   -4734011.67549  -3671007.13546  23368276.0594   23368281.4014
       220.0004        169.0004
 06  5 10  1  8  0.0000000  0  8G24G 1G11G16G20G13G23G25
  23594205.3984   -8165761.87249  -6350240.26345  23594205.2924   23594213.2114
       221.0004        160.0004
  23372011.0864   -7641519.88649  -5935676.89146  23372011.2634   23372017.6174
       220.0004        166.0004
  24628017.3974     264875.23749    227727.86645  24628018.4184   24628027.3464
       203.0004        138.0004
  21396376.6484  -14841051.15749 -11551734.21447  21396376.1774   21396381.3224
       236.0004        199.0004
  20229735.6044  -24538018.12549 -19097375.75948  20229735.4464   20229740.0434
       239.0004        215.0004
  22936644.9654   -9222961.14049  -7172375.87746  22936645.6414   22936650.5924
       221.0004        163.0004
  20973290.8364  -22890595.53249 -17817687.70047  20973290.6534   20973292.7064
       240.0004        209.0004
  23383885.6714   -4651982.35649  -3607088.21746  23383885.6834   23383891.5284
       220.0004        168.0004
 06  5 10  1  8 30.0000000  0  8G24G 1G11G16G20G13G23G25
  23595913.7644   -8156785.27149  -6343245.50745  23595914.3484   23595920.5024
       218.0004        159.0004
  23382841.2154   -7584607.90249  -5891329.94746  23382841.8654   23382848.4774
       220.0004        165.0004
  24642298.4154     339923.44349    286206.80245  24642298.0424   24642308.9504
       200.0004        136.0004
  21394358.1914  -14851657.95349 -11559999.24047  21394358.3944   21394362.3254
       237.0004        199.0004
  20231429.4084  -24529117.08849 -19090439.89548  20231428.9134   20231433.6334
       239.0004        215.0004
  22924040.4944   -9289198.93249  -7223989.72546  22924041.4964   22924044.9124
       223.0004        165.0004
  20966558.6974  -22925973.43049 -17845254.88847  20966558.6334   20966560.7404
       241.0004        209.0004
  23399498.1334   -4569938.24549  -3543157.77446  23399498.3644   23399503.4404
       220.0004        167.0004
 06  5 10  1  9  0.0000000  0  8G24G 1G11G16G20G13G23G25
  23597711.0804   -8147339.44949  -6335885.17045  23597710.7354   23597720.1134
       218.0004        158.0004
  23393692.6044   -7527583.60849  -5846895.47646  23393691.7144   23393698.4674
       219.0004        163.0004
  24656558.9804     414864.02649    344601.85245  24656559.0794   24656570.1084
       201.0004        135.0004
  21392450.5584  -14861683.08549 -11567811.02147  21392450.3954   21392454.5834
       239.0004        199.0004
  20233230.4054  -24519652.60749 -19083064.98248  20233230.0364   20233234.7534
       239.0004        215.0004
  22911442.6804   -9355401.10249  -7275575.79346  22911441.9094   22911447.0994
       222.0004        165.0004
  20959856.3524  -22961194.74449 -17872700.06047  20959856.0544   20959858.4574
       241.0004        210.0004
  23415113.1824   -4487880.81949  -3479216.95146  23415113.4444   23415118.5784
       221.0004        166.0004
 06  5 10  1  9 30.0000000  0  8G24G 1G11G16G20G13G23G25
  23599597.9244   -8137424.19249  -6328159.01445  23599597.6294   23599605.3524
       217.0004        158.0004
  23404565.7074   -7470445.20149  -5802372.09245  23404565.3374   23404571.6174
       219.0004        162.0004
  24670799.3284     489696.22349    402912.47245  24670799.0414   24670810.1404
       205.0004        135.0004
  21390653.8634  -14871124.64849 -11575168.06847  21390653.4694   21390658.0414
       238.0004        199.0004
  20235139.0064  -24509623.04849 -19075249.74848  20235138.0954   20235143.5224
       239.0004        215.0004
  22898851.8484   -9421565.72649  -7327132.59046  22898851.8254   22898856.9794
       219.0004        164.0004
  20953184.2114  -22996257.11349 -17900021.38147  20953183.8434   20953185.8254
       242.0004        210.0004
  23430730.7694   -4405810.08049  -3415265.76446  23430731.2824   23430736.9684
       222.0004        167.0004
 06  5 10  1 10  0.0000000  0  8G24G 1G11G16G20G13G23G25
  23601573.4394   -8127042.79249  -6320069.64545  23601573.1714   23601580.7964
       218.0004        160.0004
  23415460.3614   -7413194.19649  -5757760.96146  23415459.6754   23415466.6114
       219.0004        163.0004
  24685018.9894     564415.63149    461135.09345  24685021.1954   24685028.3894
       205.0004        139.0004
  21388967.9444  -14879984.06449 -11582071.49347  21388967.8264   21388972.4564
       237.0004        199.0004
  20237154.7114  -24499030.08149 -19066995.50148  20237154.1404   20237159.3854
       238.0004        215.0004
  22886267.9104   -9487694.42749  -7378661.40746  22886268.0664   22886272.8984
       222.0004        165.0004
  20946542.0584  -23031161.98049 -17927219.97647  20946542.0614   20946543.7084
       241.0004        210.0004
  23446350.1934   -4323729.31749  -3351306.75846  23446349.8404   23446355.8904
       221.0004        167.0004
 06  5 10  1 10 30.0000000  0  8G24G 1G11G16G20G13G23G25
  23603637.7384   -8116195.51149  -6311617.25346  23603637.5724   23603644.9794
       221.0004        163.0004
  23426376.4984   -7355829.63849  -5713061.35546  23426375.9274   23426383.0954
       218.0004        163.0004
  24699215.7934     639020.56349    519268.64545  24699214.8094   24699225.8994
       200.0004        137.0004
  21387393.0644  -14888260.16949 -11588520.39147  21387393.2264   21387397.6444
       237.0004        200.0004
  20239277.8924  -24487872.82249 -19058301.53948  20239277.6604   20239282.5514
       238.0004        215.0004
  22873691.0654   -9553786.42549  -7430161.63446  22873691.7134   22873695.9334
       224.0004        166.0004
  20939930.2264  -23065907.65649 -17954294.52247  20939929.8384   20939932.3624
       240.0004        210.0004
  23461971.3564   -4241639.32849  -3287340.57046  23461971.6954   23461977.0864
       220.0004        166.0004
 06  5 10  1 11  0.0000000  0  8G24G 1G11G16G20G13G23G25
  23605790.4034   -8104882.83749  -6302802.21546  23605790.7414   23605798.4734
       222.0004        165.0004
  23437314.5634   -7298350.22249  -5668272.24946  23437315.2344   23437321.7054
       221.0004        164.0004
  24713390.5844     713509.72049    577311.96945  24713393.1344   24713401.8684
       206.0004        137.0004
  21385929.4544  -14895951.25949 -11594513.43047  21385929.0394   21385933.5344
       237.0004        199.0004
  20241508.6304  -24476150.52549 -19049167.28548  20241507.9964   20241513.0494
       239.0004        215.0004
  22861121.4044   -9619840.51449  -7481632.30646  22861121.4754   22861126.5624
       224.0004        166.0004
  20933348.8254  -23100492.68149 -17981243.87247  20933348.3154   20933350.6324
       241.0004        209.0004
  23477594.1794   -4159540.54749  -3223367.52146  23477594.2404   23477600.3694
       221.0004        166.0004
 06  5 10  1 11 30.0000000  0  8G24G 1G11G16G20G13G23G25
  23608031.2484   -8093106.88449  -6293626.16646  23608030.9404   23608039.0314
       220.0004        164.0004
  23448274.4144   -7240756.21349  -5623393.83346  23448273.9384   23448281.1424
       219.0004        164.0004
  24727543.5764     787879.86549    635262.45545  24727544.7174   24727552.8324
       203.0004        135.0004
  21384577.0694  -14903057.66549 -11600050.87547  21384576.8854   21384581.3534
       238.0004        199.0004
  20243846.7324  -24463863.60549 -19039593.06948  20243846.3174   20243851.4174
       239.0004        215.0004
  22848558.8174   -9685857.25149  -7533073.86146  22848558.3424   22848563.8374
       223.0004        166.0004
  20926798.1294  -23134916.78149 -18008067.84847  20926797.8194   20926799.8874
       240.0004        209.0004
  23493218.3694   -4077434.99949  -3159389.21446  23493219.0334   23493225.0244
       221.0004        166.0004
 06  5 10  1 12  0.0000000  0  8G24G 1G11G16G20G13G23G25
  23610359.9134   -8080868.93149  -6284090.13245  23610359.0094   23610367.5794
       215.0004        161.0004
  23459256.0864   -7183047.23249  -5578425.85246  23459255.7854   23459262.5794
       219.0004        164.0004
  24741673.0154     862128.86649    693118.60445  24741672.7964   24741681.7624
       201.0004        132.0004
  21383336.0794  -14909579.16349 -11605132.54947  21383336.1044   21383340.7554
       238.0004        200.0004
  20246292.2974  -24451011.92649 -19029578.77748  20246291.6944   20246296.6324
       239.0004        215.0004
  22836003.3334   -9751836.11949  -7584485.93046  22836003.6344   22836007.2554
       223.0004        166.0004
  20920278.1234  -23169179.40849 -18034765.97847  20920277.5734   20920280.2104
       240.0004        209.0004
  23508843.5834   -3995324.16749  -3095406.77746  23508843.9464   23508850.1424
       219.0004        165.0004
 06  5 10  1 12 30.0000000  0  7G24G 1G16G20G13G23G25
  23612777.6054   -8068163.34249  -6274189.70445  23612777.0454   23612785.8074
       216.0004        159.0004
  23470261.0104   -7125216.11849  -5533362.70246  23470260.7774   23470268.3924
       217.0004        163.0004
  21382207.7744  -14915508.42149 -11609752.74147  21382207.9254   21382212.4674
       238.0004        200.0004
  20248846.6694  -24437588.66249 -19019119.10348  20248846.3454   20248851.0214
       239.0004        215.0004
  22823456.4054   -9817770.27149  -7635863.17546  22823456.9904   22823461.2424
       222.0004        167.0004
  20913790.2384  -23203273.02249 -18061332.43447  20913789.7354   20913791.5344
       240.0004        209.0004
  23524470.7414   -3913202.49049  -3031415.91146  23524471.0184   23524476.5814
       218.0004        164.0004
 06  5 10  1 13  0.0000000  0  7G24G 1G16G20G13G23G25
  23615282.6904   -8054998.86949  -6263931.69945  23615283.1604   23615290.7954
       214.0004        157.0004
  23481287.7394   -7067269.81549  -5488209.79646  23481287.6834   23481295.0774
       219.0004        164.0004
  21381190.9334  -14920852.17049 -11613916.67847  21381190.7004   21381195.4284
       238.0004        201.0004
  20251508.4684  -24423600.82849 -19008219.49848  20251508.0534   20251512.8074
       239.0004        214.0004
  22810916.5764   -9883666.53749  -7687210.86946  22810916.2514   22810921.1944
       222.0004        167.0004
  20907333.2834  -23237204.00749 -18087772.15747  20907333.0454   20907334.9024
       239.0004        208.0004
  23540098.4304   -3831078.60949  -2967423.31946  23540098.4194   23540104.4554
       220.0004        165.0004
 06  5 10  1 13 30.0000000  0  8G24G27G 1G16G20G13G23G25
  23617873.6514   -8041383.45649  -6253322.31645  23617873.5764   23617880.7884
       216.0004        155.0004
  24761350.6374   -2124008.96149  -1645955.22745  24761349.9444   24761360.0044
       204.0004        139.0004
  23492335.4284   -7009214.68949  -5442972.07946  23492335.2454   23492342.1984
       220.0004        164.0004
  21380284.2244  -14925616.86149 -11617629.40147  21380283.9474   21380288.1004
       238.0004        199.0004
  20254276.4694  -24409055.11349 -18996885.17648  20254275.8574   20254280.2604
       240.0004        214.0004
  22798382.7554   -9949531.30649  -7738534.00646  22798383.1584   22798387.5244
       224.0004        167.0004
  20900906.2754  -23270978.33449 -18114089.79247  20900905.8844   20900908.0664
       242.0004        209.0004
  23555725.1324   -3748960.72749  -2903435.38946  23555725.9104   23555731.2594
       222.0004        166.0004
 06  5 10  1 14  0.0000000  0  8G24G27G 1G16G20G13G23G25
  23620551.3794   -8027312.00249  -6242357.58845  23620551.2034   23620559.2164
       215.0004        155.0004
  24747198.5174   -2198377.32049  -1703904.39445  24747197.4024   24747207.9984
       204.0004        142.0004
  23503405.0834   -6951043.77449  -5397644.13845  23503404.7814   23503411.6024
       216.0004        162.0004
  21379488.9724  -14929795.62849 -11620885.57647  21379488.6584   21379493.2024
       237.0004        198.0004
  20257151.8144  -24393945.14749 -18985111.18148  20257151.3764   20257156.1144
       239.0004        214.0004
  22785856.2324  -10015357.81049  -7789827.36146  22785856.3304   22785860.9214
       224.0004        168.0004
  20894510.5474  -23304588.41749 -18140279.46247  20894510.3814   20894511.8234
       240.0004        208.0004
  23571351.6694   -3666843.58249  -2839448.03346  23571351.8734   23571357.8024
       221.0004        166.0004
 06  5 10  1 14 30.0000000  0  8G24G27G 1G16G20G13G23G25
  23623316.3194   -8012783.07549  -6231036.37745  23623317.2684   23623323.8454
       219.0004        157.0004
  24733080.6814   -2272565.18449  -1761712.87045  24733079.0064   24733090.0174
       204.0004        140.0004
  23514497.1894   -6892753.88949  -5352223.50445  23514496.5034   23514503.6314
       216.0004        160.0004
  21378805.9884  -14933384.95549 -11623682.44747  21378805.5814   21378810.2164
       237.0004        199.0004
  20260135.0664  -24378268.16049 -18972895.34648  20260134.4014   20260139.1814
       239.0004        215.0004
  22773337.9264  -10081142.76549  -7841088.33846  22773338.3764   22773343.0584
       225.0004        169.0004
  20888146.6444  -23338030.77049 -18166338.43147  20888146.0574   20888148.4644
       239.0004        208.0004
  23586978.3174   -3584725.53149  -2775459.96746  23586978.5854   23586984.7234
       218.0004        163.0004
 06  5 10  1 15  0.0000000  0  8G24G27G 1G16G20G13G23G25
  23626168.2194   -7997796.76749  -6219358.75445  23626168.2944   23626176.0494
       220.0004        160.0004
  24718997.4714   -2346570.99449  -1819379.48745  24718996.2254   24719006.0084
       199.0004        137.0004
  23525612.2554   -6834343.49049  -5306708.94445  23525612.3574   23525618.7044
       217.0004        159.0004
  21378235.3564  -14936383.53149 -11626018.99447  21378235.0464   21378239.9364
       237.0004        199.0004
  20263226.4084  -24362022.98249 -18960236.77948  20263225.8614   20263230.6614
       239.0004        215.0004
  22760827.6624  -10146884.72349  -7892315.79246  22760828.3364   22760833.0794
       225.0004        170.0004
  20881814.9994  -23371303.42549 -18192265.16447  20881814.8904   20881817.1694
       241.0004        208.0004
  23602604.8964   -3502606.70549  -2711471.29245  23602604.6674   23602611.3124
       217.0004        161.0004
 06  5 10  1 15 30.0000000  0  8G24G27G 1G16G20G13G23G25
  23629106.3154   -7982356.91149  -6207327.73046  23629107.3694   23629114.7884
       220.0004        164.0004
  24704948.4394   -2420397.14849  -1876906.16445  24704948.2204   24704958.0074
       198.0004        135.0004
  23536749.8514   -6775814.75249  -5261102.18445  23536749.7974   23536756.8424
       216.0004        160.0004
  21377776.8264  -14938793.20649 -11627896.65047  21377776.8434   21377781.6674
       238.0004        200.0004
  20266425.4034  -24345212.14349 -18947137.43348  20266425.1564   20266429.7984
       239.0004        215.0004
  22748325.1214  -10212585.90849  -7943511.48846  22748325.5824   22748330.2634
       225.0004        170.0004
  20875515.3784  -23404408.27649 -18218061.15347  20875514.9024   20875516.9724
       239.0004        208.0004
  23618230.7704   -3420490.93449  -2647485.01845  23618230.5094   23618237.7364
       217.0004        161.0004
 06  5 10  1 16  0.0000000  0  8G24G27G 1G16G20G13G23G25
  23632130.6764   -7966464.39149  -6194943.98146  23632131.1364   23632138.6384
       221.0004        165.0004
  24690933.9834   -2494042.51249  -1934291.94945  24690933.7924   24690943.7354
       201.0004        137.0004
  23547910.2374   -6717166.57649  -5215402.35845  23547910.1114   23547916.7084
       219.0004        160.0004
  21377430.3304  -14940613.82649 -11629315.29347  21377430.0734   21377434.6974
       238.0004        199.0004
  20269732.1874  -24327834.92549 -18933596.74748  20269731.7774   20269736.4884
       240.0004        215.0004
  22735830.5594  -10278245.22149  -7994674.54846  22735830.6824   22735835.6654
       227.0004        171.0004
  20869247.9544  -23437343.49049 -18243724.94247  20869247.7104   20869250.1614
       242.0004        208.0004
  23633856.2394   -3338378.74149  -2583501.52645  23633856.6514   23633862.7834
       216.0004        161.0004
 06  5 10  1 16 30.0000000  0  8G24G27G 1G16G20G13G23G25
  23635240.8464   -7950120.69849  -6182208.67846  23635241.0334   23635248.8444
       219.0004        165.0004
  24676954.1344   -2567506.91549  -1991536.74545  24676953.3614   24676962.8934
       203.0004        139.0004
  23559093.4384   -6658398.93249  -5169609.45045  23559093.5094   23559100.6524
       220.0004        161.0004
  21377196.0404  -14941845.22649 -11630274.81847  21377196.1154   21377200.1844
       238.0004        199.0004
  20273146.7014  -24309891.70149 -18919615.02948  20273146.2034   20273151.0014
       240.0004        215.0004
  22723344.0814  -10343862.44549  -8045804.81646  22723343.9064   22723349.5674
       226.0004        170.0004
  20863013.0784  -23470108.54149 -18269256.14647  20863012.7474   20863015.2754
       242.0004        210.0004
  23649480.6904   -3256271.82349  -2519522.14945  23649481.1454   23649487.3464
       217.0004        161.0004
 06  5 10  1 17  0.0000000  0  8G24G27G 1G16G20G13G23G25
  23638436.4354   -7933328.11349  -6169123.56146  23638436.6414   23638444.3494
       219.0004        165.0004
  24663008.5314   -2640791.26349  -2048641.20345  24663008.4554   24663016.5074
       204.0004        138.0004
  23570299.1454   -6599512.26549  -5123723.77945  23570299.1214   23570305.5594
       219.0004        162.0004
  21377073.7594  -14942487.67749 -11630775.41847  21377073.5604   21377077.6124
       238.0004        199.0004
  20276668.7034  -24291383.37049 -18905192.96248  20276668.0754   20276672.8374
       240.0004        215.0004
  22710865.5534  -10409438.05649  -8096902.65846  22710865.7954   22710869.9384
       227.0004        171.0004
  20856810.4404  -23502703.35449 -18294654.68647  20856810.0714   20856811.9064
       243.0004        209.0004
  23665103.8014   -3174172.07649  -2455548.36145  23665104.1994   23665110.1474
       218.0004        162.0004
 06  5 10  1 17 30.0000000  0  8G24G27G 1G16G20G13G23G25
  23641717.1784   -7916087.99649  -6155689.73646  23641717.0604   23641724.4524
       218.0004        163.0004
  24649097.5634   -2713894.24349  -2105604.31445  24649096.2864   24649105.0584
       206.0004        136.0004
  23581527.7644   -6540505.66349  -5077744.68546  23581528.4184   23581535.3364
       220.0004        163.0004
  21377063.7404  -14942540.37749 -11630816.46947  21377063.5174   21377068.2504
       237.0004        199.0004
  20280298.3144  -24272309.54049 -18890330.25548  20280297.9624   20280302.6254
       239.0004        215.0004
  22698394.9914  -10474970.94349  -8147967.20746  22698395.6584   22698399.9024
       226.0004        172.0004
  20850640.4954  -23535126.49549 -18319919.46947  20850640.3424   20850643.0194
       241.0004        210.0004
  23680725.3934   -3092080.22049  -2391580.72546  23680725.9354   23680731.7024
       218.0004        164.0004
 06  5 10  1 18  0.0000000  0  8G24G27G 1G16G20G13G23G25
  23645082.9344   -7898401.33349  -6141907.94845  23645083.3394   23645089.5734
       219.0004        161.0004
  24635220.7984   -2786815.47049  -2162425.83445  24635220.0924   24635228.9734
       206.0004        138.0004
  23592779.4174   -6481378.43649  -5031671.58046  23592779.5394   23592786.0514
       218.0004        163.0004
  21377165.9784  -14942002.95049 -11630397.67947  21377165.7764   21377170.2524
       237.0004        199.0004
  20284035.5514  -24252669.99749 -18875026.73248  20284034.9954   20284040.0124
       239.0004        214.0004
  22685932.6954  -10540460.71149  -8198998.16546  22685932.5664   22685937.8694
       225.0004        173.0004
  20844503.4224  -23567376.92449 -18345049.65847  20844502.9614   20844505.6194
       241.0004        210.0004
  23696345.3024   -3009997.21349  -2327619.99046  23696345.4214   23696351.6984
       219.0004        165.0004
 06  5 10  1 18 30.0000000  0  8G24G27G 1G16G20G13G23G25
  23648533.3174   -7880269.71549  -6127779.43445  23648532.9614   23648541.5624
       219.0004        158.0004
  24621378.9084   -2859554.77149  -2219105.58945  24621378.6744   24621387.8274
       205.0004        140.0004
  23604054.1384   -6422130.13049  -4985504.12745  23604053.6844   23604060.3804
       216.0004        161.0004
  21377380.5074  -14940875.61449 -11629519.21747  21377380.1884   21377384.6424
       239.0004        199.0004
  20287880.4444  -24232464.98449 -18859282.57648  20287880.0734   20287884.9954
       240.0004        215.0004
  22673478.7284  -10605906.90749  -8249995.16246  22673478.4084   22673483.5944
       226.0004        172.0004
  20838399.3804  -23599453.87449 -18370044.67347  20838399.1564   20838400.9294
       242.0004        210.0004
  23711963.2804   -2927924.31649  -2263667.12346  23711963.7094   23711969.7324
       219.0004        166.0004
 06  5 10  1 19  0.0000000  0  8G24G27G 1G16G20G13G23G25
  23652067.8274   -7861695.15349  -6113305.73945  23652069.1334   23652075.3314
       219.0004        157.0004
  24607571.6364   -2932111.96049  -2275643.47845  24607571.1934   24607579.3134
       199.0004        139.0004
  23615351.8714   -6362760.68449  -4939242.27745  23615351.8124   23615358.0824
       215.0004        160.0004
  21377707.2684  -14939158.47949 -11628181.18347  21377707.3814   21377711.8354
       238.0004        199.0004
  20291832.8574  -24211695.29349 -18843098.41948  20291832.5374   20291837.6854
       239.0004        215.0004
  22661033.0124  -10671309.35749  -8300958.09346  22661033.8434   22661037.8004
       227.0004        171.0004
  20832328.5664  -23631356.50049 -18394903.85747  20832328.5094   20832330.7854
       241.0004        210.0004
  23727578.9784   -2845863.14349  -2199723.39046  23727579.3294   23727585.0584
       219.0004        167.0004
 06  5 10  1 19 30.0000000  0  8G24G27G 1G16G20G13G23G25
  23655686.5984   -7842678.18049  -6098487.31745  23655687.0294   23655695.1134
       221.0004        158.0004
  24593799.2374   -3004485.99249  -2332038.68745  24593799.0574   24593808.1124
       200.0004        139.0004
  23626672.5524   -6303269.18049  -4892885.31645  23626672.1254   23626679.2144
       214.0004        159.0004
  21378146.5164  -14936850.41449 -11626382.68447  21378146.3674   21378150.7554
       238.0004        199.0004
  20295892.7794  -24190360.34949 -18826473.80248  20295892.2664   20295897.3274
       240.0004        215.0004
  22648595.8524  -10736667.08949  -8351886.18546  22648596.1434   22648600.0744
       226.0004        171.0004
  20826291.0384  -23663083.57049 -18419626.22947  20826290.8394   20826292.7754
       242.0004        210.0004
  23743192.3884   -2763814.15549  -2135789.15046  23743192.8204   23743198.3504
       218.0004        167.0004
 06  5 10  1 20  0.0000000  0  8G24G27G 1G16G20G13G23G25
  23659389.4274   -7823220.56849  -6083325.55245  23659390.3354   23659396.8464
       219.0004        159.0004
  24580061.6594   -3076677.07749  -2388291.34645  24580061.0684   24580069.3064
       207.0004        141.0004
  23638016.6084   -6243655.46249  -4846433.11745  23638016.8714   23638024.2154
       214.0004        158.0004
  21378697.9664  -14933952.00149 -11624124.17447  21378697.5364   21378702.3774
       236.0004        199.0004
  20300060.1214  -24168460.55449 -18809409.04348  20300059.8314   20300064.7554
       239.0004        215.0004
  22636167.2014  -10801979.82149  -8402779.18446  22636167.4074   22636171.9944
       225.0004        171.0004
  20820287.2164  -23694634.38949 -18444211.28947  20820287.1354   20820288.8774
       242.0004        210.0004
  23758803.2634   -2681778.77249  -2071865.51646  23758803.9124   23758809.5304
       219.0004        166.0004
 06  5 10  1 20 30.0000000  0  8G24G27G 1G16G20G13G23G25
  23663175.4934   -7803324.68949  -6067822.31245  23663175.6944   23663183.4924
       215.0004        158.0004
  24566358.8534   -3148685.88949  -2444401.89845  24566357.3454   24566367.4484
       206.0004        144.0004
  23649384.1564   -6183919.72849  -4799885.85345  23649385.0914   23649390.6434
       216.0004        158.0004
  21379361.6964  -14930463.45349 -11621405.79847  21379361.3664   21379365.9334
       237.0004        199.0004
  20304334.8014  -24145996.95949 -18791904.94948  20304334.5124   20304339.3894
       240.0004        215.0004
  22623746.9964  -10867247.77749  -8453637.28946  22623746.9164   22623751.7164
       226.0004        172.0004
  20814316.8184  -23726008.59349 -18468658.69747  20814316.1994   20814318.7234
       241.0004        210.0004
  23774411.4124   -2599758.79349  -2007953.87946  23774411.7974   23774417.7544
       219.0004        165.0004
 06  5 10  1 21  0.0000000  0  8G24G27G 1G16G20G13G23G25
  23667044.9624   -7782990.62449  -6051977.64645  23667044.6064   23667052.8184
       212.0004        157.0004
  24552690.8064   -3220510.47349  -2500368.87945  24552690.7064   24552700.1534
       211.0004        145.0004
  23660775.1804   -6124060.12249  -4753242.06345  23660775.5864   23660781.7134
       215.0004        157.0004
  21380138.0914  -14926383.48049 -11618226.58347  21380137.9484   21380142.6204
       237.0004        199.0004
  20308717.1024  -24122968.09449 -18773960.39848  20308716.6984   20308721.7144
       239.0004        215.0004
  22611335.8494  -10932468.92049  -8504458.94646  22611335.2684   22611340.2244
       225.0004        172.0004
  20808380.6294  -23757203.61449 -18492966.50147  20808380.4284   20808382.3744
       242.0004        210.0004
  23790016.4494   -2517753.86749  -1944053.97146  23790016.6844   23790022.6054
       216.0004        163.0004
 06  5 10  1 21 30.0000000  0  8G24G27G 1G16G20G13G23G25
  23670997.2384   -7762221.73249  -6035794.12445  23670997.3994   23671003.9784
       211.0004        155.0004
  24539057.9144   -3292152.24249  -2556193.48045  24539057.4644   24539065.8604
       208.0004        145.0004
  23672189.3244   -6064078.10749  -4706502.85845  23672188.7454   23672196.3714
       215.0004        156.0004
  21381026.6394  -14921713.72349 -11614587.79847  21381026.6834   21381031.2244
       237.0004        199.0004
  20313206.6134  -24099375.94749 -18755576.92648  20313206.4204   20313211.1214
       240.0004        215.0004
  22598933.2234  -10997644.51749  -8555245.11446  22598933.6344   22598939.0644
       225.0004        171.0004
  20802478.2144  -23788220.53649 -18517135.52747  20802477.8144   20802480.0634
       241.0004        209.0004
  23805617.8504   -2435766.88949  -1880168.06545  23805617.6144   23805624.4424
       214.0004        160.0004
 06  5 10  1 22  0.0000000  0  8G24G27G 1G16G20G13G23G25
  23675032.0664   -7741017.70649  -6019271.56845  23675031.5274   23675039.4294
       212.0004        154.0004
  24525460.0234   -3363609.19949  -2611874.07145  24525459.9874   24525467.8514
       209.0004        142.0004
  23683627.2894   -6003971.33849  -4659666.45345  23683626.9964   23683633.6324
       216.0004        156.0004
  21382027.8524  -14916452.51549 -11610488.13947  21382027.6004   21382032.1224
       237.0004        199.0004
  20317803.5134  -24075219.61049 -18736753.81848  20317803.0784   20317807.5764
       240.0004        215.0004
  22586539.5534  -11062772.60049  -8605994.23846  22586539.6444   22586544.5614
       225.0004        171.0004
  20796610.3134  -23819056.54049 -18541163.57247  20796609.9174   20796612.2324
       241.0004        210.0004
  23821215.9244   -2353797.29149  -1816295.68145  23821215.1864   23821222.0784
       215.0004        159.0004
 06  5 10  1 22 30.0000000  0  8G24G27G 1G16G20G13G23G25
  23679149.4924   -7719381.13649  -6002411.93145  23679149.3564   23679156.6634
       214.0004        154.0004
  24511897.0054   -3434881.65549  -2667410.90045  24511896.2374   24511904.1124
       210.0004        141.0004
  23695089.0324   -5943740.34649  -4612733.24645  23695089.3814   23695096.0494
       219.0004        158.0004
  21383141.4264  -14910600.53449 -11605928.14647  21383141.2394   21383145.7734
       239.0004        199.0004
  20322507.5084  -24050499.81149 -18717491.65948  20322507.0014   20322511.8964
       240.0004        215.0004
  22574155.0954  -11127852.98649  -8656706.21046  22574154.7984   22574161.1544
       227.0004        172.0004
  20790776.8714  -23849711.33849 -18565050.42047  20790776.6154   20790778.6284
       243.0004        210.0004
  23836810.4954   -2271846.92849  -1752438.29045  23836810.9894   23836817.4064
       216.0004        158.0004
 06  5 10  1 23  0.0000000  0  8G24G27G 1G16G20G13G23G25
  23683348.8304   -7697314.05749  -5985216.84045  23683349.1194   23683356.5494
       216.0004        155.0004
  24498369.1804   -3505969.97949  -2722804.23545  24498368.4924   24498377.2874
       213.0004        142.0004
  23706574.3024   -5883385.24549  -4565703.33945  23706573.3514   23706581.4504
       218.0004        158.0004
  21384367.3154  -14904158.60149 -11600908.45547  21384367.5104   21384371.9324
       239.0004        199.0004
  20327318.5504  -24025217.33749 -18697791.04548  20327318.0714   20327323.0424
       241.0004        215.0004
  22561779.7314  -11192885.84849  -8707381.15046  22561779.9054   22561784.9324
       226.0004        173.0004
  20784978.0554  -23880184.52649 -18588795.75647  20784977.7894   20784980.3994
       243.0004        210.0004
  23852401.4354   -2189917.35249  -1688597.09445  23852400.9164   23852407.2974
       217.0004        157.0004
 06  5 10  1 23 30.0000000  0  8G24G27G 1G16G20G13G23G25
  23687629.6434   -7674818.11049  -5967687.56345  23687629.4954   23687637.0884
       216.0004        157.0004
  24484876.6234   -3576873.67449  -2778053.76245  24484877.0824   24484885.0454
       210.0004        144.0004
  23718083.2434   -5822905.31749  -4518576.17545  23718082.9234   23718090.3084
       216.0004        156.0004
  21385705.5594  -14897126.37949 -11595428.79547  21385705.2144   21385709.8334
       237.0004        199.0004
  20332236.5924  -23999372.71849 -18677652.39948  20332235.9864   20332241.0234
       240.0004        214.0004
  22549413.6154  -11257870.40249  -8758018.45146  22549413.6764   22549418.9554
       228.0004        173.0004
  20779213.9824  -23910474.68649 -18612398.47947  20779213.6504   20779215.9934
       243.0004        211.0004
  23867988.2124   -2108009.36749  -1624772.72545  23867988.2364   23867994.1694
       215.0004        157.0004
 06  5 10  1 24  0.0000000  0  8G24G27G 1G16G20G13G23G25
  23691991.7584   -7651894.27749  -5949824.87145  23691991.8354   23691998.9954
       218.0004        159.0004
  24471419.3674   -3647591.97449  -2833158.81145  24471418.2904   24471427.7444
       211.0004        148.0004
  23729616.0894   -5762299.45449  -4471350.88045  23729615.2194   23729623.7084
       217.0004        155.0004
  21387156.0744  -14889503.49449 -11589488.87647  21387155.4304   21387160.6264
       236.0004        198.0004
  20337261.7314  -23972965.26649 -18657075.18048  20337261.3474   20337266.2144
       240.0004        214.0004
  22537056.9644  -11322805.53249  -8808617.24046  22537057.8204   22537061.6424
       227.0004        173.0004
  20773485.0774  -23940580.58349 -18635857.62647  20773485.1264   20773486.8754
       242.0004        211.0004
  23883570.7244   -2026123.46949  -1560965.57345  23883570.9684   23883576.7344
       216.0004        158.0004
 06  5 10  1 24 30.0000000  0  8G24G27G 1G16G20G13G23G25
  23696435.1874   -7628544.37549  -5931630.17545  23696435.5694   23696442.8474
       220.0004        161.0004
  24457997.3254   -3718124.96649  -2888119.47145  24457996.3114   24458005.3494
       213.0004        149.0004
  23741172.8484   -5701567.87649  -4424027.60645  23741172.0394   23741180.2504
       218.0004        154.0004
  21388718.9054  -14881290.28249 -11583088.95547  21388718.2484   21388723.4544
       236.0004        198.0004
  20342393.8084  -23945996.04849 -18636060.21248  20342393.1644   20342398.4784
       239.0004        214.0004
  22524709.6844  -11387691.07449  -8859177.38146  22524710.0884   22524714.6694
       227.0004        174.0004
  20767791.2924  -23970501.45749 -18659172.58347  20767790.8084   20767793.4614
       242.0004        211.0004
  23899148.7074   -1944261.18549  -1497176.83945  23899148.7244   23899154.7964
       216.0004        159.0004
 06  5 10  1 25  0.0000000  0  8G24G27G 1G16G20G13G23G25
  23700959.2664   -7604770.35249  -5913104.99046  23700958.8084   23700966.8154
       221.0004        163.0004
  24444610.6234   -3788472.78249  -2942935.82445  24444610.0994   24444618.7464
       213.0004        150.0004
  23752753.7134   -5640710.38249  -4376606.21045  23752752.8714   23752761.0784
       216.0004        154.0004
  21390394.0694  -14872486.88549 -11576229.15747  21390393.7894   21390398.5254
       235.0004        197.0004
  20347632.5614  -23918465.95849 -18614608.20848  20347632.0974   20347637.2794
       239.0004        214.0004
  22512371.8744  -11452526.78549  -8909698.68846  22512372.2194   22512376.3954
       227.0004        174.0004
  20762132.8574  -24000236.54249 -18682342.78947  20762132.9744   20762134.6914
       243.0004        211.0004
  23914721.9914   -1862423.71449  -1433407.44345  23914722.5824   23914728.3574
       215.0004        159.0004
 06  5 10  1 25 30.0000000  0  8G24G27G 1G16G20G13G23G25
  23705563.6754   -7580574.10549  -5894250.80245  23705563.3204   23705571.6574
       219.0004        162.0004
  24431259.0874   -3858635.23049  -2997607.70945  24431258.4524   24431266.5294
       212.0004        146.0004
  23764358.6244   -5579726.56249  -4329086.41345  23764357.7474   23764365.4904
       219.0004        154.0004
  21392181.3964  -14863094.16649 -11568910.14047  21392181.3614   21392186.2584
       237.0004        198.0004
  20352978.0904  -23890375.03249 -18592719.18048  20352977.7574   20352982.7174
       241.0004        214.0004
  22500043.6564  -11517311.91349  -8960180.58346  22500043.7644   22500048.8854
       227.0004        174.0004
  20756510.0014  -24029784.90949 -18705367.48447  20756509.5274   20756511.9044
       243.0004        211.0004
  23930290.1114   -1780612.20849  -1369658.25345  23930289.7854   23930295.2574
       214.0004        158.0004
 06  5 10  1 26  0.0000000  0  8G24G27G 1G16G20G13G23G25
  23710248.1244   -7555956.66749  -5875068.40745  23710248.2074   23710255.7924
       219.0004        160.0004
  24417942.7424   -3928611.43149  -3052134.50045  24417941.3714   24417949.7434
       208.0004        142.0004
  23775987.6184   -5518615.22949  -4281467.24745  23775987.3564   23775994.7964
       219.0004        155.0004
  21394081.0544  -14853111.45249 -11561131.39047  21394080.6964   21394085.5874
       238.0004        198.0004
  20358430.3554  -23861723.22349 -18570393.10648  20358429.8424   20358434.8284
       242.0004        214.0004
  22487725.1494  -11582045.32849  -9010622.18146  22487724.8424   22487729.5354
       229.0004        173.0004
  20750922.9964  -24059144.71749 -18728245.24647  20750922.9254   20750924.7294
       244.0004        211.0004
  23945853.3104   -1698826.93949  -1305929.53145  23945853.4214   23945859.0374
       215.0004        156.0004
 06  5 10  1 26 30.0000000  0  8G24G27G 1G16G20G13G23G25
  23715012.6424   -7530919.38549  -5855558.87145  23715013.3484   23715020.5724
       221.0004        158.0004
  24404661.7044   -3998400.72849  -3106515.65245  24404660.5054   24404668.4334
       208.0004        140.0004
  23787641.1514   -5457375.64549  -4233748.13445  23787642.3284   23787647.4974
       219.0004        155.0004
  21396092.9924  -14842538.37549 -11552892.61247  21396092.9334   21396097.6034
       237.0004        198.0004
  20363989.3124  -23832510.87549 -18547630.25248  20363988.8344   20363994.0044
       240.0004        215.0004
  22475416.8324  -11646725.87349  -9061022.59246  22475416.6834   22475421.5764
       228.0004        174.0004
  20745372.1544  -24088314.95349 -18750975.30147  20745371.8484   20745374.1464
       243.0004        211.0004
  23961411.3694   -1617068.59549  -1242221.77045  23961411.9004   23961417.4724
       214.0004        154.0004
 06  5 10  1 27  0.0000000  0  8G24G27G 1G16G20G13G23G25
  23719856.5724   -7505465.38449  -5835724.59745  23719856.3754   23719864.6814
       218.0004        157.0004
  24391416.2664   -4068004.26449  -3160752.00745  24391416.3044   24391423.2064
       209.0004        142.0004
  23799319.1874   -5396008.63249  -4185929.73645  23799319.0944   23799326.2134
       217.0004        155.0004
  21398217.0844  -14831376.29749 -11544194.87947  21398216.6934   21398221.5414
       237.0004        199.0004
  20369654.6154  -23802739.33649 -18524431.66348  20369654.2224   20369659.3004
       239.0004        214.0004
  22463118.3924  -11711354.24849  -9111382.34546  22463118.7464   22463123.7544
       226.0004        174.0004
  20739857.4244  -24117294.97949 -18773557.13547  20739857.2264   20739859.6674
       242.0004        211.0004
  23976964.1404   -1535339.26449  -1178536.63045  23976963.6034   23976969.6344
       213.0004        153.0004
 06  5 10  1 27 30.0000000  0  8G24G27G 1G16G20G13G23G25
  23724779.2574   -7479596.46549  -5815567.00745  23724778.9374   23724786.1284
       220.0004        155.0004
  24378206.5844   -4137421.73849  -3214843.37745  24378207.1484   24378214.5504
       210.0004        143.0004
  23811021.2184   -5334514.04749  -4138011.91145  23811021.2234   23811029.0314
       218.0004        154.0004
  21400453.1304  -14819625.91349 -11535038.71747  21400452.8154   21400457.7514
       237.0004        200.0004
  20375426.2304  -23772409.49749 -18500798.02648  20375425.7664   20375430.7234
       241.0004        214.0004
  22450830.0854  -11775929.91949  -9161701.00746  22450831.2734   22450834.7604
       229.0004        174.0004
  20734378.9504  -24146084.56849 -18795990.57247  20734378.3394   20734380.7544
       243.0004        212.0004
  23992510.9874   -1453640.14749  -1114875.02745  23992510.3614   23992517.3104
       212.0004        152.0004
 06  5 10  1 28  0.0000000  0  8G24G27G 1G16G20G13G23G25
  23729780.7554   -7453313.65149  -5795086.90945  23729781.5444   23729788.2724
       219.0004        154.0004
  24365032.3724   -4206652.00649  -3268788.86845  24365031.7204   24365040.2754
       206.0004        143.0004
  23822747.8944   -5272890.54949  -4089993.66145  23822748.4744   23822755.1534
       217.0004        156.0004
  21402801.2234  -14807286.51749 -11525423.59647  21402801.1194   21402805.9264
       237.0004        199.0004
  20381304.1504  -23741521.00349 -18476729.08748  20381303.7374   20381308.6714
       240.0004        214.0004
  22438552.0994  -11840451.65849  -9211977.66746  22438552.7934   22438556.5264
       230.0004        174.0004
  20728937.1364  -24174681.42149 -18818273.82347  20728936.8964   20728938.9964
       243.0004        212.0004
  24008051.9364   -1371971.26749  -1051236.99045  24008051.3024   24008058.0724
       213.0004        152.0004
 06  5 10  1 28 30.0000000  0  8G24G27G 1G16G20G13G23G25
  23734860.6374   -7426618.78449  -5774285.74845  23734860.2084   23734868.7554
       218.0004        151.0004
  24351893.8844   -4275695.44049  -3322588.80945  24351893.6154   24351902.0684
       209.0004        144.0004
  23834499.2824   -5211138.18149  -4041875.00745  23834500.1894   23834504.9254
       217.0004        157.0004
  21405261.3384  -14794358.88849 -11515350.11947  21405261.2764   21405265.5254
       238.0004        199.0004
  20387288.1694  -23710074.89049 -18452225.62848  20387287.6844   20387292.8314
       240.0004        214.0004
  22426284.4294  -11904919.06049  -9262211.99046  22426285.1964   22426289.9214
       227.0004        175.0004
  20723532.0794  -24203085.11249 -18840406.56147  20723531.3684   20723533.9154
       242.0004        211.0004
  24023586.9264   -1290334.08349   -987623.66545  24023587.1474   24023593.0884
       213.0004        152.0004
 06  5 10  1 29  0.0000000  0  8G24G27G 1G16G20G13G23G25
  23740018.5864   -7399514.12449  -5753165.23145  23740018.3174   23740024.9124
       217.0004        149.0004
  24338790.9314   -4344552.26749  -3376243.31345  24338791.0964   24338798.5114
       212.0004        149.0004
  23846275.0354   -5149257.00749  -3993655.93545  23846274.6584   23846281.3704
       217.0004        154.0004
  21407833.3004  -14780843.68549 -11504818.79747  21407833.3454   21407837.6944
       239.0004        199.0004
  20393378.0654  -23678072.21649 -18427288.48648  20393377.5194   20393382.7494
       242.0004        214.0004
  22414026.8384  -11969331.85049  -9312403.74546  22414026.6224   22414031.9284
       228.0004        174.0004
  20718163.8894  -24231294.98749 -18862388.26747  20718163.5844   20718165.8794
       245.0004        211.0004
  24039115.8164   -1208729.92649   -924036.05545  24039116.6064   24039122.1564
       218.0004        154.0004
 06  5 10  1 29 30.0000000  0  8G24G27G 1G16G20G13G23G25
  23745254.1014   -7372001.42949  -5731726.78345  23745256.2314   23745259.2274
       213.0004        146.0004
  24325723.5224   -4413222.17849  -3429752.16245  24325722.4234   24325731.2064
       211.0004        150.0004
  23858075.1674   -5087246.45949  -3945336.08245  23858075.3884   23858081.7484
       212.0004        153.0004
  21410516.8484  -14766741.14349 -11493829.80047  21410516.5184   21410521.6774
       236.0004        198.0004
  20399573.7224  -23645513.72949 -18401918.25248  20399573.4194   20399578.6354
       242.0004        214.0004
  22401779.9994  -12033689.13049  -9362552.25946  22401781.6294   22401785.3984
       230.0004        174.0004
  20712832.9094  -24259309.75649 -18884217.95447  20712832.5844   20712834.9884
       244.0004        212.0004
  24054638.2494   -1127159.65249   -860474.86045  24054638.8704   24054643.6534
       217.0004        155.0004
 06  5 10  1 30  0.0000000  0  8G24G27G 1G16G20G13G23G25
  23750567.1374   -7344081.85449  -5709971.29045  23750566.8154   23750574.6144
       210.0004        145.0004
  24312691.4934   -4481704.07049  -3483114.50345  24312690.4154   24312699.6534
       205.0004        148.0004
  23869900.2964   -5025105.13149  -3896914.33045  23869900.5524   23869907.3594
       213.0004        153.0004
  21413312.2794  -14752050.73649 -11482382.71147  21413312.1724   21413316.9744
       236.0004        198.0004
  20405875.2644  -23612398.91349 -18376114.50248  20405875.1474   20405880.0914
       241.0004        214.0004
  22389544.3744  -12097989.38849  -9412656.33046  22389544.9414   22389549.2824
       229.0004        176.0004
  20707539.3744  -24287127.55449 -18905894.14847  20707539.3594   20707541.2284
       244.0004        212.0004
  24070154.1894   -1045623.27149   -796940.07045  24070154.0294   24070160.1434
       214.0004        155.0004
 06  5 10  1 30 30.0000000  0  8G24G27G 1G16G20G13G23G25
  23755956.8324   -7315757.88149  -5687900.72645  23755954.5954   23755964.5144
       207.0004        142.0004
  24299695.1054   -4549998.87149  -3536331.06745  24299694.8914   24299703.5864
       206.0004        145.0004
  23881750.1724   -4962833.37049  -3848390.92845  23881749.1894   23881756.7044
       215.0004        155.0004
  21416219.3954  -14736773.70149 -11470478.51147  21416219.2304   21416223.9154
       238.0004        199.0004
  20412282.4874  -23578728.99849 -18349878.19948  20412282.0714   20412287.3114
       241.0004        214.0004
  22377319.2824  -12162232.75549  -9462716.05146  22377318.6254   22377323.3394
       227.0004        175.0004
  20702283.4394  -24314747.77449 -18927416.38847  20702283.0984   20702285.2574
       244.0004        212.0004
  24085663.3314    -964122.32649   -733432.88045  24085663.0124   24085669.3894
       216.0004        155.0004
 06  5 10  1 31  0.0000000  0  8G24G27G 1G16G20G13G23G25
  23761423.6424   -7287030.52649  -5665515.79645  23761423.0194   23761432.7664
       208.0004        141.0004
  24286734.9844   -4618105.49249  -3589401.00845  24286734.5644   24286742.7494
       200.0004        141.0004
  23893625.0514   -4900430.11649  -3799765.05245  23893624.6884   23893632.0134
       212.0004        155.0004
  21419238.1094  -14720909.76649 -11458116.98947  21419237.6904   21419242.7304
       236.0004        198.0004
  20418795.2864  -23544504.10049 -18323209.45248  20418794.8824   20418800.0514
       240.0004        214.0004
  22365105.1174  -12226417.57449  -9512730.16946  22365105.3804   22365109.4064
       227.0004        175.0004
  20697065.4214  -24342168.58249 -18948783.23547  20697065.3004   20697067.2624
       243.0004        212.0004
  24101165.7414    -882657.02549   -669953.48045  24101165.7004   24101172.3204
       216.0004        156.0004
 06  5 10  1 31 30.0000000  0  8G24G27G 1G16G20G13G23G25
  23766966.4694   -7257902.83349  -5642818.95445  23766966.6614   23766972.8844
       210.0004        142.0004
  24273810.2624   -4686025.11549  -3642325.20445  24273809.7914   24273817.0674
       199.0004        137.0004
  23905524.7934   -4837896.12749  -3751037.31845  23905523.1814   23905531.9774
       210.0004        153.0004
  21422368.3644  -14704460.48349 -11445299.35947  21422368.5134   21422372.8454
       238.0004        199.0004
  20425413.2524  -23509726.08349 -18296109.71248  20425412.8314   20425417.8044
       240.0004        214.0004
  22352902.2084  -12290544.52449  -9562699.20146  22352902.4784   22352907.7324
       229.0004        177.0004
  20691885.3064  -24369390.47949 -18969995.10147  20691884.8564   20691886.8324
       242.0004        212.0004
  24116661.0854    -801229.54349   -606503.53745  24116661.0734   24116667.7834
       218.0004        159.0004
 06  5 10  1 32  0.0000000  0  8G24G27G 1G16G20G13G23G25
  23772585.0634   -7228376.87149  -5619811.73445  23772584.5024   23772591.3694
       212.0004        144.0004
  24260920.7764   -4753757.28249  -3695103.28645  24260919.9154   24260928.7854
       204.0004        142.0004
  23917449.4194   -4775231.00249  -3702207.42545  23917449.4344   23917457.1184
       210.0004        150.0004
  21425609.9844  -14687426.43949 -11432026.07547  21425609.9594   21425614.4164
       237.0004        199.0004
  20432136.3954  -23474395.56049 -18268579.44548  20432136.1864   20432141.0994
       240.0004        213.0004
  22340710.3814  -12354612.87349  -9612622.56146  22340710.2784   22340716.7214
       229.0004        178.0004
  20686743.1204  -24396412.10449 -18991050.90047  20686743.0564   20686745.2814
       243.0004        212.0004
  24132149.1484    -719840.61149   -543083.63845  24132149.2514   24132155.3904
       218.0004        160.0004
 06  5 10  1 32 30.0000000  0  8G24G27G 1G16G20G13G23G25
  23778279.0754   -7198453.80049  -5596495.09245  23778279.1204   23778286.1984
       213.0004        144.0004
  24248067.5024   -4821301.06749  -3747734.56845  24248066.9434   24248075.7444
       209.0004        148.0004
  23929399.2764   -4712433.56949  -3653274.38945  23929398.5024   23929406.5684
       211.0004        151.0004
  21428962.8064  -14669807.09149 -11418296.70347  21428962.5984   21428967.3924
       236.0004        198.0004
  20438964.7004  -23438512.72849 -18240618.79948  20438964.4094   20438969.2154
       240.0004        213.0004
  22328530.0154  -12418620.87849  -9662498.89746  22328530.0104   22328535.4434
       229.0004        178.0004
  20681639.6234  -24423231.30549 -19011948.97147  20681639.0894   20681641.5764
       242.0004        212.0004
  24147629.5754    -638490.29149   -479693.82745  24147629.8744   24147634.9594
       217.0004        160.0004
 06  5 10  1 33  0.0000000  0  8G24G27G 1G16G20G13G23G25
  23784048.6874   -7168135.65049  -5572870.56445  23784048.3564   23784056.0624
       213.0004        146.0004
  24235249.8454   -4888656.90849  -3800219.44845  24235249.7664   24235257.7404
       210.0004        150.0004
  23941374.5164   -4649503.79949  -3604238.26045  23941374.3414   23941381.6404
       213.0004        152.0004
  21432426.7584  -14651603.46949 -11404112.04847  21432426.4304   21432430.8894
       236.0004        198.0004
  20445897.9324  -23402078.56649 -18212228.54848  20445897.3204   20445902.4754
       240.0004        213.0004
  22316361.0764  -12482568.38749  -9712328.09846  22316361.4344   22316366.5024
       229.0004        179.0004
  20676574.6144  -24449847.35249 -19032688.73047  20676574.3654   20676576.4294
       242.0004        212.0004
  24163102.3774    -557179.84249   -416335.08345  24163102.6424   24163108.2664
       215.0004        159.0004
 06  5 10  1 33 30.0000000  0  8G24G27G 1G16G20G13G23G25
  23789892.7094   -7137424.08949  -5548939.49145  23789892.5704   23789901.3184
       213.0004        146.0004
  24222468.0714   -4955824.57949  -3852557.72945  24222467.3654   24222475.9914
       206.0004        152.0004
  23953375.2014   -4586441.22949  -3555098.63445  23953374.4944   23953382.9894
       212.0004        153.0004
  21436001.8334  -14632816.14049 -11389472.56347  21436001.7854   21436006.2144
       238.0004        198.0004
  20452935.8074  -23365093.96549 -18183409.39548  20452935.2784   20452940.7614
       240.0004        213.0004
  22304204.0774  -12546454.44649  -9762109.43346  22304204.6404   22304209.0094
       232.0004        179.0004
  20671548.6574  -24476259.60449 -19053269.70247  20671548.3154   20671550.5004
       243.0004        212.0004
  24178567.4954    -475910.13949   -353008.08545  24178567.7364   24178573.4364
       216.0004        158.0004
 06  5 10  1 34  0.0000000  0  8G24G27G 1G16G20G13G23G25
  23795811.2014   -7106321.97449  -5524704.09945  23795810.8634   23795819.4964
       212.0004        145.0004
  24209721.9014   -5022804.47749  -3904749.65645  24209721.2394   24209730.4324
       204.0004        150.0004
  23965401.0284   -4523246.08449  -3505855.71945  23965400.8484   23965408.1554
       211.0004        153.0004
  21439687.9054  -14613446.12449 -11374379.03547  21439687.8534   21439692.4844
       238.0004        199.0004
  20460078.1264  -23327560.29849 -18154162.39148  20460077.7134   20460082.8164
       240.0004        213.0004
  22292058.7214  -12610279.11549  -9811842.91746  22292058.8494   22292063.3534
       230.0004        179.0004
  20666561.4884  -24502466.91049 -19073690.96347  20666561.2974   20666563.4544
       242.0004        212.0004
  24194024.6064    -394682.66149   -289713.98445  24194025.0054   24194030.9414
       218.0004        159.0004
 06  5 10  1 34 30.0000000  0  8G24G27G 1G16G20G13G23G25
  23801803.7264   -7074831.19549  -5500165.88345  23801802.9354   23801811.5534
       209.0004        142.0004
  24197011.8194   -5089596.52849  -3956795.23445  24197010.8784   24197019.7844
       205.0004        148.0004
  23977452.0154   -4459917.96249  -3456509.17945  23977451.0364   23977457.7334
       210.0004        151.0004
  21443484.7184  -14593494.13949 -11358832.01547  21443484.9644   21443489.2174
       239.0004        200.0004
  20467324.8954  -23289478.32549 -18124488.13248  20467324.2964   20467329.2344
       240.0004        213.0004
  22279925.0114  -12674041.42449  -9861527.79346  22279924.9294   22279929.7104
       231.0004        178.0004
  20661613.6404  -24528468.25549 -19093951.74047  20661613.1934   20661615.8834
       242.0004        212.0004
  24209473.5944    -313498.09749   -226453.32145  24209473.4304   24209480.0194
       217.0004        160.0004
 06  5 10  1 35  0.0000000  0  8G24G27G 1G16G20G13G23G25
  23807869.9854   -7042953.54949  -5475326.22145  23807870.4044   23807878.9154
       205.0004        139.0004
  24184337.5584   -5156200.04249  -4008693.92345  24184336.2824   24184345.2674
       205.0004        148.0004
  23989528.3584   -4396456.16149  -3407058.48845  23989527.3964   23989536.2534
       210.0004        151.0004
  21447392.2664  -14572960.38649 -11342831.67947  21447391.9794   21447396.4104
       238.0004        200.0004
  20474675.9614  -23250848.63049 -18094387.08448  20474675.3874   20474680.7194
       240.0004        213.0004
  22267803.5774  -12737740.21249  -9911163.19246  22267804.3204   22267807.8674
       231.0004        179.0004
  20656705.0744  -24554262.35049 -19114051.02847  20656704.9914   20656706.8654
       244.0004        212.0004
  24224914.3184    -232356.82749   -163226.40845  24224914.3314   24224921.2134
       217.0004        159.0004
 06  5 10  1 35 30.0000000  0  8G24G27G 1G16G20G13G23G25
  23814009.3234   -7010691.15249  -5450186.71045  23814010.6334   23814017.7744
       208.0004        138.0004
  24171699.0734   -5222615.43149  -4060445.99445  24171698.0524   24171707.3844
       204.0004        147.0004
  24001630.1244   -4332860.57449  -3357503.54545  24001630.6474   24001636.5944
       210.0004        151.0004
  21451410.2374  -14551845.82449 -11326378.76047  21451409.9784   21451414.1804
       238.0004        199.0004
  20482130.8944  -23211672.37949 -18063860.15648  20482130.3864   20482135.9074
       239.0004        213.0004
  22255694.3254  -12801374.91049  -9960748.64546  22255694.4734   22255698.7964
       230.0004        179.0004
  20651836.3554  -24579848.01649 -19133987.90948  20651836.0614   20651838.3254
       242.0004        213.0004
  24240346.3864    -151259.99949   -100034.12145  24240346.9574   24240352.4364
       215.0004        158.0004
 06  5 10  1 36  0.0000000  0  8G24G27G 1G16G20G13G23G25
  23820221.8694   -6978046.17449  -5424749.10045  23820223.0534   23820229.1404
       211.0004        136.0004
  24159096.4274   -5288842.77149  -4112051.52445  24159096.7854   24159104.0564
       209.0004        147.0004
  24013757.3744   -4269131.02549  -3307844.20445  24013757.5224   24013765.2694
       211.0004        150.0004
  21455538.5404  -14530151.31949 -11309473.94747  21455538.1204   21455542.3274
       237.0004        198.0004
  20489689.6684  -23171950.37949 -18032907.96748  20489689.5634   20489694.6624
       240.0004        213.0004
  22243597.3014  -12864945.00649 -10010283.76646  22243597.7884   22243602.2494
       232.0004        179.0004
  20647007.3894  -24605224.11549 -19153761.48748  20647007.2144   20647009.6014
       244.0004        213.0004
  24255769.8964     -70208.45549    -36877.11345  24255770.0504   24255775.8874
       215.0004        156.0004
 06  5 10  1 36 30.0000000  0  8G24G27G 1G16G20G13G23G25
  23826506.6484   -6945020.05649  -5399014.50145  23826507.6624   23826511.1244
       204.0004        134.0004
  24146529.8264   -5354881.55549  -4163510.13845  24146528.4664   24146536.5994
       208.0004        146.0004
  24025910.4274   -4205266.68249  -3258079.84045  24025910.0894   24025917.4104
       211.0004        152.0004
  21459777.0454  -14507877.12549 -11292117.41947  21459776.0764   21459781.2324
       237.0004        197.0004
  20497352.2704  -23131683.30049 -18001531.02148  20497351.8094   20497356.8314
       242.0004        213.0004
  22231512.8614  -12928449.27849 -10059767.58846  22231512.5844   22231517.0924
       233.0004        180.0004
  20642218.5964  -24630389.45249 -19173370.83348  20642218.2104   20642220.3204
       244.0004        213.0004
  24271184.8514      10797.23749     26244.16145  24271185.6484   24271191.1604
       216.0004        156.0004
 06  5 10  1 37  0.0000000  0  8G24G27G 1G16G20G13G23G25
  23832863.1814   -6911615.16249  -5372984.73845  23832862.2434   23832868.4924
       201.0004        133.0004
  24133998.5864   -5420731.93949  -4214821.96845  24133997.5914   24134005.3764
       204.0004        146.0004
  24038089.1754   -4141267.39249  -3208210.30245  24038088.6484   24038097.2384
       212.0004        152.0004
  21464125.6344  -14485024.18549 -11274309.92847  21464125.0154   21464130.0864
       237.0004        198.0004
  20505118.4234  -23090872.31249 -17969730.25147  20505117.9624   20505122.7714
       241.0004        212.0004
  22219441.0294  -12991886.88549 -10109199.46946  22219441.0814   22219446.0534
       233.0004        181.0004
  20637470.1244  -24655342.91649 -19192815.08848  20637469.8874   20637471.9704
       244.0004        213.0004
  24286590.8904      91756.18849     89329.01545  24286591.9224   24286597.5874
       213.0004        154.0004
 06  5 10  1 37 30.0000000  0  8G24G27G 1G16G20G13G23G25
  23839291.4084   -6877832.77449  -5346660.85644  23839290.6034   23839300.3424
       200.0004        129.0004
  24121503.5084   -5486393.46149  -4265986.66045  24121503.1714   24121510.8004
       204.0004        148.0004
  24050293.7094   -4077132.27149  -3158234.93445  24050293.2584   24050300.6574
       211.0004        152.0004
  21468584.5724  -14461592.52049 -11256051.48347  21468584.4284   21468589.0064
       238.0004        199.0004
  20512987.9394  -23049517.85049 -17937506.00548  20512987.4544   20512992.5784
       241.0004        213.0004
  22207382.0604  -13055256.76749 -10158578.56846  22207381.6304   22207386.1584
       232.0004        180.0004
  20632762.3064  -24680082.69249 -19212092.82948  20632762.0964   20632764.1864
       243.0004        213.0004
  24301987.8224     172668.18849    152377.27645  24301987.4644   24301994.5064
       210.0004        153.0004
 06  5 10  1 38  0.0000000  0  8G24G27G 1G16G20G13G23G25
  23845791.0614   -6843675.92549  -5320045.15944  23845791.1224   23845799.3454
       196.0004        131.0004
  24109044.3174   -5551866.58449  -4317004.55845  24109043.2574   24109051.6974
       204.0004        147.0004
  24062523.9694   -4012861.54049  -3108153.90445  24062523.4124   24062531.2494
       212.0004        152.0004
  21473153.3184  -14437583.77749 -11237343.37747  21473153.5354   21473157.4344
       237.0004        199.0004
  20520960.5554  -23007621.55449 -17904859.56448  20520960.3454   20520965.1094
       242.0004        213.0004
  22195336.1034  -13118558.71249 -10207904.73746  22195336.0294   22195340.6704
       232.0004        181.0004
  20628095.2364  -24704608.38549 -19231203.76448  20628095.1374   20628097.1224
       242.0004        213.0004
  24317375.4704     253531.73049    215387.77245  24317374.7624   24317381.7194
       210.0004        151.0004
 06  5 10  1 38 30.0000000  0  8G24G27G 1G16G20G13G23G25
  23852361.6054   -6809146.07349  -5293138.85444  23852363.4724   23852368.7704
       200.0004        130.0004
  24096620.8474   -5617151.01149  -4367875.42545  24096620.2474   24096627.9254
       212.0004        150.0004
  24074780.1244   -3948454.42849  -3057966.60945  24074779.1674   24074786.9864
       212.0004        151.0004
  21477831.7764  -14412998.49149 -11218186.01347  21477831.6474   21477836.1064
       238.0004        198.0004
  20529036.2154  -22965184.11249 -17871791.44047  20529035.7044   20529040.5474
       243.0004        212.0004
  22183303.3134  -13181791.22949 -10257176.82246  22183303.7684   22183307.8644
       233.0004        182.0004
  20623469.1044  -24728918.57149 -19250146.76148  20623469.0694   20623470.9614
       244.0004        213.0004
  24332754.2004     334346.61649    278360.34945  24332755.3744   24332760.8594
       211.0004        150.0004
 06  5 10  1 39  0.0000000  0  8G24G27G 1G16G20G13G23G25
  23859003.3234   -6774246.89949  -5265944.72244  23859005.1044   23859010.4734
       202.0004        130.0004
  24084233.2554   -5682247.88549  -4418600.15845  24084232.3734   24084241.1154
       214.0004        156.0004
  24087062.0954   -3883912.04349  -3007673.88945  24087061.9944   24087069.6304
       213.0004        151.0004
  21482619.6124  -14387838.57749 -11198580.87347  21482619.5724   21482623.6284
       238.0004        198.0004
  20537214.3264  -22922207.85749 -17838303.45647  20537213.9234   20537218.7324
       243.0004        212.0004
  22171283.5654  -13244955.04149 -10306395.34846  22171283.5304   22171288.0224
       232.0004        182.0004
  20618884.1004  -24753013.32549 -19268921.88748  20618883.7444   20618885.8324
       244.0004        213.0004
  24348123.2054     415110.39449    341293.11245  24348123.7554   24348129.2364
       209.0004        149.0004
 06  5 10  1 39 30.0000000  0  8G24G27G 1G16G20G13G23G25
  23865714.7064   -6738979.65048  -5238463.77644  23865713.3804   23865720.6324
       193.0004        126.0004
  24071881.4184   -5747156.69449  -4469178.32345  24071880.9844   24071888.9714
       214.0004        158.0004
  24099370.2954   -3819233.05449  -2957274.72745  24099370.6334   24099377.7634
       214.0004        152.0004
  21487516.7294  -14362104.28249 -11178528.17147  21487516.8024   21487520.8604
       237.0004        198.0004
  20545494.8674  -22878693.29949 -17804396.02147  20545494.4004   20545499.7104
       242.0004        212.0004
  22159277.2714  -13308048.42349 -10355558.99946  22159277.8014   22159282.6294
       233.0004        182.0004
  20614340.4604  -24776890.44049 -19287527.42848  20614340.1494   20614342.5404
       243.0004        213.0004
  24363482.3344     495823.44549    404186.35345  24363481.9124   24363488.8344
       206.0004        148.0004
 06  5 10  1 40  0.0000000  0  8G24G27G 1G16G20G13G23G25
  23872495.1244   -6703346.35348  -5210697.62044  23872493.0374   23872507.2734
       187.0004        121.0004
  24059565.3594   -5811877.16849  -4519609.74745  24059564.9404   24059572.4324
       212.0004        157.0004
  24111704.5844   -3754417.32249  -2906769.01745  24111704.6044   24111711.9694
       212.0004        151.0004
  21492522.9904  -14335796.32549 -11158028.46247  21492522.5864   21492526.9844
       236.0004        198.0004
  20553877.6804  -22834641.29149 -17770069.78947  20553877.3174   20553882.5354
       242.0004        212.0004
  22147284.5654  -13371070.66049 -10404667.22646  22147285.0544   22147289.0914
       234.0004        183.0004
  20609838.3524  -24800548.95549 -19305962.64048  20609838.3464   20609840.4614
       243.0004        214.0004
  24378831.5824     576484.76949    467039.28445  24378830.9274   24378839.3744
       207.0004        148.0004
 06  5 10  1 40 30.0000000  0  8G24G27G 1G16G20G13G23G25
  23879344.8224   -6667348.57748  -5182647.46644  23879342.5754   23879350.1724
       188.0004        119.0004
  24047285.2794   -5876408.88349  -4569894.08345  24047284.7514   24047292.3384
       212.0004        156.0004
  24124064.8584   -3689464.02049  -2856156.10345  24124064.4784   24124072.4214
       211.0004        150.0004
  21497638.2214  -14308915.28249 -11137082.19247  21497637.6454   21497642.6134
       236.0004        198.0004
  20562362.6774  -22790052.60649 -17735325.36347  20562362.3134   20562367.2074
       243.0004        212.0004
  22135305.7154  -13434020.22849 -10453718.82046  22135305.2274   22135310.4404
       231.0004        183.0004
  20605378.2754  -24823987.16949 -19324226.18548  20605377.8544   20605380.1284
       243.0004        214.0004
  24394171.0334     657094.37249    529851.90845  24394171.6364   24394178.1874
       208.0004        148.0004
 06  5 10  1 41  0.0000000  0  8G24G27G 1G16G20G13G23G25
  23886264.2984   -6630988.92448  -5154315.33844  23886265.3834   23886271.7824
       193.0004        120.0004
  24035041.0354   -5940752.05049  -4620031.52845  24035040.9274   24035048.4174
       206.0004        153.0004
  24136451.2634   -3624373.15349  -2805435.98845  24136451.5424   24136458.6814
       211.0004        149.0004
  21502862.3244  -14281462.39449 -11115690.32847  21502862.3084   21502866.5094
       239.0004        199.0004
  20570949.5004  -22744928.56749 -17700163.77447  20570949.0884   20570954.0754
       243.0004        212.0004
  22123340.5074  -13496896.67949 -10502713.42546  22123340.0904   22123345.7474
       232.0004        183.0004
  20600960.1554  -24847204.16049 -19342317.34548  20600959.7824   20600961.7864
       243.0004        213.0004
  24409500.5154     737651.26049    592623.45245  24409501.1644   24409507.0024
       207.0004        148.0004
 06  5 10  1 41 30.0000000  0  8G24G27G 1G16G20G13G23G25
  23893251.8044   -6594271.01149  -5125703.99244  23893253.6054   23893258.0454
       196.0004        121.0004
  24022832.2314   -6004907.95849  -4670023.04445  24022830.2014   24022840.1444
       201.0004        151.0004
  24148863.5194   -3559145.79849  -2754609.53045  24148863.6704   24148870.8624
       209.0004        149.0004
  21508194.8994  -14253439.77949 -11093854.52547  21508194.9264   21508199.0264
       238.0004        200.0004
  20579637.6634  -22699271.75749 -17664587.05347  20579637.1644   20579642.4574
       242.0004        212.0004
  22111389.2694  -13559700.34949 -10551651.34246  22111389.3444   22111394.1604
       233.0004        184.0004
  20596584.1914  -24870199.98349 -19360236.17348  20596583.8624   20596585.9344
       242.0004        213.0004
  24424819.5534     818153.24349    655352.21645  24424820.4694   24424826.4144
       208.0004        148.0004
 06  5 10  1 42  0.0000000  0  8G24G27G 1G16G20G13G23G25
  23900307.1364   -6557195.00949  -5096813.62444  23900308.5014   23900317.7344
       197.0004        122.0004
  24010659.5394   -6068874.99149  -4719867.38145  24010659.3164   24010667.9754
       207.0004        152.0004
  24161302.2904   -3493779.76049  -2703675.00645  24161301.3994   24161310.0154
       208.0004        149.0004
  21513636.0694  -14224846.79349 -11071574.27447  21513636.0404   21513640.4544
       238.0004        201.0004
  20588427.3424  -22653081.68349 -17628594.79847  20588426.8394   20588432.2534
       243.0004        212.0004
  22099452.5034  -13622428.63449 -10600530.51146  22099452.5674   22099457.1664
       233.0004        184.0004
  20592250.7304  -24892971.96349 -19377980.56748  20592250.2724   20592252.7634
       243.0004        213.0004
  24440128.4314     898601.37849    718039.02145  24440128.8914   24440134.7924
       207.0004        148.0004
 06  5 10  1 42 30.0000000  0  8G24G27G 1G16G20G13G23G25
  23907430.1874   -6519764.33248  -5067646.90244  23907429.4414   23907438.1084
       194.0004        119.0004
  23998522.6154   -6132654.38749  -4769565.53345  23998521.9794   23998529.5634
       211.0004        153.0004
  24173767.1754   -3428275.89349  -2652633.06545  24173766.8894   24173775.8694
       210.0004        150.0004
  21519185.2114  -14195685.40149 -11048851.10947  21519184.4794   21519189.4764
       237.0004        200.0004
  20597318.1334  -22606360.39249 -17592188.60547  20597317.4844   20597322.3554
       242.0004        212.0004
  22087530.0084  -13685081.50349 -10649350.91146  22087530.8114   22087534.7114
       232.0004        184.0004
  20587960.0284  -24915519.66449 -19395550.20348  20587959.7924   20587961.7594
       243.0004        213.0004
  24455426.6464     978994.03949    780682.59445  24455426.7604   24455433.0394
       208.0004        149.0004
 06  5 10  1 43  0.0000000  0  8G24G27G 1G16G20G13G23G25
  23914620.1864   -6481980.75249  -5038205.20444  23914619.9634   23914626.9644
       197.0004        118.0004
  23986421.6934   -6196246.26449  -4819117.57145  23986422.5954   23986428.1664
       215.0004        156.0004
  24186258.5994   -3362633.69549  -2601483.35045  24186259.2714   24186266.7164
       211.0004        151.0004
  21524842.3254  -14165956.59549 -11025685.81647  21524841.9524   21524846.9844
       236.0004        198.0004
  20606309.6464  -22559109.19549 -17555369.50847  20606309.4294   20606314.2734
       241.0004        211.0004
  22075622.0734  -13747658.35749 -10698112.08446  22075622.6944   22075627.1374
       234.0004        185.0004
  20583712.3084  -24937841.76849 -19412944.05148  20583712.1534   20583714.3194
       243.0004        213.0004
  24470714.2304    1059330.58349    843282.44845  24470713.8674   24470721.0294
       209.0004        149.0004
 06  5 10  1 43 30.0000000  0  8G24G27G 1G16G20G13G23G25
  23921876.5064   -6443847.01248  -5008490.60544  23921873.1724   23921886.4834
       191.0004        116.0004
  23974356.5414   -6259650.31149  -4868523.22545  23974355.9494   23974363.0814
       213.0004        156.0004
  24198776.4474   -3296853.10349  -2550225.78745  24198776.8354   24198784.2854
       212.0004        153.0004
  21530607.2484  -14135661.64649 -11002079.35347  21530606.6014   21530611.3754
       237.0004        197.0004
  20615401.7464  -22511329.87449 -17518138.88547  20615401.6544   20615406.6604
       244.0004        212.0004
  22063728.8984  -13810158.16849 -10746813.21846  22063729.4784   22063733.2844
       235.0004        185.0004
  20579507.6344  -24959937.42649 -19430161.44448  20579507.2944   20579509.6304
       244.0004        214.0004
  24485990.8294    1139609.89949    905837.74245  24485991.0814   24485997.4814
       211.0004        149.0004
 06  5 10  1 44  0.0000000  0  8G24G27G 1G16G20G13G23G25
  23929199.7554   -6405364.27548  -4978504.00244  23929200.2794   23929206.6504
       191.0004        112.0004
  23962326.7764   -6322866.08749  -4917782.18445  23962325.9674   23962333.7724
       214.0004        156.0004
  24211320.7444   -3230932.87749  -2498859.40245  24211319.7924   24211328.4824
       211.0004        152.0004
  21536479.8394  -14104800.82249 -10978031.94547  21536479.2664   21536484.4784
       237.0004        197.0004
  20624594.4994  -22463022.18749 -17480496.54447  20624593.9514   20624598.8694
       243.0004        212.0004
  22051850.6324  -13872579.14949 -10795452.92046  22051850.1124   22051854.5214
       234.0004        185.0004
  20575346.5394  -24981804.40549 -19447200.64748  20575346.3844   20575348.5404
       244.0004        214.0004
  24501256.9094    1219832.59649    968348.87745  24501257.3524   24501263.1524
       212.0004        149.0004
 06  5 10  1 44 30.0000000  0  8G24G27G 1G16G20G13G23G25
  23936588.7534   -6366535.96448  -4948248.15344                  23936587.2554
       190.0004        108.0004
  23950332.6704   -6385894.51949  -4966895.14745  23950332.6804   23950339.8744
       215.0004        155.0004
  24223891.4024   -3164873.66149  -2447384.73045  24223890.6894   24223898.8984
       212.0004        152.0004
  21542459.7124  -14073376.01749 -10953545.07747  21542459.5864   21542463.8244
       236.0004        197.0004
  20633887.2344  -22414188.36749 -17442444.23547  20633886.7974   20633891.9204
       242.0004        211.0004
  22039987.0724  -13934921.76849 -10844031.57246  22039986.7554   22039991.7844
       234.0004        185.0004
  20571228.9514  -25003442.56649 -19464061.54948  20571228.4954   20571230.5784
       243.0004        213.0004
  24516511.7594    1299996.83549   1030814.49245  24516512.2324   24516518.1034
       210.0004        148.0004
 06  5 10  1 45  0.0000000  0  8G24G27G 1G16G20G13G23G25
  23944042.5614   -6327362.68148  -4917723.59344                  23944042.3144
       188.0004        107.0004
  23938374.5284   -6448734.35349  -5015861.13745  23938373.8094   23938381.9804
       217.0004        152.0004
  24236488.8344   -3098673.69249  -2395800.36345  24236488.5084   24236496.2244
       213.0004        152.0004
  21548547.0214  -14041386.89549 -10928618.49047  21548546.8414   21548550.8274
       239.0004        197.0004
  20643280.1244  -22364828.60149 -17403982.09547  20643279.7754   20643284.7864
       244.0004        211.0004
  22028139.1244  -13997182.84349 -10892546.69246  22028139.4364   22028143.5494
       235.0004        186.0004
  20567155.3834  -25024849.25249 -19480742.08948  20567155.1554   20567157.1604
       245.0004        213.0004
  24531755.5594    1380103.56049   1093235.26645  24531754.8204   24531761.6984
       212.0004        148.0004
 06  5 10  1 45 30.0000000  0  8G24G27G 1G16G20G13G23G25
  23951561.9234   -6287848.14948  -4886933.09644                  23951565.0974
       194.0004        103.0004
  23926452.1384   -6511386.89449  -5064681.17345  23926451.5724   23926459.2254
       215.0004        148.0004
  24249112.7924   -3032334.33249  -2344107.40045  24249113.1584   24249120.5074
       213.0004        153.0004
  21554741.1844  -14008836.41049 -10903254.47147  21554741.0034   21554745.6204
       237.0004        198.0004
  20652772.5414  -22314945.71549 -17365112.32647  20652772.1334   20652777.1874
       242.0004        211.0004
  22016306.5574  -14059363.22249 -10940998.91446  22016306.6584   22016311.3134
       233.0004        186.0004
  20563125.9064  -25046024.51749 -19497242.28648  20563125.4054   20563127.7644
       244.0004        213.0004
  24546988.0274    1460150.55649   1155609.50845  24546987.8444   24546993.9094
       211.0004        147.0004
 06  5 10  1 46  0.0000000  0  8G24G27G 1G16G20G13G23G25
                  -6247994.79249  -4855878.52744
       198.0004         96.0004
  23914565.2354   -6573852.12949  -5113355.25445  23914564.5914   23914571.8934
       213.0004        146.0004
  24261763.3734   -2965855.24549  -2292305.54945  24261763.8304   24261771.8824
       211.0004        153.0004
  21561042.1024  -13975724.98249 -10877453.35547  21561041.9814   21561046.3534
       239.0004        199.0004
  20662364.1864  -22264541.07949 -17325836.00447  20662363.6934   20662368.9324
       243.0004        211.0004
  22004489.4554  -14121461.93049 -10989387.49746  22004489.4694   22004493.9094
       235.0004        185.0004
  20559140.5604  -25066967.27449 -19513561.31648  20559140.6234   20559142.1324
       246.0004        213.0004
  24562209.0974    1540137.32549   1217936.81445  24562208.4574   24562215.3944
       209.0004        145.0004
 06  5 10  1 46 30.0000000  0  8G24G27G 1G16G20G13G23G25
                  -6207804.69549  -4824561.51544
       198.0004         99.0004
  23902713.9744   -6636130.15349  -5161883.44945  23902712.8364   23902721.1284
       210.0004        144.0004
  24274440.5474   -2899236.16149  -2240394.60845  24274440.5844   24274448.7424
       210.0004        151.0004
  21567449.4934  -13942054.18849 -10851216.37147  21567449.3564   21567454.3634
       237.0004        198.0004
  20672054.9304  -22213615.83149 -17286154.01447  20672054.6044   20672059.7434
       242.0004        211.0004
  21992688.1604  -14183477.98649 -11037711.70546  21992688.4994   21992692.9934
       234.0004        186.0004
  20555199.8904  -25087676.27749 -19529698.21448  20555199.5214   20555201.4394
       243.0004        213.0004
  24577418.4954    1620063.23949   1280216.68545  24577418.8774   24577424.3334
       208.0004        145.0004
 06  5 10  1 47  0.0000000  0  8G24G27G 1G16G20G13G23G25
                  -6167280.69748  -1970244.97243
       190.0004         74.0004
  23890898.3144   -6698221.74149  -5210266.37645  23890899.0054   23890906.8344
       210.0004        146.0004
  24287144.2264   -2832477.23249  -2188374.70445  24287142.3414   24287152.5644
       209.0004        148.0004
  21573962.9654  -13907825.73149 -10824544.84547  21573962.7064   21573967.4784
       238.0004        198.0004
  20681844.4704  -22162171.85149 -17246067.80047  20681844.0874   20681849.1694
       242.0004        211.0004
  21980902.7724  -14245410.82449 -11085971.03746  21980902.8184   21980907.7184
       234.0004        186.0004
  20551303.6614  -25108150.63449 -19545652.24648  20551303.3894   20551305.5484
       244.0004        213.0004
  24592616.2014    1699927.05449   1342448.17845  24592616.1964   24592623.7954
       208.0004        145.0004
 06  5 10  1 47 30.0000000  0  8G24G27G 1G16G20G13G23G25
                  -6126423.60848  -1938424.57443
       183.0004         74.0004
  23879118.3934   -6760125.95049  -5258503.32245  23879118.3304   23879125.9804
       210.0004        148.0004
  24299875.0194   -2765576.69649  -2136244.46045  24299875.5764   24299882.9664
       211.0004        148.0004
  21580582.5644  -13873039.56249 -10797438.73447  21580582.0944   21580587.1434
       238.0004        198.0004
  20691732.5354  -22110209.10849 -17205577.36547  20691732.1124   20691737.4634
       243.0004        211.0004
  21969133.6004  -14307258.13649 -11134163.72546  21969133.9854   21969138.3584
       235.0004        187.0004
  20547452.7194  -25128387.63449 -19561421.33048  20547452.2854   20547454.2994
       245.0004        213.0004
  24607802.2854    1779729.84249   1404632.12345  24607802.5134   24607810.0774
       211.0004        145.0004
 06  5 10  1 48  0.0000000  0  8G24G27G 1G16G20G13G23G25
                  -6085236.65048  -1906347.11143
       189.0004         74.0004
  23867373.9744   -6821843.12749  -5306594.59745  23867373.1514   23867380.9364
       207.0004        150.0004
  24312632.6794   -2698535.32549  -2084004.47045  24312633.1244   24312639.1514
       208.0004        147.0004
  21587307.8964  -13837697.61049 -10769899.54747  21587307.7584   21587312.0094
       237.0004        197.0004
  20701718.9514  -22057729.96849 -17164684.54547  20701718.4994   20701723.8254
       243.0004        210.0004
  21957380.8724  -14369019.73349 -11182289.63146  21957381.6414   21957385.9494
       234.0004        187.0004
  20543646.9134  -25148387.22049 -19577005.41048  20543646.5994   20543648.3384
       244.0004        213.0004
  24622976.4214    1859469.98449   1466767.23045  24622977.0184   24622983.2434
       208.0004        144.0004
 06  5 10  1 48 30.0000000  0  8G24G27G 1G16G20G13G23G25
                  -6043721.89948  -1986920.32043
       191.0004         74.0004
  23855665.0234   -6883373.64349  -5354540.35745  23855664.6374   23855672.3574
       208.0004        151.0004
  24325417.0934   -2631352.71949  -2031654.42745  24325417.0844   24325423.0824
       207.0004        145.0004
  21594138.7754  -13801801.03749 -10741928.18947  21594138.2594   21594143.0404
       237.0004        197.0004
  20711803.4694  -22004735.91449 -17123390.48747  20711802.8574   20711808.2144
       243.0004        210.0004
  21945644.4774  -14430694.67049 -11230348.01346  21945644.4074   21945648.8474
       234.0004        187.0004
  20539886.5204  -25168147.69449 -19592403.17248  20539886.0034   20539888.5744
       244.0004        213.0004
  24638138.3834    1939147.04549   1528853.20045  24638137.6724   24638145.0024
       203.0004        142.0004
 06  5 10  1 49  0.0000000  0  8G24G27G 1G16G20G13G23G25
                  -6001881.53148  -1954301.05943
       189.0004         74.0004
  23843991.7524   -6944717.24449  -5402340.51745  23843991.5284   23843997.8074
       210.0004        155.0004
  24338228.6054   -2564028.19449  -1979193.79145  24338228.8054   24338236.0964
       208.0004        143.0004
  21601075.0784  -13765350.77549 -10713525.38347  21601074.9174   21601079.1814
       238.0004        197.0004
  20721985.7054  -21951228.03349 -17081696.05247  20721985.1284   20721990.3094
       242.0004        210.0004
  21933924.8874  -14492281.36049 -11278337.62547  21933925.1904   21933929.7404
       235.0004        188.0004
  20536172.0194  -25187667.54449 -19607613.44648  20536171.7844   20536174.0154
       244.0004        214.0004
  24653288.2424    2018760.72949   1590889.80945  24653288.1344   24653294.9924
       206.0004        142.0004
 06  5 10  1 49 30.0000000  0  8G24G27G 1G16G20G13G23G25
                  -5959719.05348  -1921429.91643
       188.0004         74.0004
  23832353.9094   -7005874.69049  -5449995.62545  23832353.9154   23832360.1174
       214.0004        157.0004
  24351066.9504   -2496562.55149  -1926623.20345  24351066.3084   24351074.2634
       205.0004        141.0004
  21608116.2434  -13728349.19049 -10684692.96647  21608115.6634   21608120.7044
       237.0004        197.0004
  20732265.1014  -21897208.88049 -17039603.22547  20732264.7124   20732269.8214
       243.0004        210.0004
  21922222.1914  -14553779.61549 -11326258.33247  21922222.5214   21922226.7004
       235.0004        189.0004
  20532503.4234  -25206946.55449 -19622636.04848  20532503.2544   20532504.9604
       245.0004        214.0004
  24668425.8484    2098309.61549   1652875.89145  24668426.1844   24668431.8994
       208.0004        144.0004
 06  5 10  1 50  0.0000000  0  8G24G27G 1G16G20G13G23G25
                  -5917236.56448  -2003710.70043
       186.0004         74.0004
  23820751.4204   -7066846.71249  -5497506.24145  23820750.7174   23820757.5164
       213.0004        160.0004
  24363932.0714   -2428955.80149  -1873942.66545  24363931.5114   24363938.4514
       206.0004        138.0004
  21615261.8934  -13690797.81049 -10655432.14147  21615261.3664   21615265.7494
       236.0004        196.0004
  20742641.6704  -21842679.96349 -16997113.18047  20742641.4284   20742646.5554
       243.0004        210.0004
  21910536.3324  -14615189.01249 -11374109.79747  21910536.7614   21910541.4524
       236.0004        189.0004
  20528880.8084  -25225983.66949 -19637470.15148  20528880.6824   20528882.6814
       243.0004        214.0004
  24683551.0214    2177792.82149   1714810.80745  24683549.9944   24683557.8924
       207.0004        142.0004
 06  5 10  1 50 30.0000000  0  8G24G27G 1G16G20G13G23G25
                  -5874434.47848  -1970285.38343
       187.0004         74.0004
  23809184.3584   -7127631.05849  -5544870.56446  23809183.3754   23809191.0014
       218.0004        163.0004
  24376824.6034   -2361205.27249  -1821150.07045  24376824.2664   24376831.8954
       204.0004        136.0004
  21622512.4434  -13652695.74149 -10625742.22847  21622512.3864   21622516.9434
       235.0004        196.0004
  20753115.4234  -21787640.53149 -16954225.32647  20753115.1274   20753120.1524
       242.0004        210.0004
  21898868.2224  -14676505.80049 -11421889.09747  21898868.8694   21898873.1064
       235.0004        190.0004
  20525304.8874  -25244775.32349 -19652112.99048  20525304.5474   20525306.7894
       242.0004        214.0004
  24698663.9744    2257212.20949   1776695.97945  24698664.7804   24698671.0514
       209.0004        145.0004
 06  5 10  1 51  0.0000000  0  8G24G27G 1G16G20G13G23G25
                  -5831317.66348  -1936603.50143
       193.0004         74.0004
  23797652.6284   -7188230.32549  -5592090.71146  23797652.3084   23797658.9274
       217.0004        166.0004
  24389744.0004   -2293313.21949  -1768247.21145  24389742.0234   24389748.4774
       207.0004        133.0004
  21629867.1154  -13614046.62649 -10595626.04347  21629867.2544   21629872.0304
       236.0004        196.0004
  20763685.4284  -21732094.71649 -16910942.88947  20763685.2104   20763690.6754
       243.0004        210.0004
  21887217.4554  -14737731.50549 -11469597.41647  21887217.8544   21887222.2964
       236.0004        190.0004
  20521775.3384  -25263322.74949 -19666565.52648  20521775.0614   20521777.4204
       244.0004        214.0004
  24713764.3204    2336564.81349   1838529.12345  24713763.9174   24713770.6594
       207.0004        144.0004
 06  5 10  1 51 30.0000000  0  8G24G27G 1G16G20G13G23G25
                  -5787887.00148  -2020581.64143
       191.0004         74.0004
  23786156.2904   -7248643.46949  -5639165.81746  23786155.6874   23786163.3054
       221.0004        168.0004
  24402690.6424   -2225278.08249  -1715232.85444  24402690.4494   24402698.0084
       204.0004        131.0004
  21637325.7864  -13574850.78049 -10565083.82847  21637325.5214   21637330.6944
       237.0004        196.0004
  20774351.7284  -21676042.73949 -16867266.04547  20774351.4964   20774356.8474
       244.0004        210.0004
  21875584.3724  -14798863.66849 -11517232.84247  21875584.7984   21875588.8174
       236.0004        190.0004
  20518292.8074  -25281623.49849 -19680825.84048  20518292.8814   20518294.8564
       245.0004        214.0004
  24728852.0034    2415851.34649   1900310.80545  24728852.5024   24728859.3894
       208.0004        141.0004
 06  5 10  1 52  0.0000000  0  8G24G27G 1G16G20G13G23G25
                  -5744145.91748  -1986498.56843
       189.0004         74.0004
  23774695.1994   -7308871.58849  -5686096.73246  23774694.8614   23774701.1624
       221.0004        169.0004
  24415664.3614   -2157100.77449  -1662107.69944  24415666.0064   24415672.1924
       204.0004        129.0004
  21644888.0504  -13535110.49749 -10534117.36047  21644887.4264   21644892.6974
       237.0004        195.0004
  20785113.9674  -21619486.96449 -16823196.62147  20785113.5954   20785118.8914
       244.0004        210.0004
  21863969.0554  -14859902.37149 -11564795.43447  21863969.3094   21863974.0644
       236.0004        190.0004
  20514857.3464  -25299677.09749 -19694893.56248  20514856.8704   20514859.0784
       245.0004        214.0004
  24743927.1544    2495070.33549   1962039.82645  24743928.2854   24743933.8904
       209.0004        143.0004
 06  5 10  1 52 30.0000000  0  8G24G27G 1G16G20G13G23G25
                  -5700096.84948  -1952175.93343
       190.0004         74.0004
  23763269.2644   -7368914.66849  -5732883.46746  23763268.3324   23763275.6234
       220.0004        168.0004
  24428665.1664   -2088781.10149  -1608871.62344  24428665.1574   24428671.7074
       202.0004        126.0004
  21652553.7464  -13494826.96449 -10502727.58447  21652553.2394   21652558.2514
       238.0004        194.0004
  20795971.7464  -21562429.34449 -16778736.14147  20795971.3894   20795976.3874
       243.0004        210.0004
  21852371.7264  -14920846.35849 -11612284.22447  21852371.8984   21852376.1344
       237.0004        190.0004
  20511469.0594  -25317482.47649 -19708767.87648  20511468.5864   20511470.8454
       245.0004        214.0004
  24758989.1244    2574221.22949   2023715.80645  24758989.5284   24758995.0244
       209.0004        142.0004
 06  5 10  1 53  0.0000000  0  8G24G27G 1G16G20G13G23G25
                  -5655741.87748  -2036891.98643
       187.0004         74.0004
  23751878.4154   -7428772.68249  -5779525.99146  23751877.5374   23751885.4204
       220.0004        167.0004
  24441693.2864   -2020318.46749  -1555524.13844  24441691.3194   24441699.0764
       201.0004        126.0004
  21660322.5484  -13454001.92949 -10470915.86947  21660322.8114   21660326.2614
       237.0004        194.0004
  20806924.7434  -21504871.12249 -16733885.58147  20806924.0964   20806929.4074
       241.0004        210.0004
  21840792.8044  -14981694.40049 -11659698.25547  21840792.5044   21840797.3904
       234.0004        190.0004
  20508128.3524  -25335037.86149 -19722447.39148  20508127.8494   20508130.2164
       243.0004        214.0004
  24774038.1674    2653303.82449   2085338.54545  24774038.7504   24774045.1744
       209.0004        141.0004
 06  5 10  1 53 30.0000000  0  8G24G27G 1G16G20G13G23G25
                  -5611083.41048  -2002064.19543
       191.0004         74.0004
  23740522.9174   -7488445.78649  -5826024.43746  23740522.4784   23740529.9914
       218.0004        164.0004
  24454748.7714   -1951712.42149  -1502064.90244  24454745.9924   24454756.5454
       199.0004        123.0004
  21668194.1474  -13412636.67449 -10438683.19447  21668193.8324   21668198.2274
       236.0004        193.0004
  20817972.6604  -21446813.73549 -16688646.07647  20817971.8684   20817977.2184
       241.0004        209.0004
  21829232.1284  -15042445.48749 -11707036.73047  21829232.0574   21829236.7254
       235.0004        190.0004
  20504835.5124  -25352341.73249 -19735930.91948  20504835.1084   20504837.0914
       244.0004        214.0004
  24789074.3054    2732317.83449   2146907.81045  24789073.8814   24789080.5154
       207.0004        140.0004
 06  5 10  1 54  0.0000000  0  8G24G27G 1G16G20G13G23G25
                  -5566124.20648  -1966990.55643
       191.0004         74.0004
  23729202.5444   -7547934.71849  -5872379.36045  23729201.2964   23729210.2964
       215.0004        162.0004
  24467831.2544   -1882963.58549  -1448494.38944  24467830.8534   24467837.0324
       198.0004        121.0004
  21676168.2044  -13370732.64249 -10406030.69847  21676167.8014   21676172.5414
       236.0004        193.0004
  20829115.1244  -21388259.48449 -16643019.41147  20829114.9144   20829119.9424
       242.0004        209.0004
  21817690.1594  -15103098.65149 -11754298.92047  21817690.7374   21817694.7674
       236.0004        190.0004
  20501590.7004  -25369393.55549 -19749218.06348  20501590.3044   20501592.3624
       244.0004        214.0004
  24804096.8724    2811262.18449   2208422.89045  24804096.6914   24804103.7524
       207.0004        138.0004
 06  5 10  1 54 30.0000000  0  8G24G27G 1G16G20G13G23G25
                  -5520866.92548  -2053818.94443
       183.0004         74.0004
  23717916.9814   -7607239.56149  -5918590.83145  23717915.7894   23717923.5544
       212.0004        158.0004
  24480941.0134   -1814071.48448  -1394812.25444  24480943.5654   24480945.3614
       191.0004        118.0004
  21684244.5534  -13328291.40049 -10372959.60447  21684244.7504   21684248.6464
       236.0004        194.0004
  20840351.9324  -21329209.84149 -16597006.71047  20840351.5854   20840356.4454
       241.0004        209.0004
  21806167.2024  -15163652.61149 -11801483.79347  21806167.4644   21806171.8064
       236.0004        190.0004
  20498394.0044  -25386191.87849 -19762307.65348  20498393.7674   20498395.8474
       244.0004        214.0004
  24819106.3334    2890136.60949   2269883.38545  24819105.4114   24819112.4394
       205.0004        135.0004
 06  5 10  1 55  0.0000000  0  8G24G27G 1G16G20G13G23G25
                  -5475313.60448  -2018349.74243
       190.0004         74.0004
  23706666.4464   -7666360.22049  -5964658.81345  23706666.8264   23706673.1224
       211.0004        154.0004
  24494078.0924   -1745035.64248  -1341018.15444  24494074.1154   24494086.8954
       186.0004        114.0004
  21692422.8484  -13285314.33349 -10339470.98447  21692422.5484   21692426.8324
       236.0004        194.0004
  20851682.7564  -21269666.08649 -16550608.99047  20851682.5114   20851687.2984
       243.0004        209.0004
  21794663.2454  -15224106.06049 -11848590.34247  21794663.3194   21794667.8064
       236.0004        190.0004
  20495245.9544  -25402735.07049 -19775198.44748  20495245.7074   20495247.4914
       243.0004        214.0004
  24834102.2384    2968940.77849   2331289.17545  24834101.0004   24834111.0404
       202.0004        132.0004
 06  5 10  1 55 30.0000000  0  8G24G27G 1G16G20G13G23G25
                  -5429466.21348  -1982667.07643
       189.0004         74.0004
  23695451.2994   -7725296.31849  -6010582.97945  23695450.7814   23695458.4634
       208.0004        149.0004
  24507242.3474   -1675855.32948  -1287111.42644  24507240.3114   24507251.8004
       187.0004        113.0004
  21700702.8104  -13241802.68949 -10305565.80447  21700702.5764   21700706.8794
       236.0004        194.0004
  20863107.3904  -21209629.70949 -16503827.41447  20863107.2114   20863112.0874
       242.0004        209.0004
  21783178.7224  -15284457.47849 -11895617.40047  21783178.3294   21783182.6084
       236.0004        191.0004
  20492146.5844  -25419021.77849 -19787889.38348  20492146.0924   20492148.4434
       243.0004        214.0004
  24849085.0104    3047674.65649   2392640.22244  24849086.3654   24849092.5244
       202.0004        130.0004
 06  5 10  1 56  0.0000000  0  8G24G27G 1G16G20G13G23G25
                  -5383327.73448  -2070842.96143
       188.0004         74.0004
  23684271.0434   -7784049.01049  -6056364.23745  23684271.7304   23684278.2774
       206.0004        146.0004
  24520434.4514   -1606531.04148  -1233092.52044  24520434.9864   24520440.1174
       188.0004        113.0004
  21709084.0074  -13197759.07049 -10271246.09747  21709083.6344   21709088.2544
       235.0004        194.0004
  20874625.1964  -21149103.19949 -16456663.91547  20874624.6984   20874630.1194
       241.0004        209.0004
  21771713.6634  -15344706.40049 -11942564.59247  21771713.6964   21771718.3894
       234.0004        191.0004
  20489096.2984  -25435051.02749 -19800379.70848  20489096.5144   20489098.5404
       243.0004        214.0004
  24864054.2634    3126337.30349   2453935.69144  24864055.4534   24864058.6214
       202.0004        127.0004
 06  5 10  1 56 30.0000000  0  8G24G27G 1G16G20G13G23G25
                  -5336900.74749  -2034705.93843
       199.0004         74.0004
  23673125.7874   -7842618.38049  -6102002.66945  23673127.0654   23673133.7194
       204.0004        142.0004
  24533654.1534   -1537062.70248  -1178961.41344  24533653.5854   24533664.2624
       187.0004        114.0004
  21717566.2274  -13153184.50649 -10236512.66747  21717565.9324   21717570.4124
       236.0004        194.0004
  20886235.9644  -21088088.19149 -16409119.76847  20886235.4804   20886240.5914
       241.0004        209.0004
  21760268.2904  -15404851.70549 -11989431.03347  21760268.4904   21760273.5554
       235.0004        191.0004
  20486095.3454  -25450821.61749 -19812668.46748  20486094.5724   20486096.8794
       242.0004        214.0004
  24879009.9644    3204928.14149   2515175.28744  24879009.6404   24879017.8094
       201.0004        125.0004
 06  5 10  1 57  0.0000000  0  8G24G27G 1G16G20G13G23G25
                  -5290188.58549  -1998379.30843
       199.0004         74.0004
  23662015.2854   -7901005.64449  -6147499.14245  23662014.6584   23662023.2244
       196.0004        138.0004
  24546900.7704   -1467450.89748  -1124718.46844  24546900.6644   24546909.9914
       182.0004        113.0004
  21726148.9994  -13108081.55449 -10201367.51547  21726148.9604   21726153.2164
       236.0004        194.0004
  20897939.2594  -21026587.14949 -16361196.89447  20897938.5384   20897944.0414
       241.0004        208.0004
  21748842.8984  -15464892.77549 -12036216.26747  21748843.0994   21748847.4994
       236.0004        192.0004
  20483143.5934  -25466332.75249 -19824755.07448  20483143.8054   20483145.2604
       244.0004        214.0004
  24893951.5014    3283445.92548   2576357.94544  24893953.1854   24893954.5824
       193.0004        120.0004
 06  5 10  1 57 30.0000000  0  8G24G27G 1G16G20G13G23G25
                  -5243192.60649  -2088002.26943
       197.0004         74.0004
  23650939.2864   -7959209.65049  -6192852.82745  23650938.7364   23650946.2704
       198.0004        136.0004
  24560174.5914   -1397694.35648  -1070362.77344                  24560172.6564
       186.0004        108.0004
  21734832.2734  -13062450.68849 -10165810.99547  21734831.8794   21734836.3734
       235.0004        193.0004
  20909734.7744  -20964600.92849 -16312895.95247  20909734.2324   20909739.5244
       240.0004        208.0004
  21737437.6484  -15524827.44349 -12082918.59147  21737437.8854   21737441.8364
       236.0004        192.0004
  20480241.7974  -25481582.67749 -19836638.12448  20480241.5144   20480243.8024
       243.0004        214.0004
  24908879.0314    3361891.50049   2637484.32244  24908878.7424   24908886.3934
       196.0004        116.0004
 06  5 10  1 58  0.0000000  0  8G24G27G 1G16G20G13G23G25
                  -5195915.05349  -2051162.74843
       198.0004         74.0004
  23639898.1714   -8017230.64649  -6238063.92445  23639898.7894   23639905.1184
       204.0004        133.0004
  24573476.5454   -1327792.71348  -1015893.97844                  24573477.5354
       186.0004        107.0004
  21743615.6994  -13016293.19949 -10129844.12847  21743615.4384   21743619.7364
       234.0004        192.0004
  20921622.4034  -20902131.12849 -16264218.19747  20921622.2024   20921627.1864
       241.0004        208.0004
  21726052.9984  -15584654.46949 -12129537.03547  21726053.1764   21726057.8854
       237.0004        192.0004
  20477389.8304  -25496569.40449 -19848316.09648  20477389.5884   20477391.8424
       243.0004        214.0004
  24923792.8424    3440264.64348   2698554.28844  24923792.0384   24923797.8304
       193.0004        114.0004
 06  5 10  1 58 30.0000000  0  8G24G27G 1G16G20G13G23G25
                  -5148359.69049  -2014106.89844                  24168406.8884
       198.0004        113.0004
  23628891.5674   -8075069.95449  -6283133.44644  23628891.3994   23628897.8014
       200.0004        131.0004
  24586806.0844   -1257746.90048   -961312.87844                  24586811.0754
       183.0004        107.0004
  21752498.8174  -12969612.06849 -10093469.22447  21752498.8884   21752503.2454
       236.0004        192.0004
  20933601.4744  -20839180.72249 -16215165.94247  20933600.9204   20933606.3854
       242.0004        208.0004
  21714688.8914  -15644373.44149 -12176071.27747  21714689.2134   21714693.5744
       238.0004        193.0004
  20474588.0104  -25511292.97449 -19859789.01048  20474587.8784   20474589.9074
       244.0004        214.0004
  24938692.4074    3518563.83249   2759566.65444  24938692.9524   24938700.8094
       195.0004        111.0004
 06  5 10  1 59  0.0000000  0  8G24G27G 1G16G20G13G23G25
  24177501.9744   -5100528.81448  -1976836.07944  24177499.1264   24177511.4314
       189.0004        124.0004
  23617919.5984   -8132727.54849  -6328061.37944  23617919.0254   23617925.7824
       198.0004        128.0004
                  -1187556.67748  -4560452.18343
       184.0004         74.0004
  21761481.2954  -12922408.78249 -10056687.43647  21761480.8204   21761485.8324
       235.0004        193.0004
  20945671.7094  -20775751.12549 -16165740.29247  20945671.3434   20945676.6784
       241.0004        208.0004
  21703345.5244  -15703983.23149 -12222520.44847  21703345.8164   21703349.8814
       236.0004        193.0004
  20471836.6374  -25525751.65949 -19871055.51548  20471836.1134   20471838.5794
       243.0004        214.0004
  24953578.1584    3596788.75648   2820521.11844  24953578.9374
       191.0004        106.0004
 06  5 10  1 59 30.0000000  0  8G24G27G 1G16G20G13G23G25
  24186654.9994   -5052423.54549  -1939351.48344  24186654.0684   24186665.6514
       198.0004        128.0004
  23606982.4484   -8190202.27748  -6372846.76844  23606980.0184   23606990.1644
       194.0004        125.0004
                  -1117220.65448  -4505645.28743
       189.0004         74.0004
  21770563.1064  -12874683.66349 -10019499.04447  21770563.2434   21770567.6634
       236.0004        194.0004
  20957833.0124  -20711843.01049 -16115941.77847  20957832.4554   20957838.0364
       241.0004        208.0004
  21692023.4114  -15763481.26749 -12268882.54447  21692023.7044   21692028.1134
       237.0004        193.0004
  20469136.0124  -25539943.20449 -19882113.86748  20469135.8524   20469137.6354
       242.0004        214.0004
  24968450.2524    3674940.37648   2881418.47444  24968452.0304   24968455.1794
       192.0004        108.0004
 06  5 10  2  0  0.0000000  0  8G24G27G 1G16G20G13G23G25
  24195861.0104   -5004048.08749  -1901656.35044  24195859.7954   24195869.2674
       197.0004        130.0004
  23596079.5924   -8247496.34149  -6417491.39944  23596079.4744   23596086.5744
       195.0004        124.0004
                  -1046740.17748  -4450726.58643
       188.0004         74.0004
  21779743.6134  -12826440.29049  -9981906.80947  21779743.1284   21779748.1824
       236.0004        195.0004
  20970084.6354  -20647460.01649 -16065773.22647  20970083.9834   20970089.5644
       241.0004        207.0004
  21680722.5944  -15822868.03349 -12315157.92947  21680722.8484   21680727.0834
       238.0004        193.0004
  20466486.3564  -25553867.57349 -19892964.02648  20466486.2864   20466488.5094
       243.0004        215.0004
  24983307.8544    3753016.67048   2942257.10444  24983306.5974
       183.0004        106.0004
 06  5 10  2  0 30.0000000  0  8G24G27G 1G16G20G13G23G25
  24205117.3914   -4955405.03948  -1863752.71545  24205117.0864   24205126.4324
       194.0004        132.0004
  23585211.5104   -8304610.16148  -6461995.63044  23585211.8184   23585219.7334
       188.0004        122.0004
                   -976115.28148  -4578215.26643
       191.0004         74.0004
  21789022.2614  -12777680.62249  -9943912.26947  21789022.1844   21789026.7214
       236.0004        194.0004
  20982426.2944  -20582604.22349 -16015236.26547  20982426.1694   20982431.2734
       241.0004        207.0004
  21669443.0584  -15882142.44049 -12361345.76847  21669443.0374   21669447.4004
       238.0004        193.0004
  20463887.7204  -25567524.02349 -19903605.41048  20463887.4464   20463889.6974
       243.0004        215.0004
  24998150.5084    3831017.03048   3003036.53844  24998154.3584
       186.0004        105.0004
 06  5 10  2  1  0.0000000  0  7G24G27G 1G16G20G13G23
  24214423.8094   -4906497.80649  -1825643.21845  24214425.3424   24214435.0484
       200.0004        137.0004
  23574377.0664   -8361544.50848  -6506359.91044  23574379.6874   23574385.3924
       190.0004        120.0004
                   -905346.62448  -4523083.20543
       189.0004         74.0004
  21798398.6724  -12728407.02849  -9905517.26847  21798398.7034   21798403.1944
       236.0004        194.0004
  20994857.4714  -20517278.25649 -15964332.92447  20994857.0934   20994862.4114
       242.0004        207.0004
  21658184.8394  -15941303.95049 -12407445.63447  21658185.2004   21658189.2654
       238.0004        193.0004
  20461340.0514  -25580911.78849 -19914037.43148  20461339.8994   20461341.8774
       243.0004        215.0004
 06  5 10  2  1 30.0000000  0  7G24G27G 1G16G20G13G23
  24223781.1034   -4857327.64049  -1787328.86845  24223782.7644   24223791.2514
       204.0004        140.0004
  23563577.7504   -8418298.68948  -6550583.91144  23563580.3234   23563586.7094
       187.0004        121.0004
                   -834432.92648  -4467874.97343
       184.0004         74.0004
  21807872.8914  -12678619.59049  -9866721.86647  21807872.9544   21807877.6974
       236.0004        193.0004
  21007377.9814  -20451482.75549 -15913063.70547  21007377.6254   21007383.0894
       243.0004        207.0004
  21646948.7264  -16000349.99249 -12453455.52547  21646949.1294   21646953.3034
       239.0004        193.0004
  20458844.0864  -25594028.32749 -19924258.10148  20458843.7074   20458846.1164
       243.0004        215.0004
 06  5 10  2  2  0.0000000  0  6G24G27G16G20G13G23
  24233188.5554   -4807892.70249  -1748808.17145  24233188.6934   24233195.9424
       204.0004        139.0004
  23552813.0314   -8474868.32948  -6594664.16944  23552812.2574   23552819.2644
       178.0004        116.0004
  21817445.3504  -12628316.05449  -9827524.29947  21817444.9374   21817449.6174
       234.0004        193.0004
  21019988.2564  -20385215.16049 -15861426.62747  21019987.9154   21019993.5294
       241.0004        207.0004
  21635735.6934  -16059274.81049 -12499370.95647  21635735.8724   21635740.6844
       238.0004        195.0004
  20456400.6564  -25606867.90549 -19934262.96448  20456400.2794   20456402.5684
       242.0004        214.0004
 06  5 10  2  2 30.0000000  0  6G24G27G16G20G13G23
  24242644.7884   -4758200.30149  -1710086.85445  24242644.9864   24242652.3044
       203.0004        139.0004
  23542081.6274   -8531258.47348  -6638604.43244  23542083.0154   23542088.5034
       190.0004        118.0004
  21827114.6394  -12577503.01749  -9787929.73747  21827114.8034   21827118.6544
       235.0004        192.0004
  21032687.1694  -20318481.97849 -15809426.76847  21032686.9444   21032692.2074
       240.0004        207.0004
  21624545.0184  -16118081.87549 -12545194.63047  21624545.5194   21624549.8524
       237.0004        194.0004
  20454009.3884  -25619433.93949 -19944054.67448  20454009.1944   20454011.4104
       242.0004        215.0004
 06  5 10  2  3  0.0000000  0  6G24G27G16G20G13G23
  24252149.4024   -4708254.13749  -1671167.82945  24252149.5164   24252158.7104
       206.0004        140.0004
  23531384.8294   -8587470.98348  -6682406.36244  23531384.5314   23531389.3574
       185.0004        122.0004
  21836880.4964  -12526183.51049  -9747940.50047  21836880.0034   21836884.4844
       237.0004        191.0004
  21045474.0614  -20251286.64449 -15757066.76947  21045473.6924   21045478.4544
       242.0004        206.0004
  21613376.7724  -16176771.32149 -12590926.64947  21613377.0804   21613381.4604
       239.0004        194.0004
  20451670.1654  -25631726.47049 -19953633.26248  20451669.7944   20451672.2714
       244.0004        215.0004
 06  5 10  2  3 30.0000000  0  6G24G27G16G20G13G23
  24261701.8584   -4658056.49749  -1632052.81645  24261700.4844   24261710.3984
       202.0004        141.0004
  23520721.4304   -8643505.52448  -6726069.58844  23520718.0064   23520727.5244
       189.0004        123.0004
  21846742.4494  -12474358.74449  -9707557.57047  21846742.5454   21846746.5174
       235.0004        192.0004
  21058348.5804  -20183630.65549 -15704347.83047  21058348.1894   21058353.1384
       240.0004        205.0004
  21602231.2934  -16235341.15149 -12636565.47247  21602231.7564   21602236.2574
       237.0004        195.0004
  20449383.3964  -25643743.51749 -19962997.19348  20449383.3664   20449385.3544
       242.0004        215.0004
 06  5 10  2  4  0.0000000  0  6G24G27G16G20G13G23
  24271301.3824   -4607608.94649  -1592743.06145  24271301.3084   24271311.3034
       209.0004        143.0004
  23510092.0804   -8699361.15448  -6769593.40044  23510092.1924   23510096.5844
       189.0004        125.0004
  21856700.4404  -12422029.46649  -9666781.51047  21856700.3014   21856704.6184
       236.0004        192.0004
  21071310.4584  -20115515.13649 -15651270.81847  21071309.6264   21071315.4764
       241.0004        205.0004
  21591108.9274  -16293789.18749 -12682109.37547  21591108.6174   21591114.1264
       238.0004        194.0004
  20447149.5214  -25655482.71149 -19972144.61148  20447149.1934   20447151.1754
       243.0004        215.0004
 06  5 10  2  4 30.0000000  0  6G24G27G16G20G13G23
  24280948.4534   -4556914.52749  -1553241.00645  24280949.5884   24280957.0944
       212.0004        147.0004
  23499496.9594   -8755039.24049  -6812978.83544  23499496.7474   23499504.1044
       196.0004        126.0004
  21866753.8554  -12369198.50949  -9625614.53747  21866754.0214   21866758.7014
       235.0004        193.0004
  21084359.3124  -20046942.62949 -15597837.71947  21084358.8424   21084364.2884
       241.0004        205.0004
  21580009.7794  -16352114.75749 -12727557.85747  21580010.1504   21580014.3124
       238.0004        194.0004
  20444968.6294  -25666943.50249 -19981075.09648  20444968.4134   20444970.3504
       243.0004        214.0004
 06  5 10  2  5  0.0000000  0  6G24G27G16G20G13G23
  24290641.8334   -4505976.34149  -1513548.96545  24290641.4294   24290651.3614
       212.0004        151.0004
  23488935.4724   -8810540.28648  -6856226.34344  23488933.2904   23488942.2844
       192.0004        125.0004
  21876902.2844  -12315867.88149  -9584058.21647  21876902.4764   21876907.5324
       234.0004        193.0004
  21097494.8194  -19977915.22149 -15544050.14647  21097494.6984   21097499.7664
       242.0004        205.0004
  21568934.3054  -16410316.80049 -12772910.08647  21568934.5274   21568939.1074
       237.0004        194.0004
  20442840.8734  -25678124.66749 -19989787.68648  20442840.9364   20442842.8544
       244.0004        215.0004
 06  5 10  2  5 30.0000000  0  6G24G27G16G20G13G23
  24300381.3424   -4454794.59249  -1473667.13645  24300381.5064   24300390.6074
       213.0004        154.0004
  23478407.8294   -8865862.31148  -6899334.32044  23478406.0784   23478413.9854
       190.0004        125.0004
  21887145.7474  -12262037.61449  -9542112.55747  21887145.7544   21887150.7184
       232.0004        192.0004
  21110716.8464  -19908433.33549 -15489908.42947  21110716.4454   21110721.8744
       241.0004        205.0004
  21557882.7884  -16468392.28549 -12818163.68747  21557882.7084   21557887.2044
       236.0004        193.0004
  20440767.0774  -25689023.13649 -19998279.99348  20440766.8524   20440768.8594
       243.0004        215.0004
 06  5 10  2  6  0.0000000  0  6G24G27G16G20G13G23
  24310166.3964   -4403374.19049  -1433599.39345  24310167.0024   24310175.4584
       217.0004        154.0004
  23467914.2404   -8921007.90048  -6942304.80744  23467914.7514   23467919.6534
       193.0004        124.0004
  21897483.6034  -12207711.87049  -9499780.81747  21897483.3484   21897487.9604
       235.0004        191.0004
  21124024.5994  -19838500.90049 -15435415.64447  21124024.3224   21124029.6804
       242.0004        205.0004
  21546855.3304  -16526341.52349 -12863318.92447  21546855.6824   21546860.0264
       239.0004        194.0004
  20438746.7754  -25699639.77449 -20006552.69348  20438746.7304   20438748.4054
       244.0004        215.0004
 06  5 10  2  6 30.0000000  0  6G24G27G16G20G13G23
  24319996.5534   -4351716.69349  -1393346.90245  24319996.9264   24320005.3104
       213.0004        151.0004
  23457453.9224   -8975976.34348  -6985137.28444  23457452.3844   23457459.9974
       192.0004        122.0004
  21907915.6724  -12152891.27649  -9457063.48447  21907915.4964   21907920.1814
       234.0004        191.0004
  21137417.9054  -19768118.76549 -15380572.44947  21137417.4604   21137422.6224
       240.0004        205.0004
  21535852.4734  -16584162.15649 -12908373.95047  21535852.8494   21535857.2944
       238.0004        195.0004
  20436780.7444  -25709971.97749 -20014603.76248  20436780.5714   20436782.3364
       243.0004        215.0004
 06  5 10  2  7  0.0000000  0  6G24G27G16G20G13G23
  24329871.0274   -4299825.74549  -1352912.45745  24329871.5504   24329880.6924
       208.0004        147.0004
  23447026.9384   -9030769.18148  -7027832.91744  23447025.3024   23447030.9354
       192.0004        122.0004
  21918441.3664  -12097578.66549  -9413962.75347  21918440.9094   21918446.1334
       235.0004        191.0004
  21150896.0464  -19697290.38649 -15325381.51947  21150895.6804   21150900.8634
       242.0004        204.0004
  21524874.1764  -16641853.85049 -12953328.48447  21524874.1804   21524878.4374
       239.0004        195.0004
  20434868.7034  -25720019.83849 -20022433.25748  20434868.2554   20434870.1924
       243.0004        215.0004
 06  5 10  2  7 30.0000000  0  6G24G27G16G20G13G23
  24339789.7434   -4247702.73449  -1312297.17845  24339790.8434   24339798.1164
       206.0004        144.0004
  23436633.9404   -9085385.28449  -7070390.90344  23436633.9564   23436640.6574
       196.0004        123.0004
  21929060.4294  -12041775.06049  -9370479.42847  21929060.2774   21929064.8774
       235.0004        191.0004
  21164458.9774  -19626016.91949 -15269843.77347  21164458.3204   21164463.8374
       241.0004        203.0004
  21513920.8194  -16699414.20449 -12998180.70047  21513921.3224   21513925.5984
       239.0004        196.0004
  20433011.2404  -25729780.61549 -20030039.05248  20433011.0114   20433012.7794
       243.0004        215.0004
 06  5 10  2  8  0.0000000  0  6G24G27G16G20G13G23
  24349751.8774   -4195352.65149  -1271504.94445  24349751.4484   24349760.0874
       204.0004        143.0004
  23426274.6044   -9139827.27248  -7112813.15244  23426275.8574   23426281.3284
       194.0004        127.0004
  21939772.2584  -11985484.35049  -9326616.55647  21939772.4324   21939776.7854
       234.0004        192.0004
  21178105.8614  -19554302.20649 -15213962.20247  21178105.5034   21178111.1104
       240.0004        204.0004
  21502992.3154  -16756844.10249 -13042931.26047  21502992.4784   21502997.3374
       238.0004        197.0004
  20431208.3334  -25739254.95849 -20037421.66848  20431207.9394   20431210.2304
       241.0004        214.0004
 06  5 10  2  8 30.0000000  0  6G24G27G16G20G13G23
  24359756.6564   -4142777.16549  -1230537.07345  24359756.5414   24359764.7254
       210.0004        146.0004
  23415947.2974   -9194094.88648  -7155099.50144  23415943.8394   23415954.1834
       194.0004        127.0004
  21950576.5224  -11928707.79649  -9282375.08047  21950576.2324   21950580.8334
       235.0004        191.0004
  21191836.4804  -19482147.59549 -15157737.84347  21191836.2374   21191841.5964
       241.0004        204.0004
  21492089.0054  -16814141.12849 -13087578.27447  21492089.1164   21492093.8904
       239.0004        198.0004
  20429460.2364  -25748441.04749 -20044579.65848  20429459.8794   20429461.8164
       242.0004        214.0004
 06  5 10  2  9  0.0000000  0  6G24G27G16G20G13G23
  24369804.4084   -4089977.22349  -1189394.29945  24369804.7754   24369813.0344
       216.0004        154.0004
  23405653.6824   -9248186.91649  -7197249.08744  23405653.1344   23405660.5934
       201.0004        130.0004
  21961473.0614  -11871445.99849  -9237755.50547  21961473.2384   21961477.6534
       235.0004        191.0004
  21205650.6484  -19409553.71149 -15101171.20247  21205650.2244   21205655.4114
       239.0004        204.0004
  21481211.5474  -16871302.61949 -13132119.68547  21481211.9864   21481216.2794
       238.0004        198.0004
  20427767.5664  -25757336.01049 -20051510.80148  20427767.1614   20427769.3414
       241.0004        214.0004
 06  5 10  2  9 30.0000000  0  6G24G27G16G20G13G23
  24379893.9684   -4036957.04449  -1148079.94845  24379894.2004   24379903.2414
       218.0004        159.0004
  23395393.3854   -9302105.21449  -7239263.28444  23395391.5374   23395398.5244
       206.0004        131.0004
  21972461.3154  -11813702.51449  -9192760.58547  21972461.1424   21972465.4314
       236.0004        190.0004
  21219547.5944  -19336524.36849 -15044265.23447  21219547.1334   21219552.5004
       240.0004        203.0004
  21470359.8464  -16928328.50849 -13176555.43547  21470360.0094   21470364.8754
       240.0004        198.0004
  20426130.2344  -25765940.04749 -20058215.24748  20426130.2044   20426132.1994
       244.0004        215.0004
 06  5 10  2 10  0.0000000  0  6G24G27G16G20G13G23
  24390024.6514   -3983719.69549  -1106596.35345  24390024.1584   24390032.8084
       217.0004        159.0004
  23385166.0374   -9355850.02649  -7281142.32445  23385163.4884   23385173.0274
       203.0004        134.0004
  21983540.7214  -11755479.64849  -9147392.12747  21983540.2424   21983545.3144
       234.0004        190.0004
  21233527.0414  -19263061.95649 -14987021.81047  21233526.8754   21233532.1314
       240.0004        202.0004
  21459534.1304  -16985217.93549 -13220884.84147  21459534.5334   21459539.0724
       240.0004        199.0004
  20424548.5624  -25774252.22749 -20064692.27948  20424548.4694   20424550.2824
       242.0004        215.0004
 06  5 10  2 10 30.0000000  0  6G24G27G16G20G13G23
  24400196.6784   -3930265.94749  -1064944.15645  24400197.6454   24400205.2414
       216.0004        156.0004
  23374971.6474   -9409420.36849  -7322885.38745  23374971.3244   23374980.0014
       208.0004        138.0004
  21994711.2924  -11696777.47349  -9101650.18747  21994711.0484   21994716.2564
       234.0004        190.0004
  21247588.8384  -19189167.07549 -14929441.39947  21247588.4614   21247594.0264
       239.0004        202.0004
  21448735.0724  -17041967.46149 -13265105.23347  21448735.2604   21448739.5274
       239.0004        199.0004
  20423022.9714  -25782268.99349 -20070939.10948  20423022.6764   20423024.7634
       241.0004        214.0004
 06  5 10  2 11  0.0000000  0  6G24G27G16G20G13G23
  24410409.0944   -3876600.36549  -1023126.87645  24410409.2654   24410417.8234
       211.0004        151.0004
  23364810.5324   -9462818.51149  -7364494.33245  23364810.3384   23364816.5644
       208.0004        141.0004
  22005972.3774  -11637600.01249  -9055537.88847  22005972.5124   22005977.5964
       234.0004        190.0004
  21261732.1354  -19114843.54749 -14871526.98047  21261731.7094   21261737.4404
       239.0004        202.0004
  21437962.6144  -17098577.28549 -13309216.78047  21437962.9974   21437967.1334
       239.0004        199.0004
  20421553.4324  -25789991.33549 -20076956.52248  20421553.2734   20421555.4534
       242.0004        214.0004
 06  5 10  2 11 30.0000000  0  6G24G27G16G20G13G23
  24420661.0784   -3822725.65749   -981146.62045  24420660.3094   24420670.9574
       204.0004        143.0004
  23354681.9374   -9516044.94149  -7405969.40945  23354681.7604   23354687.9734
       211.0004        143.0004
  22017323.5484  -11577949.53749  -9009057.00547  22017323.2244   22017327.9464
       233.0004        191.0004
  21275956.4854  -19040093.59849 -14813280.28147  21275955.9924   21275961.6124
       239.0004        202.0004
  21427216.9514  -17155046.24449 -13353218.54847  21427216.9664   21427221.3944
       239.0004        199.0004
  20420140.2874  -25797417.70449 -20082743.29948  20420139.9014   20420141.8674
       241.0004        215.0004
 06  5 10  2 12  0.0000000  0  6G24G27G16G20G13G23
  24430952.4674   -3768642.12549   -939003.67745  24430951.7944   24430959.9034
       204.0004        136.0004
  23344586.2444   -9569097.39449  -7447308.95045  23344585.1404   23344591.0774
       208.0004        145.0004
  22028764.6484  -11517825.88249  -8962207.42647  22028764.4444   22028769.0484
       233.0004        190.0004
  21290262.1034  -18964917.27949 -14754701.35247  21290262.1484   21290267.3234
       240.0004        202.0004
  21416498.7284  -17211370.61649 -13397107.66247  21416498.9064   21416503.5414
       238.0004        199.0004
  20418784.0504  -25804544.62749 -20088296.76248  20418784.0604   20418786.0854
       242.0004        215.0004
 06  5 10  2 12 30.0000000  0  6G24G27G16G20G13G23
  24441282.9024   -3714354.35449   -896701.64945  24441284.1114   24441292.4214
       203.0004        135.0004
  23334522.9904   -9621978.38549  -7488514.86945  23334522.1564   23334529.7654
       214.0004        147.0004
  22040295.1274  -11457232.64249  -8914991.92047  22040294.8214   22040299.5834
       234.0004        190.0004
  21304648.1334  -18889318.84549 -14695793.49147  21304647.6594   21304653.0624
       240.0004        202.0004
  21405807.9704  -17267550.76049 -13440884.38747  21405808.0374   21405812.4884
       238.0004        199.0004
  20417484.7424  -25811372.68849 -20093617.32948  20417484.1604   20417486.5494
       241.0004        215.0004
 06  5 10  2 13  0.0000000  0  6G24G27G16G20G13G23
  24451651.7174   -3659864.99049   -854242.48045  24451652.2834   24451659.6704
       207.0004        141.0004
  23324492.7624   -9674688.34549  -7529587.52045  23324493.1394   23324498.9664
       216.0004        152.0004
  22051914.5504  -11396172.27349  -8867412.42047  22051914.9274   22051918.9964
       236.0004        190.0004
  21319114.0524  -18813300.35049 -14636558.32047  21319113.5154   21319119.1254
       241.0004        202.0004
  21395144.8904  -17323585.59149 -13484547.88447  21395145.1094   21395149.8264
       241.0004        199.0004
  20416242.4134  -25817900.65349 -20098704.05648  20416242.3004   20416243.9254
       243.0004        214.0004
 06  5 10  2 13 30.0000000  0  6G24G27G16G20G13G23
  24462058.6204   -3605176.62649   -811628.18745  24462059.0394   24462068.1274
       208.0004        145.0004
  23314494.8144   -9727227.59649  -7570527.16945  23314494.0424   23314500.9864
       216.0004        154.0004
  22063622.5124  -11334646.69249  -8819470.40547  22063622.4224   22063627.2814
       233.0004        189.0004
  21333659.3534  -18736864.02649 -14576997.57647  21333658.7854   21333664.3024
       239.0004        202.0004
  21384509.8164  -17379473.18049 -13528096.64647  21384510.1524   21384514.7014
       240.0004        200.0004
  20415057.6804  -25824127.01349 -20103555.76148  20415057.3704   20415059.4824
       242.0004        215.0004
 06  5 10  2 14  0.0000000  0  6G24G27G16G20G13G23
  24472502.7784   -3550293.38949   -768862.05445  24472504.5284   24472511.2164
       202.0004        144.0004
  23304529.0204   -9779597.92749  -7611335.19445  23304528.1914   23304536.1864
       213.0004        156.0004
  22075418.2254  -11272659.33949  -8771168.58547  22075418.4464   22075423.0384
       233.0004        188.0004
  21348283.4464  -18660013.63449 -14517114.18647  21348283.2914   21348288.5224
       240.0004        201.0004
  21373902.8054  -17435213.53549 -13571530.68047  21373903.1354   21373907.4714
       240.0004        200.0004
  20413930.1534  -25830052.10649 -20108172.72048  20413929.7904   20413932.2434
       242.0004        215.0004
 06  5 10  2 14 30.0000000  0  6G24G27G16G20G13G23
  24482983.8504   -3495215.94649   -725944.58045  24482983.4434   24482992.3084
       201.0004        143.0004
  23294595.6174   -9831797.62949  -7652010.22745  23294595.3174   23294601.9044
       212.0004        156.0004
  22087301.8854  -11210210.50249  -8722507.16246  22087301.7694   22087306.6474
       232.0004        187.0004
  21362986.4214  -18582749.36349 -14456908.27447  21362985.9534   21362991.3764
       239.0004        201.0004
  21363324.5104  -17490803.22149 -13614847.30447  21363324.7184   21363328.9644
       240.0004        200.0004
  20412860.6244  -25835672.44449 -20112552.20048  20412860.6714   20412862.4974
       242.0004        215.0004
 06  5 10  2 15  0.0000000  0  6G24G27G16G20G13G23
  24493500.8514   -3439948.72549   -682879.26345  24493501.3924   24493510.2624
       207.0004        145.0004
  23284694.3464   -9883829.07049  -7692554.16245  23284694.0124   23284701.9634
       216.0004        158.0004
  22099272.5514  -11147304.50449  -8673489.51846  22099272.0624   22099277.3134
       233.0004        187.0004
  21377767.3024  -18505075.64649 -14396383.32147  21377766.8004   21377772.3914
       240.0004        200.0004
  21352774.7374  -17546242.55049 -13658046.77047  21352774.7824   21352779.3514
       241.0004        200.0004
  20411848.9864  -25840988.65549 -20116694.69748  20411848.7814   20411851.0414
       243.0004        215.0004
 06  5 10  2 15 30.0000000  0  6G24G27G16G20G13G23
  24504053.9004   -3384493.33749   -639667.35645  24504055.2864   24504063.2944
       214.0004        147.0004
  23274825.3584   -9935691.61349  -7732966.48145  23274825.3544   23274831.7604
       212.0004        159.0004
  22111330.0814  -11083941.79349  -8624115.98246  22111329.6854   22111334.6014
       233.0004        187.0004
  21392625.8164  -18426993.34049 -14335539.98847  21392625.2344   21392630.7554
       239.0004        200.0004
  21342254.0524  -17601528.78249 -13701126.92747  21342254.2854   21342258.3624
       240.0004        200.0004
  20410895.6894  -25845998.19149 -20120598.22748  20410895.6514   20410897.5794
       243.0004        215.0004
 06  5 10  2 16  0.0000000  0  6G24G27G16G20G13G23
  24514642.0514   -3328853.84849   -596312.02445  24514641.3774   24514651.0934
       215.0004        146.0004
  23264988.0974   -9987387.16649  -7773248.69345  23264987.9044   23264994.3854
       213.0004        158.0004
  22123473.7894  -11020126.23549  -8574389.58547  22123473.6184   22123478.4574
       233.0004        188.0004
  21407561.3614  -18348506.49649 -14274381.43547  21407561.1044   21407566.1384
       240.0004        200.0004
  21331762.4854  -17656662.02249 -13744087.88547  21331762.5684   21331767.0054
       240.0004        200.0004
  20410000.7414  -25850701.39149 -20124263.05048  20410000.5014   20410002.3494
       243.0004        215.0004
 06  5 10  2 16 30.0000000  0  6G24G27G16G20G13G23
  24525264.8264   -3273031.13049   -552813.92845  24525264.1034   24525270.0704
       210.0004        140.0004
  23255182.8074  -10038913.70449  -7813399.17245  23255182.2924   23255189.4844
       215.0004        160.0004
  22135703.6184  -10955858.23649  -8524310.63047  22135703.0824   22135708.0364
       232.0004        188.0004
  21422573.9244  -18269615.37949 -14212907.85647  21422573.5114   21422578.6204
       239.0004        200.0004
  21321300.6824  -17711638.95249 -13786927.04247  21321300.7714   21321305.3384
       240.0004        200.0004
  20409164.7254  -25855094.93849 -20127686.58248  20409164.3804   20409166.1814
       243.0004        215.0004
 06  5 10  2 17  0.0000000  0  6G24G27G16G20G13G23
  24535921.7044   -3217028.25949   -509175.43645  24535921.2754   24535929.0754
       210.0004        136.0004
  23245409.4224  -10090272.57149  -7853419.01745  23245409.0284   23245415.3934
       219.0004        161.0004
  22148018.9704  -10891140.30649  -8473881.08747  22148018.5864   22148024.4114
       233.0004        188.0004
  21437662.8084  -18190322.69449 -14151121.36847  21437662.4554   21437667.8334
       239.0004        199.0004
  21310868.8394  -17766458.40449 -13829643.49347  21310869.3124   21310873.9704
       240.0004        201.0004
  20408387.7284  -25859178.04249 -20130868.21748  20408387.3774   20408389.6504
       243.0004        215.0004
 06  5 10  2 17 30.0000000  0  6G24G27G16G20G13G23
  24546612.4694   -3160849.44049   -465399.79245  24546611.0954   24546621.6034
       209.0004        138.0004
  23235667.6464  -10141465.88449  -7893309.90546  23235667.1824   23235673.8184
       220.0004        163.0004
  22160419.2184  -10825976.53849  -8423104.13747  22160418.9314   22160424.0134
       232.0004        188.0004
  21452827.4184  -18110632.46849 -14089025.09747  21452827.0974   21452832.6244
       239.0004        199.0004
  21300467.0274  -17821120.31349 -13872237.16647  21300467.2634   21300471.9794
       240.0004        202.0004
  20407669.7204  -25862950.87349 -20133808.06248  20407669.4044   20407671.6464
       243.0004        216.0004
 06  5 10  2 18  0.0000000  0  6G24G27G16G20G13G23
  24557336.3824   -3104495.26749   -421487.50045  24557335.9604   24557345.5054
       206.0004        139.0004
  23225957.6954  -10192491.69549  -7933070.23746  23225957.4744   23225963.9654
       222.0004        164.0004
  22172904.3424  -10760366.77649  -8371979.66146  22172903.8184   22172908.7664
       232.0004        187.0004
  21468067.6234  -18030545.00649 -14026619.31047  21468067.2264   21468072.3004
       239.0004        200.0004
  21290095.9384  -17875621.05149 -13914705.26547  21290096.3634   21290100.5254
       241.0004        202.0004
  20407011.4664  -25866410.23149 -20136503.65948  20407010.9704   20407013.0714
       243.0004        216.0004
 06  5 10  2 18 30.0000000  0  7G24G27G16G20G 3G13G23
  24568092.6644   -3047969.90049   -377441.85945  24568092.4544   24568100.7824
       209.0004        141.0004
  23216279.3444  -10243351.85549  -7972701.50146  23216279.0044   23216285.5124
       223.0004        166.0004
  22185473.6354  -10694314.73349  -8320510.55946  22185472.9474   22185477.7294
       231.0004        186.0004
  21483382.6144  -17950064.00749 -13963906.86547  21483382.1244   21483387.6034
       238.0004        199.0004
                  -1488721.56549  -1150946.41243
       204.0004         74.0004
  21279755.5704  -17929960.38949 -13957047.59247  21279755.5324   21279760.4554
       241.0004        202.0004
  20406412.7964  -25869555.83749 -20138954.76848  20406412.4054   20406414.6954
       243.0004        216.0004
 06  5 10  2 19  0.0000000  0  7G24G27G16G20G 3G13G23
  24578881.3864   -2991275.65349   -333264.63945  24578881.2954   24578889.7074
       204.0004        141.0004
  23206632.4894  -10294046.65749  -8012203.90846  23206632.7624   23206638.3484
       225.0004        170.0004
  22198126.6124  -10627822.37149  -8268698.35046  22198126.5274   22198130.8334
       231.0004        184.0004
  21498772.1274  -17869191.40349 -13900889.28347  21498772.0904   21498776.9744
       239.0004        198.0004
                  -1554409.49249  -1202131.62343
       206.0004         74.0004
  21269446.1024  -17984136.48749 -13999262.72447  21269446.6884   21269451.0034
       241.0004        203.0004
  20405874.1704  -25872386.40949 -20141160.41248  20405874.0374   20405876.1334
       243.0004        216.0004
 06  5 10  2 19 30.0000000  0  7G24G27G16G20G 3G13G23
  24589701.5924   -2934414.34049   -288957.20745  24589700.5054   24589710.4324
       198.0004        137.0004
  23197017.1204  -10344575.90349  -8051577.30946  23197017.2194   23197023.3794
       225.0004        174.0004
  22210863.2784  -10560890.79949  -8216543.89746  22210863.8994   22210868.3024
       231.0004        184.0004
  21514235.9424  -17787929.09849 -13837568.03347  21514235.7744   21514240.7774
       238.0004        197.0004
                  -1619902.77949  -1109261.23143
       206.0004         74.0004
  21259168.3984  -18038146.56849 -14041348.48347  21259168.8744   21259173.1904
       241.0004        203.0004
  20405395.9274  -25874899.59249 -20143118.73148  20405395.8084   20405397.5924
       243.0004        216.0004
 06  5 10  2 20  0.0000000  0  7G24G27G16G20G 3G13G23
  24600552.7184   -2877389.74549   -244522.48445  24600553.2314   24600562.2264
       199.0004        136.0004
  23187433.1604  -10394940.48749  -8090822.38746  23187433.1544   23187439.7374
       226.0004        178.0004
  22223683.0004  -10493523.18749  -8164049.66146  22223683.0544   22223687.5614
       230.0004        184.0004
  21529773.2824  -17706280.00249 -13773945.38747  21529772.8484   21529778.1384
       238.0004        197.0004
                  -1685199.30549  -1160142.17043
       205.0004         74.0004
  21248922.0984  -18091990.88449 -14083305.07447  21248921.9674   21248926.2124
       240.0004        202.0004
  20404978.1144  -25877095.16749 -20144829.55948  20404977.6584   20404979.7984
       242.0004        215.0004
 06  5 10  2 20 30.0000000  0  7G24G27G16G20G 3G13G23
  24611434.5524   -2820205.42749   -199963.34445  24611436.0274   24611443.5224
       205.0004        139.0004
  23177880.1814  -10445141.73749  -8129940.18546  23177879.3084   23177886.1414
       225.0004        180.0004
  22236584.8784  -10425722.81749  -8111218.21846  22236584.5934   22236589.8924
       230.0004        184.0004
  21545383.4704  -17624247.60549 -13710024.05547  21545383.1324   21545388.6884
       237.0004        197.0004
                  -1750296.64949  -1210867.18244                  23785534.4904
       206.0004        116.0004
  21238707.6324  -18145667.99049 -14125131.38047  21238708.0384   21238712.2474
       241.0004        202.0004
  20404620.8274  -25878972.68449 -20146292.55648  20404620.6654   20404622.5384
       243.0004        215.0004
 06  5 10  2 21  0.0000000  0  7G24G27G16G20G 3G13G23
  24622346.7064   -2762862.58249   -155280.67445  24622347.7234   24622356.0474
       210.0004        145.0004
  23168358.1904  -10495179.16749  -8168930.33746  23168357.4804   23168364.2234
       224.0004        181.0004
  22249568.8634  -10357490.97249  -8058050.54946  22249568.4844   22249573.8104
       231.0004        185.0004
  21561066.3884  -17541833.24049 -13645805.09847  21561066.0854   21561071.3554
       237.0004        196.0004
  23773178.1354   -1815190.53649  -1261433.78645  23773177.5224   23773185.4864
       206.0004        134.0004
  21228525.5584  -18199175.52349 -14166825.54347  21228525.6484   21228529.9844
       241.0004        203.0004
  20404324.5344  -25880529.95549 -20147506.00948  20404324.0804   20404326.0874
       243.0004        215.0004
 06  5 10  2 21 30.0000000  0  7G24G27G16G20G 3G13G23
  24633288.2644   -2705365.31449   -110477.67745  24633288.6194   24633298.2504
       208.0004        149.0004
  23158867.1184  -10545054.32849  -8207794.04246  23158867.0404   23158873.4364
       227.0004        182.0004
  22262634.3724  -10288831.24349  -8004549.48046  22262634.9094   22262639.1424
       232.0004        185.0004
  21576821.2824  -17459040.61049 -13581291.38247  21576820.5984   21576826.3434
       237.0004        196.0004
  23760868.3334   -1879879.19749  -1311840.48645  23760867.5944   23760874.7874
       208.0004        139.0004
  21218375.7944  -18252512.69049 -14208386.94947  21218376.4144   21218380.3814
       242.0004        203.0004
  20404089.1884  -25881766.36549 -20148469.44648  20404089.0134   20404090.9254
       243.0004        215.0004
 06  5 10  2 22  0.0000000  0  7G24G27G16G20G 3G13G23
  24644258.6464   -2647717.11749    -65557.09245  24644258.6854   24644266.7954
       205.0004        145.0004
  23149406.8354  -10594768.34549  -8246532.17346  23149406.4894   23149413.0934
       227.0004        183.0004
  22275780.9424  -10219746.56049  -7950717.25946  22275781.1684   22275785.4564
       233.0004        186.0004
  21592647.6154  -17375872.80449 -13516485.30447  21592647.2414   21592652.6024
       238.0004        196.0004
  23748597.9434   -1944360.21849  -1362085.36645  23748597.1784   23748604.3594
       210.0004        141.0004
  21208258.7384  -18305678.91049 -14249815.15647  21208259.0184   21208263.0614
       242.0004        203.0004
  20403915.0564  -25882681.75149 -20149182.72548  20403914.6544   20403916.3534
       244.0004        216.0004
 06  5 10  2 22 30.0000000  0  7G24G27G16G20G 3G13G23
  24655256.9274   -2589919.64749    -20520.18245  24655255.7024   24655263.9524
       202.0004        140.0004
  23139977.1664  -10644320.89249  -8285144.50446  23139977.2374   23139983.6304
       228.0004        182.0004
  22289008.0734  -10150238.10649  -7896554.83746  22289007.9214   22289012.2684
       232.0004        185.0004
  21608545.1404  -17292331.13949 -13451387.92347  21608545.0264   21608550.0404
       238.0004        196.0004
  23736368.1204   -2008629.31149  -1412165.12545  23736368.3444   23736374.9124
       209.0004        143.0004
  21198174.6184  -18358671.36249 -14291107.95747  21198174.2694   21198179.0374
       241.0004        203.0004
  20403802.3624  -25883273.81949 -20149644.08548  20403802.0524   20403804.1504
       243.0004        216.0004
 06  5 10  2 23  0.0000000  0  7G24G27G16G20G 3G13G23
  24666283.2134   -2531976.39949     24630.29445  24666284.1374   24666291.3854
       210.0004        136.0004
  23130578.1574  -10693713.24949  -8323632.01646  23130577.8144   23130584.6324
       228.0004        182.0004
  22302315.1974  -10080309.14349  -7842064.75446  22302315.3184   22302319.9384
       232.0004        185.0004
  21624513.0694  -17208419.04949 -13386001.90647  21624512.3024   21624518.3694
       237.0004        195.0004
  23724178.7554   -2072684.17649  -1462077.95245  23724177.4044   23724184.8594
       210.0004        144.0004
  21188123.5584  -18411489.33349 -14332264.78647  21188123.7274   21188128.0014
       241.0004        203.0004
  20403751.3154  -25883542.02349 -20149853.07548  20403751.1474   20403753.4754
       244.0004        216.0004
 06  5 10  2 23 30.0000000  0  7G24G27G16G20G 3G13G23
  24677337.2064   -2473888.86449     69893.22145  24677336.8854   24677344.8234
       211.0004        136.0004
  23121209.6954  -10742944.59449  -8361994.06646  23121209.8994   23121215.8954
       226.0004        180.0004
  22315702.0604  -10009960.74749  -7787247.84346  22315701.7714   22315706.7824
       230.0004        185.0004
  21640551.1854  -17124138.11549 -13320328.48147  21640550.7484   21640556.2644
       236.0004        195.0004
  23712031.0134   -2136521.08549  -1511820.94245  23712030.2634   23712036.9784
       209.0004        144.0004
  21178106.3554  -18464130.27249 -14373283.68747  21178106.7024   21178110.5784
       241.0004        203.0004
  20403762.3844  -25883484.12749 -20149807.96648  20403762.2994   20403764.4424
       242.0004        216.0004
 06  5 10  2 24  0.0000000  0  7G24G27G16G20G 3G13G23
  24688417.5324   -2415660.53349    115265.85345  24688417.9344   24688425.9094
       208.0004        137.0004
  23111871.6384  -10792016.29249  -8400231.71346  23111871.3944   23111877.7864
       225.0004        178.0004
  22329168.1044   -9939195.88349  -7732106.39646  22329168.1494   22329172.5484
       231.0004        185.0004
  21656658.9404  -17039491.21149 -13254369.87447  21656658.4774   21656663.9194
       237.0004        195.0004
  23699925.2054   -2200137.17149  -1561391.85445  23699924.7344   23699931.8744
       212.0004        146.0004
  21168123.0164  -18516593.13049 -14414163.80547  21168123.0434   21168127.2164
       240.0004        203.0004
  20403835.5554  -25883099.45249 -20149508.22048  20403835.3894   20403837.2504
       242.0004        215.0004
 06  5 10  2 24 30.0000000  0  7G24G27G16G20G 3G13G23
  24699524.3344   -2357293.79549    160746.36145  24699524.9754   24699532.0824
       204.0004        136.0004
  23102563.9504  -10840928.45549  -8438345.04746  23102563.8584   23102569.5924
       224.0004        176.0004
  22342713.0784   -9868016.83449  -7676642.22046  22342712.9224   22342717.5534
       231.0004        184.0004
  21672835.9414  -16954480.60149 -13188127.87847  21672835.6384   21672840.4994
       237.0004        195.0004
  23687862.0274   -2263529.17449  -1610788.15445  23687861.2954   23687868.2474
       211.0004        147.0004
  21158173.8684  -18568875.73849 -14454903.47647  21158174.4314   21158178.3054
       242.0004        204.0004
  20403971.2404  -25882386.33549 -20148952.55348  20403971.1054   20403972.9924
       242.0004        215.0004
 06  5 10  2 25  0.0000000  0  7G24G27G16G20G 3G13G23
  24710657.0994   -2298792.14249    206332.05245  24710657.6484   24710666.1104
       201.0004        134.0004
  23093286.4874  -10889682.03649  -8476334.80746  23093286.4804   23093292.4304
       221.0004        174.0004
  22356336.2974   -9796426.62849  -7620857.64846  22356336.1214   22356340.2754
       232.0004        184.0004
  21689081.5504  -16869109.31349 -13121604.81247  21689081.2714   21689086.1284
       236.0004        194.0004
  23675841.9834   -2326694.50449  -1660007.83245  23675841.5964   23675848.9414
       212.0004        148.0004
  21148259.3744  -18620977.12749 -14495501.94547  21148259.7244   21148263.8324
       242.0004        204.0004
  20404169.5254  -25881344.41149 -20148140.66748  20404169.5074   20404171.5054
       243.0004        215.0004
 06  5 10  2 25 30.0000000  0  7G24G27G16G20G 3G13G23
  24721815.1654   -2240157.76749    252021.12245  24721814.8444   24721824.1664
       203.0004        133.0004
  23084038.9044  -10938277.41249  -8514201.28446  23084038.8124   23084043.9984
       221.0004        171.0004
  22370037.3364   -9724427.34949  -7564754.31546  22370036.9064   22370041.5354
       230.0004        184.0004
  21705395.2994  -16783379.73849 -13054802.55947  21705395.0784   21705400.4174
       236.0004        193.0004
  23663865.6974   -2389629.77749  -1709048.24645  23663865.3974   23663872.0944
       212.0004        149.0004
  21138379.6214  -18672895.54649 -14535957.83547  21138379.7344   21138383.7734
       241.0004        204.0004
  20404430.6964  -25879972.14649 -20147071.36948  20404430.6574   20404432.2654
       243.0004        215.0004
 06  5 10  2 26  0.0000000  0  7G24G27G16G20G 3G13G23
  24732997.5864   -2181393.34149    297811.49845  24732996.6834   24733007.4914
       200.0004        133.0004
  23074821.5054  -10986715.02349  -8551944.83246  23074821.4244   23074827.5984
       221.0004        171.0004
  22383815.8184   -9652020.94449  -7508333.75446  22383815.8774   22383820.4394
       231.0004        183.0004
  21721776.8934  -16697294.13749 -12987722.90047  21721776.5774   21721781.7304
       236.0004        193.0004
  23651934.0184   -2452331.90049  -1757906.99445  23651934.4074   23651940.0584
       213.0004        150.0004
  21128534.9104  -18724629.43149 -14576269.94147  21128535.2094   21128539.1124
       242.0004        204.0004
  20404754.9654  -25878268.23049 -20145743.64048  20404754.3434   20404756.4024
       241.0004        215.0004
 06  5 10  2 26 30.0000000  0  7G24G27G16G20G 3G13G23
  24744203.9244   -2122502.13849    343700.58245  24744204.2744   24744212.0184
       206.0004        137.0004
  23065634.0414  -11034995.73649  -8589566.12746  23065633.7744   23065639.7464
       220.0004        171.0004
  22397671.2504   -9579210.60049  -7451598.43346  22397671.5954   22397675.3804
       230.0004        182.0004
  21738225.6364  -16610855.99749 -12920368.54347  21738225.3804   21738230.6114
       236.0004        194.0004
  23640046.9704   -2514798.23449  -1806581.98245  23640046.6464   23640053.8024
       214.0004        151.0004
  21118725.7094  -18776177.34549 -14616437.13347  21118725.8504   21118730.5264
       242.0004        205.0004
  20405142.4344  -25876231.64249 -20144156.69648  20405142.3344   20405144.2204
       242.0004        215.0004
 06  5 10  2 27  0.0000000  0  7G24G27G16G20G 3G13G23
  24755434.5184   -2063485.92249    389687.18145  24755434.8594   24755443.5364
       207.0004        142.0004
  23056476.2544  -11083119.27049  -8627064.95146  23056475.8944   23056482.8004
       219.0004        172.0004
  22411603.1934   -9505997.69649  -7394549.42846  22411602.9804   22411607.4124
       228.0004        181.0004
  21754741.2154  -16524066.83749 -12852740.64347  21754740.9764   21754745.9294
       236.0004        194.0004
  23628205.6404   -2577024.65649  -1855070.03745  23628205.0544   23628212.8654
       214.0004        151.0004
  21108952.3114  -18827536.60949 -14656457.31447  21108952.3764   21108957.0354
       241.0004        205.0004
  20405593.7884  -25873860.15949 -20142308.78448  20405593.1924   20405595.6164
       241.0004        215.0004
 06  5 10  2 27 30.0000000  0  7G24G27G16G20G 3G13G23
  24766688.0874   -2004348.89849    435767.97945  24766688.3184   24766697.5354
       207.0004        145.0004
  23047348.0414  -11131087.33149  -8664442.60846  23047347.8434   23047354.4894
       220.0004        172.0004
  22425611.0414   -9432385.79949  -7337189.52746  22425610.8434   22425615.5384
       230.0004        181.0004
  21771322.7754  -16436930.07249 -12784841.88747  21771322.3774   21771327.9364
       234.0004        192.0004
  23616410.1144   -2639009.60649  -1903369.92745  23616409.3604   23616417.1804
       214.0004        152.0004
  21099214.8484  -18878706.99049 -14696330.32147  21099215.2374   21099219.4144
       243.0004        206.0004
  20406108.5604  -25871154.12849 -20140200.18948  20406108.2354   20406110.3394
       242.0004        214.0004
 06  5 10  2 28  0.0000000  0  7G24G27G16G20G 3G13G23
  24777964.0164   -1945093.12349    481941.23745  24777964.8624   24777974.1894
       208.0004        146.0004
  23038249.5774  -11178899.88049  -8701699.08346  23038249.5324   23038255.5524
       221.0004        172.0004
  22439694.5044   -9358376.86849  -7279520.23046  22439694.6734   22439698.8024
       227.0004        181.0004
  21787969.9724  -16349447.82949 -12716673.92847  21787969.4034   21787974.6424
       234.0004        190.0004
  23604661.4544   -2700749.32149  -1951478.73945  23604660.9134   23604667.8524
       215.0004        153.0004
  21089513.9354  -18929686.12649 -14736054.30847  21089514.2834   21089518.1424
       244.0004        206.0004
  20406687.5654  -25868111.71949 -20137829.47948  20406687.3744   20406689.3114
       242.0004        215.0004
 06  5 10  2 28 30.0000000  0  7G24G27G16G20G 3G13G23
  24789262.3094   -1885721.38049    528204.81445  24789262.5114   24789272.2624
       206.0004        143.0004
  23029180.6764  -11226557.61749  -8738834.92646  23029180.0904   23029186.7594
       222.0004        172.0004
  22453852.8664   -9283973.78449  -7221543.82946  22453852.6714   22453856.9684
       227.0004        180.0004
  21804682.4264  -16261623.24749 -12648239.20747  21804682.0834   21804687.5364
       237.0004        190.0004
  23592959.9114   -2762241.11249  -1999394.35145  23592959.5344   23592966.3604
       217.0004        154.0004
  21079849.6314  -18980472.59749 -14775628.16447  21079849.7244   21079854.1524
       243.0004        207.0004
  20407330.6324  -25864732.16649 -20135196.07048  20407330.2194   20407332.4624
       244.0004        215.0004
 06  5 10  2 29  0.0000000  0  7G24G27G16G20G 3G13G23
  24800581.8924   -1826236.46149    574556.55445  24800581.8944   24800589.5094
       209.0004        138.0004
  23020141.0344  -11274061.05049  -8775850.55546  23020140.5384   23020146.9504
       225.0004        174.0004
  22468085.8164   -9209178.82049  -7163262.04246  22468085.3784   22468090.5634
       227.0004        180.0004
  21821459.7754  -16173458.60549 -12579539.49847  21821459.7584   21821464.6114
       237.0004        191.0004
  23581306.2084   -2823481.87949  -2047114.36145  23581305.5224   23581312.8074
       215.0004        156.0004
  21070222.0934  -19031065.00549 -14815050.80747  21070222.3994   21070226.3694
       243.0004        207.0004
  20408038.1134  -25861014.29649 -20132299.02848  20408038.1494   20408039.7294
       244.0004        214.0004
 06  5 10  2 29 30.0000000  0  7G24G27G16G20G 3G13G23
  24811922.7944   -1766640.74749    620994.65845  24811924.3624   24811931.6084
       205.0004        137.0004
  23011130.8744  -11321410.19949  -8812745.97746  23011130.8764   23011136.8664
       226.0004        177.0004
  22482392.9814   -9133993.91249  -7104676.42646  22482393.2734   22482397.7994
       228.0004        181.0004
  21838301.3094  -16084956.55649 -12510576.89847  21838301.1994   21838306.1804
       236.0004        192.0004
  23569700.8294   -2884467.90949  -2094635.86645  23569700.1664   23569707.1384
       214.0004        155.0004
  21060632.1444  -19081460.93649 -14854320.36347  21060632.3684   21060636.0754
       242.0004        206.0004
  20408810.4484  -25856956.07049 -20129136.77348  20408809.9654   20408812.0664
       242.0004        214.0004
 06  5 10  2 30  0.0000000  0  6G27G16G20G 3G13G23
  23002149.6344  -11368606.64749  -8849522.39546  23002149.3334   23002155.5114
       227.0004        178.0004
  22496773.7894   -9058422.39749  -7045789.53046  22496773.4484   22496778.3884
       228.0004        181.0004
  21855206.4234  -15996120.00549 -12441353.63347  21855205.7164   21855211.2074
       236.0004        191.0004
  23558144.3714   -2945196.83549  -2141957.04645  23558143.8264   23558151.4234
       216.0004        156.0004
  21051079.5854  -19131659.57749 -14893436.17047  21051079.2714   21051083.4534
       242.0004        206.0004
  20409647.3934  -25852557.35449 -20125709.20748  20409647.4354   20409649.2644
       243.0004        214.0004
 06  5 10  2 30 30.0000000  0  6G27G16G20G 3G13G23
  22993199.3064  -11415640.36149  -8886172.00846  22993198.9404   22993205.6734
       226.0004        179.0004
  22511229.7044   -8982456.22149  -6986595.10946  22511229.5304   22511234.8784
       227.0004        180.0004
  21872176.5334  -15906941.05649 -12371863.57247  21872175.7684   21872181.6724
       234.0004        191.0004
  23546639.4514   -3005655.37549  -2189067.53245  23546638.9914   23546646.2194
       216.0004        156.0004
  21041566.8434  -19181648.70949 -14932388.72747  21041567.5164   21041571.6174
       244.0004        207.0004
  20410551.6014  -25847806.26649 -20122007.06348  20410551.3394   20410553.1264
       243.0004        214.0004
 06  5 10  2 31  0.0000000  0  6G27G16G20G 3G13G23
  22984277.2484  -11462526.29949  -8922706.46346  22984277.4164   22984283.1124
       224.0004        180.0004
  22525757.5244   -8906112.24849  -6927106.30946  22525758.0424   22525761.6154
       228.0004        179.0004
  21889208.5734  -15817436.83449 -12302120.03947  21889207.9374   21889213.8564
       235.0004        190.0004
  23535183.8264   -3065854.82449  -2235976.14645  23535182.9924   23535190.8184
       213.0004        156.0004
  21032091.8824  -19231440.73949 -14971187.71147  21032092.3954   21032096.6344
       243.0004        208.0004
  20411520.1264  -25842716.28949 -20118040.85048  20411520.0294   20411521.7744
       243.0004        214.0004
 06  5 10  2 31 30.0000000  0  6G27G16G20G 3G13G23
  22975383.3914  -11509264.34249  -8959125.66346  22975383.4734   22975388.8194
       224.0004        179.0004
  22540356.8894   -8829392.26749  -6867324.51146  22540356.7064   22540361.2194
       227.0004        179.0004
  21906302.1654  -15727609.40949 -12232124.66547  21906301.6834   21906307.4414
       235.0004        190.0004
  23523777.9974   -3125791.53649  -2282680.00745  23523777.4184   23523785.2164
       213.0004        155.0004
  21022654.5794  -19281033.80549 -15009831.64947  21022654.5694   21022658.8024
       243.0004        208.0004
  20412553.5744  -25837285.73549 -20113809.25648  20412553.4434   20412555.4954
       244.0004        214.0004
 06  5 10  2 32  0.0000000  0  6G27G16G20G 3G13G23
  22966517.6534  -11555853.48349  -8995428.83246  22966517.3514   22966524.2784
       223.0004        178.0004
  22555027.4854   -8752297.34849  -6807250.56746  22555027.5594   22555031.8454
       227.0004        178.0004
  21923456.9384  -15637459.99849 -12161878.39247  21923456.3174   21923461.8514
       234.0004        189.0004
  23512423.0504   -3185461.12849  -2329175.73645  23512423.2884   23512429.8224
       215.0004        156.0004
  21013255.7754  -19330424.56549 -15048317.94947  21013256.0164   21013260.0694
       243.0004        207.0004
  20413652.3974  -25831511.63749 -20109309.95648  20413652.0934   20413653.9524
       243.0004        215.0004
 06  5 10  2 32 30.0000000  0  6G27G16G20G 3G13G23
  22957680.5534  -11602292.10149  -9031614.72046  22957680.7884   22957686.5624
       223.0004        178.0004
  22569769.3814   -8674828.23949  -6746885.02646  22569769.6744   22569774.6344
       227.0004        179.0004
  21940672.9504  -15546989.32349 -12091381.78647  21940672.7384   21940678.2174
       233.0004        189.0004
  23501120.1474   -3244858.58749  -2375459.41545  23501120.4834   23501126.7394
       216.0004        157.0004
  21003896.2674  -19379609.29649 -15086643.70747  21003896.7054   21003900.6544
       243.0004        208.0004
  20414817.0684  -25825391.03949 -20104540.65648  20414816.7264   20414818.9944
       243.0004        214.0004
 06  5 10  2 33  0.0000000  0  6G27G16G20G 3G13G23
  22948871.7594  -11648582.38449  -9067685.03646  22948871.6874   22948878.2374
       224.0004        179.0004
  22584581.7804   -8596988.76849  -6686230.90746  22584581.8194   22584586.6124
       228.0004        179.0004
  21957949.1464  -15456201.77049 -12020638.26647  21957948.6684   21957954.2084
       234.0004        188.0004
  23489869.3144   -3303982.59249  -2421530.00945  23489870.0814   23489875.9114
       218.0004        158.0004
  20994575.9064  -19428588.08349 -15124808.98547  20994576.0674   20994580.4124
       243.0004        208.0004
  20416047.5804  -25818924.51149 -20099501.80748  20416047.2554   20416049.3644
       244.0004        214.0004
 06  5 10  2 33 30.0000000  0  6G27G16G20G 3G13G23
  22940091.1454  -11694724.70449  -9103640.05346  22940090.9464   22940096.3984
       225.0004        178.0004
  22599464.4724   -8518780.64049  -6625289.52746  22599464.7764   22599468.5064
       229.0004        179.0004
  21975285.3994  -15365099.06549 -11949649.16447  21975284.9474   21975290.3754
       235.0004        188.0004
  23478671.2084   -3362829.43549  -2467384.63745  23478670.7044   23478678.2874
       217.0004        158.0004
  20985295.2664  -19477358.12349 -15162811.60447  20985295.4524   20985299.5594
       244.0004        208.0004
  20417344.3094  -25812110.18849 -20094191.94948  20417344.0374   20417346.1884
       244.0004        214.0004
 06  5 10  2 34  0.0000000  0  6G27G16G20G 3G13G23
  22931338.6274  -11740718.97849  -9139479.70746  22931338.0254   22931343.7014
       224.0004        176.0004
  22614416.7454   -8440206.50749  -6564062.92546  22614416.3554   22614420.9104
       228.0004        179.0004
  21992681.1194  -15273683.84149 -11878416.52846  21992680.8244   21992686.1554
       234.0004        187.0004
  23467526.1944   -3421395.88049  -2513020.77145  23467525.0804   23467532.6544
       217.0004        157.0004
  20976054.6834  -19525917.69249 -15200650.22847  20976054.9194   20976058.9914
       243.0004        208.0004
  20418707.4524  -25804946.73249 -20088610.03448  20418707.4634   20418709.3354
       244.0004        215.0004
 06  5 10  2 34 30.0000000  0  6G27G16G20G 3G13G23
  22922614.3234  -11786564.76349  -9175203.67246  22922614.0354   22922619.5474
       224.0004        175.0004
  22629438.1584   -8361267.62849  -6502552.12746  22629437.7864   22629442.1794
       228.0004        180.0004
  22010136.1024  -15181957.34149 -11806941.36347  22010135.8204   22010141.0994
       233.0004        188.0004
  23456435.5064   -3479677.56749  -2558435.01145  23456435.5484   23456442.0794
       216.0004        158.0004
  20966854.7354  -19574263.77249 -15238322.49247  20966854.9484   20966859.4504
       243.0004        208.0004
  20420137.6194  -25797431.63849 -20082754.11448  20420137.3834   20420139.3054
       244.0004        215.0004
 06  5 10  2 35  0.0000000  0  6G27G16G20G 3G13G23
  22913918.1884  -11832263.87049  -9210813.31746  22913917.8054   22913923.7214
       228.0004        177.0004
  22644528.5044   -8281967.48849  -6440759.82546  22644528.1694   22644533.0704
       228.0004        180.0004
  22027649.4934  -15089923.64349 -11735226.81747  22027649.3064   22027654.9694
       235.0004        188.0004
  23445399.3404   -3537672.63449  -2603625.89945  23445399.6184   23445405.6734
       219.0004        158.0004
  20957695.4944  -19622395.95649 -15275828.07247  20957695.2994   20957700.2234
       244.0004        209.0004
  20421634.5784  -25789565.01949 -20076624.27748  20421634.0374   20421636.0944
       244.0004        215.0004
 06  5 10  2 35 30.0000000  0  6G27G16G20G 3G13G23
  22905249.8244  -11877816.83449  -9246309.10746  22905249.7564   22905255.7534
       230.0004        179.0004
  22659687.0104   -8202308.90549  -6378688.22546  22659686.6054   22659690.9584
       227.0004        180.0004
  22045220.9494  -14997585.31249 -11663274.89947  22045220.7114   22045226.1544
       234.0004        188.0004
  23434418.2494   -3595378.64849  -2648591.56545  23434417.9804   23434425.0994
       217.0004        158.0004
  20948577.0654  -19670313.03649 -15313166.04847  20948577.3524   20948581.5644
       244.0004        209.0004
  20423198.4834  -25781346.27649 -20070220.06448  20423198.1144   20423200.0864
       245.0004        215.0004
 06  5 10  2 36  0.0000000  0  6G27G16G20G 3G13G23
  22896609.2354  -11923223.56149  -9281690.94346  22896608.8684   22896614.9474
       228.0004        181.0004
  22674913.2544   -8122294.03849  -6316338.99746  22674912.9144   22674917.8524
       225.0004        178.0004
  22062849.7344  -14904945.30749 -11591087.89847  22062849.3474   22062856.0084
       234.0004        188.0004
  23423492.6904   -3652791.94349  -2693329.14345  23423493.0334   23423500.2424
       218.0004        158.0004
  20939500.2934  -19718011.91449 -15350334.00347  20939500.9254   20939503.9094
       244.0004        208.0004
  20424829.8734  -25772773.45349 -20063539.93448  20424829.4354   20424831.7724
       244.0004        215.0004
 06  5 10  2 36 30.0000000  0  6G27G16G20G 3G13G23
  22887996.2874  -11968484.60549  -9316959.27046  22887996.0104   22888001.9134
       227.0004        181.0004
  22690206.9604   -8041924.96949  -6253713.78446  22690206.9474   22690211.8644
       225.0004        177.0004
  22080535.6874  -14812005.70749 -11518667.45746  22080535.3034   22080541.0914
       232.0004        186.0004
  23412623.6654   -3709909.08149  -2737835.95845  23412623.2484   23412630.0264
       216.0004        158.0004
  20930465.3414  -19765491.28149 -15387330.90647  20930465.6904   20930469.7574
       242.0004        208.0004
  20426528.7144  -25763845.34749 -20056582.97348  20426528.2994   20426530.9284
       242.0004        215.0004
 06  5 10  2 37  0.0000000  0  6G27G16G20G 3G13G23
  22879410.6144  -12013602.08749  -9352115.69846  22879410.7344   22879416.5344
       224.0004        180.0004
  22705567.3954   -7961205.78749  -6190815.73346  22705567.5934   22705572.3404
       225.0004        177.0004
  22098277.6994  -14718770.48949 -11446016.65846  22098277.1114   22098283.4184
       231.0004        185.0004
  23401811.2834   -3766728.67349  -2782110.91745  23401811.7134   23401818.3304
       217.0004        159.0004
  20921472.1534  -19812750.45849 -15424156.22047  20921472.3664   20921476.7444
       242.0004        208.0004
  20428295.1834  -25754562.14049 -20049349.30248  20428294.9164   20428297.4754
       243.0004        215.0004
 06  5 10  2 37 30.0000000  0  6G27G16G20G 3G13G23
  22870852.2604  -12058576.13449  -9387160.36346  22870851.6294   22870857.8414
       224.0004        179.0004
  22720994.0344   -7880138.50849  -6127646.44246  22720994.1934   22720998.8084
       226.0004        176.0004
  22116075.5644  -14625241.74649 -11373137.14646  22116075.3704   22116080.9964
       232.0004        185.0004
  23391056.2004   -3823247.28449  -2826151.34445  23391055.8194   23391062.8924
       217.0004        159.0004
  20912521.3724  -19859787.04649 -15460808.10047  20912521.7324   20912525.6644
       243.0004        208.0004
  20430129.6094  -25744922.48349 -20041837.88448  20430129.2864   20430131.8544
       243.0004        215.0004
 06  5 10  2 38  0.0000000  0  6G27G16G20G 3G13G23
  22862321.4914  -12103405.33549  -9422092.16446  22862320.1954   22862327.1724
       224.0004        178.0004
  22736486.7354   -7798723.97149  -6064206.55546  22736486.1484   22736491.4354
       225.0004        176.0004
  22133929.2004  -14531420.80149 -11300029.94846  22133929.0304   22133934.8804
       233.0004        186.0004
  23380359.0314   -3879460.29849  -2869953.64245  23380358.7144   23380364.8444
       215.0004        157.0004
  20903613.5194  -19906598.06449 -15497284.21147  20903613.5194   20903617.7384
       242.0004        208.0004
  20432032.3724  -25734923.59649 -20034046.54148  20432032.1284   20432034.2814
       243.0004        215.0004
 06  5 10  2 38 30.0000000  0  6G27G16G20G 3G13G23
  22853817.6584  -12148092.68549  -9456913.44346  22853817.3024   22853823.3894
       228.0004        179.0004
  22752044.4974   -7716967.15249  -6000499.95746  22752044.1484   22752049.4534
       226.0004        175.0004
  22151837.4544  -14437312.78849 -11226699.05246  22151837.0424   22151842.9534
       233.0004        187.0004
  23369720.2364   -3935367.15949  -2913517.36745  23369719.9804   23369726.7464
       217.0004        158.0004
  20894748.3794  -19953184.23049 -15533585.10747  20894748.7464   20894753.0004
       243.0004        209.0004
  20434003.2044  -25724566.76749 -20025976.28148  20434002.8744   20434005.1374
       244.0004        215.0004
 06  5 10  2 39  0.0000000  0  6G27G16G20G 3G13G23
  22845341.2544  -12192637.46149  -9491623.63046  22845340.8204   22845346.9354
       227.0004        180.0004
  22767667.2264   -7634869.09149  -5936527.44346  22767667.3824   22767672.2654
       226.0004        176.0004
  22169800.0904  -14342918.72349 -11153145.25646  22169799.8874   22169805.6764
       232.0004        186.0004
  23359140.6794   -3990963.40149  -2956839.05345  23359140.5144   23359147.3274
       218.0004        159.0004
  20885926.9504  -19999541.52649 -15569707.66047  20885927.4734   20885931.8374
       243.0004        210.0004
  20436042.7054  -25713849.44649 -20017625.12648  20436042.4524   20436044.6454
       242.0004        215.0004
 06  5 10  2 39 30.0000000  0  6G27G16G20G 3G13G23
  22836891.4434  -12237041.69449  -9526224.30946  22836891.1394   22836897.1404
       227.0004        180.0004
  22783354.1674   -7552433.67949  -5872292.07546  22783353.8124   22783359.4244
       225.0004        175.0004
  22187816.3064  -14248242.99549 -11079371.98446  22187815.4654   22187821.6734
       230.0004        184.0004
  23348620.4054   -4046247.60449  -2999917.60845  23348620.3464   23348627.1414
       216.0004        159.0004
  20877148.9414  -20045670.24149 -15605652.09347  20877149.0104   20877153.2904
       242.0004        210.0004
  20438150.6184  -25702772.07949 -20008993.40348  20438150.3834   20438152.4674
       243.0004        215.0004
 06  5 10  2 40  0.0000000  0  7G27G 8G16G20G 3G13G23
  22828468.1734  -12281305.85049  -9560715.82746  22828467.7514   22828474.1474
       227.0004        180.0004
  24943486.8344   -1384519.11649  -1065344.10945  24943484.0254   24943493.4244
       199.0004        137.0004
  22799104.7414   -7469663.97449  -5807796.22246  22799104.5484   22799108.2504
       225.0004        174.0004
  22205885.4654  -14153288.53649 -11005381.53046  22205885.4254   22205890.6904
       229.0004        183.0004
  23338159.9494   -4101217.03549  -3042750.88745  23338158.7594   23338166.7774
       215.0004        160.0004
  20868414.6844  -20091568.58249 -15641417.02647  20868414.8874   20868418.8264
       242.0004        209.0004
  20440327.2714  -25691333.81849 -20000080.47048  20440326.9064   20440329.2894
       244.0004        215.0004
 06  5 10  2 40 30.0000000  0  7G27G 8G16G20G 3G13G23
  22820069.8574  -12325439.27649  -9595105.48046  22820069.4854   22820076.1004
       228.0004        181.0004
  24928958.8564   -1460860.99749  -1124831.22645  24928958.4514   24928966.8504
       206.0004        142.0004
  22814916.8934   -7386570.79449  -5743048.30046  22814916.7424   22814921.0264
       225.0004        173.0004
  22224005.6224  -14058066.60049 -10931182.65646  22224005.3914   22224011.3854
       231.0004        184.0004
  23327758.4884   -4155877.30649  -3085343.24345  23327758.8394   23327764.8764
       216.0004        160.0004
  20859723.1294  -20137243.01349 -15677007.48847  20859723.3344   20859727.7784
       243.0004        208.0004
  20442571.1344  -25679542.00249 -19990892.04948  20442570.9134   20442572.9634
       244.0004        215.0004
 06  5 10  2 41  0.0000000  0  7G27G 8G16G20G 3G13G23
  22811698.9934  -12369427.97349  -9629382.36046  22811698.9194   22811704.9374
       227.0004        181.0004
  24914452.6594   -1537093.44849  -1184233.04045  24914454.2224   24914461.3664
       212.0004        151.0004
  22830792.6954   -7303142.37849  -5678039.17246  22830792.8514   22830797.6054
       224.0004        174.0004
  22242178.9694  -13962565.06049 -10856765.89346  22242178.5704   22242184.0144
       230.0004        184.0004
  23317419.0794   -4210210.99249  -3127681.11745  23317418.6374   23317425.5574
       215.0004        160.0004
  20851077.2384  -20182677.51149 -15712410.97547  20851077.4094   20851081.9874
       242.0004        209.0004
  20444885.2664  -25667381.05249 -19981415.98248  20444885.1614   20444887.0884
       243.0004        215.0004
 06  5 10  2 41 30.0000000  0  7G27G 8G16G20G 3G13G23
  22803355.0264  -12413275.99949  -9663549.62846  22803355.2164   22803361.2494
       227.0004        180.0004
  24899966.5454   -1613219.99149  -1243552.32545  24899965.2534   24899973.9574
       211.0004        153.0004
  22846731.2844   -7219384.51549  -5612773.32846  22846731.1674   22846736.2974
       226.0004        175.0004
  22260404.1594  -13866790.71349 -10782136.56346  22260403.5834   22260409.6014
       230.0004        184.0004
  23307141.6964   -4264218.56549  -3169764.88845  23307141.9614   23307148.2444
       214.0004        159.0004
  20842476.7484  -20227873.39649 -15747628.53947  20842477.2634   20842480.9074
       244.0004        209.0004
  20447269.2124  -25654853.39449 -19971654.16848  20447268.8704   20447271.1954
       244.0004        214.0004
 06  5 10  2 42  0.0000000  0  7G27G 8G16G20G 3G13G23
  22795037.7864  -12456983.54349  -9697607.43646  22795037.1744   22795042.7204
       226.0004        179.0004
  24885499.9814   -1689239.99049  -1302788.59745  24885498.4684   24885507.1864
       210.0004        151.0004
  22862732.1124   -7135299.59249  -5547252.61946  22862731.7804   22862736.7844
       225.0004        175.0004
  22278680.9804  -13770745.59849 -10707296.24346  22278680.7304   22278686.6794
       231.0004        183.0004
  23296926.9654   -4317896.84049  -3211592.08045  23296926.6834   23296933.1824
       217.0004        159.0004
  20833921.9854  -20272829.17249 -15782659.01947  20833922.2064   20833925.5854
       244.0004        209.0004
  20449723.1384  -25641957.80349 -19961605.66048  20449722.9414   20449724.9344
       244.0004        215.0004
 06  5 10  2 42 30.0000000  0  7G27G 8G16G20G 3G13G23
  22786746.7944  -12500552.96849  -9731557.59846  22786746.4144   22786752.1874
       227.0004        179.0004
  24871053.6054   -1765154.97049  -1361942.98845  24871053.3284   24871060.4214
       212.0004        147.0004
  22878794.3624   -7050891.52649  -5481480.11746  22878794.5404   22878798.8004
       225.0004        173.0004
  22297008.5574  -13674434.07849 -10632248.34146  22297008.4224   22297013.8404
       229.0004        182.0004
  23286775.2834   -4371244.47649  -3253161.62045  23286775.8314   23286781.0664
       218.0004        160.0004
  20825412.9404  -20317544.26349 -15817501.93947  20825413.3164   20825417.5824
       244.0004        209.0004
  20452246.9994  -25628694.82149 -19951270.87348  20452246.8644   20452248.9694
       244.0004        215.0004
 06  5 10  2 43  0.0000000  0  7G27G 8G16G20G 3G13G23
  22778482.0004  -12543984.81049  -9765400.56446  22778481.7354   22778487.7254
       227.0004        181.0004
  24856627.5514   -1840965.40249  -1421015.91445  24856627.5254   24856634.5724
       212.0004        146.0004
  22894917.5684   -6966163.45349  -5415458.26646  22894917.5884   22894922.2394
       224.0004        172.0004
  22315386.1704  -13577859.10249 -10556995.13946  22315386.1204   22315391.5394
       231.0004        181.0004
  23276687.0444   -4424258.89149  -3294471.49945  23276686.9454   23276693.1464
       219.0004        162.0004
  20816950.1314  -20362016.81349 -15852155.85347  20816950.1754   20816954.9854
       244.0004        210.0004
  20454840.9604  -25615063.54749 -19940649.09948  20454840.8784   20454843.0354
       245.0004        215.0004
 06  5 10  2 43 30.0000000  0  7G27G 8G16G20G 3G13G23
  22770243.0654  -12587279.75849  -9799136.85646  22770242.9894   22770249.5874
       227.0004        182.0004
  24842221.0004   -1916670.95149  -1480007.13645  24842219.1104   24842229.2094
       204.0004        142.0004
  22911101.0994   -6881117.93149  -5349189.04746  22911101.4944   22911105.7674
       222.0004        170.0004
  22333813.3834  -13481024.03249 -10481539.26146  22333813.4334   22333818.9404
       230.0004        181.0004
  23266662.7714   -4476937.06149  -3335519.36946  23266662.4254   23266669.5194
       220.0004        164.0004
  20808533.6474  -20406245.29349 -15886619.59047  20808534.0724   20808537.7824
       243.0004        210.0004
  20457505.2114  -25601063.20449 -19929739.74648  20457504.9544   20457507.4464
       243.0004        215.0004
 06  5 10  2 44  0.0000000  0  7G27G 8G16G20G 3G13G23
  22762030.0574  -12630439.05349  -9832767.45346  22762030.0254   22762036.3834
       228.0004        183.0004
  24827834.1584   -1992271.97349  -1538916.91545  24827833.7784   24827842.8224
       207.0004        139.0004
  22927344.7134   -6795757.58949  -5282674.50146  22927344.9094   22927349.0404
       222.0004        168.0004
  22352289.4414  -13383931.49249 -10405882.75746  22352288.4434   22352294.3394
       230.0004        181.0004
  23256702.9344   -4529276.69849  -3376303.44346  23256702.2704   23256709.8244
       217.0004        165.0004
  20800164.0114  -20450228.40749 -15920892.15247  20800164.8854   20800168.0284
       244.0004        210.0004
  20460239.7404  -25586693.16149 -19918542.30948  20460239.7814   20460241.8064
       244.0004        215.0004
 06  5 10  2 44 30.0000000  0  7G27G 8G16G20G 3G13G23
  22753842.8234  -12673463.41249  -9866292.90446  22753842.4534   22753848.6024
       228.0004        183.0004
  24813468.1314   -2067769.01549  -1597745.66445  24813470.0624   24813475.3874
       210.0004        143.0004
  22943647.5394   -6710085.86049  -5215917.33046  22943647.2644   22943652.5334
       222.0004        168.0004
  22370813.9264  -13286584.72249 -10330028.16346  22370813.4284   22370818.7924
       229.0004        181.0004
  23246807.8464   -4581275.39149  -3416821.83946  23246807.5604   23246814.7514
       219.0004        164.0004
  20791841.3304  -20493964.74649 -15954972.41547  20791841.5984   20791845.8804
       244.0004        210.0004
  20463044.7124  -25571952.90249 -19907056.39248  20463044.4294   20463046.6914
       243.0004        214.0004
 06  5 10  2 45  0.0000000  0  7G27G 8G16G20G 3G13G23
  22745681.0414  -12716353.77949  -9899713.92846  22745680.5134   22745686.3844
       226.0004        181.0004
  24799121.3534   -2143162.43149  -1656493.64045  24799120.4364   24799129.1294
       211.0004        147.0004
  22960009.0924   -6624105.56549  -5148919.71846  22960009.3364   22960013.7324
       222.0004        169.0004
  22389386.0514  -13188987.13149 -10253978.12146  22389385.8414   22389391.7664
       229.0004        180.0004
  23236978.1564   -4632930.43749  -3457072.48146  23236977.9954   23236983.7164
       219.0004        164.0004
  20783565.8314  -20537452.63449 -15988859.06847  20783566.1874   20783570.7274
       244.0004        211.0004
  20465920.2544  -25556841.77049 -19895281.49448  20465920.3084   20465921.9684
       244.0004        214.0004
 06  5 10  2 45 30.0000000  0  7G27G 8G16G20G 3G13G23
  22737544.6414  -12759110.46449  -9933030.77946  22737544.2664   22737550.0134
       226.0004        179.0004
  24784793.8624   -2218451.47949  -1715160.37345  24784793.0854   24784801.6044
       209.0004        150.0004
  22976429.0144   -6537818.69949  -5081683.21546  22976428.2804   22976433.1714
       224.0004        169.0004
  22408005.7364  -13091140.55149 -10177734.05146  22408005.5014   22408011.7464
       230.0004        180.0004
  23227214.5054   -4684238.77549  -3497052.93846  23227215.0144   23227220.1384
       220.0004        163.0004
  20775338.0704  -20580689.95749 -16022550.48147  20775338.2934   20775341.6754
       245.0004        211.0004
  20468866.7144  -25541358.41449 -19883216.53648  20468866.2794   20468868.4154
       244.0004        214.0004
 06  5 10  2 46  0.0000000  0  7G27G 8G16G20G 3G13G23
  22729433.7024  -12801733.00549  -9966243.12346  22729433.1114   22729439.0644
       225.0004        179.0004
  24770486.5724   -2293635.17449  -1773744.97845  24770486.6594   24770495.0874
       210.0004        152.0004
  22992906.8284   -6451226.98449  -5014209.16546  22992907.2724   22992911.4044
       222.0004        169.0004
  22426672.2984  -12993047.31549 -10101297.78546  22426672.3184   22426677.5674
       230.0004        179.0004
  23217517.5284   -4735196.56749  -3536760.25846  23217517.1474   23217523.5144
       219.0004        164.0004
  20767158.5274  -20623673.68749 -16056044.30447  20767158.6054   20767162.1564
       243.0004        210.0004
  20471884.3144  -25525500.58149 -19870859.80048  20471883.9904   20471886.0414
       243.0004        214.0004
